[[{"header":{"parameterUnit":"m.s-1","parameterCategory":1,"la1":30.6,"la2":29.2853,"lo1":-89.7004,"lo2":-87.6739,"dy":0.0162,"dx":0.0183,"nx":112,"ny":82,"refTime":"2023-10-31T12:00:00:Z","depth":0,"parameterNumber":2,"parameterNumberName":"U-component_of_WINDS"},"data":[0.0,0.0,0.0,0.0,0.0,0.0,0.0,0.0,0.0,0.0,0.0,0.0,0.0,0.0,0.0,0.0,0.0,0.0,0.0,0.0,0.0,0.0,0.0,0.0,0.0,0.0,0.0,0.0,0.0,0.0,0.0,0.0,0.0,0.0,0.0,0.0,0.0,0.0,0.0,0.0,0.0,0.0,0.0,0.0,0.0,0.0,0.0,0.0,0.0,0.0,0.0,0.0,0.0,0.0,0.0,0.0,0.0,0.0,0.0,0.0,0.0,0.0,0.0,0.0,0.0,0.0,0.0,0.0,0.0,0.0,0.0,0.0,0.0,0.0,0.0,0.0,0.0,0.0,0.0,0.0,0.0,0.0,0.0,0.0,0.0,0.0,0.0,0.0,0.0,0.0,1.3762,1.3024,1.2673,1.2764,1.3386,1.2783,1.3034,1.4631,0.0,0.0,0.0,0.0,0.0,0.0,0.0,0.0,0.0,0.0,0.0,0.0,0.0,0.0,0.0,0.0,0.0,0.0,0.0,0.0,0.0,0.0,0.0,0.0,0.0,0.0,0.0,0.0,0.0,0.0,0.0,0.0,0.0,0.0,0.0,0.0,0.0,0.0,0.0,0.0,0.0,0.0,0.0,0.0,0.0,0.0,0.0,0.0,0.0,0.0,0.0,0.0,0.0,0.0,0.0,0.0,0.0,0.0,0.0,0.0,0.0,0.0,0.0,0.0,0.0,0.0,0.0,0.0,0.0,0.0,0.0,0.0,0.0,0.0,0.0,0.0,0.0,0.0,0.0,0.0,0.0,0.0,0.0,0.0,0.0,0.0,0.0,0.0,0.0,0.0,0.0,0.0,0.0,0.0,0.0,0.0,0.0,0.0,0.0,0.0,0.0,0.0,0.0,0.0,1.3968,1.3216,1.3014,1.2861,1.2764,1.2442,1.2589,1.3413,0.0,0.0,0.0,0.0,0.0,0.0,0.0,0.0,0.0,0.0,0.0,0.0,0.0,0.0,0.0,0.0,0.0,0.0,0.0,0.0,0.0,0.0,0.0,0.0,0.0,0.0,0.0,0.0,0.0,0.0,0.0,0.0,0.0,0.0,0.0,0.0,0.0,0.0,0.0,0.0,0.0,0.0,0.0,0.0,0.0,0.0,0.0,0.0,0.0,0.0,0.0,0.0,0.0,0.0,0.0,0.0,0.0,0.0,0.0,0.0,0.0,0.0,0.0,0.0,0.0,0.0,0.0,0.0,0.0,0.0,0.0,0.0,0.0,0.0,0.0,0.0,0.0,0.0,0.0,0.0,0.0,0.0,0.0,0.0,0.0,0.0,0.0,0.0,0.0,0.0,0.0,0.0,0.0,0.0,0.0,0.0,0.0,0.0,0.0,0.0,0.0,0.0,0.0,1.3179,1.287,1.238,1.1857,1.1676,1.1974,1.1676,1.1875,1.2812,1.3413,0.0,0.0,0.0,0.0,0.0,0.0,0.0,0.0,0.0,0.0,0.0,0.0,0.0,0.0,0.0,0.0,0.0,0.0,0.0,0.0,0.0,0.0,0.0,0.0,0.0,0.0,0.0,0.0,0.0,0.0,0.0,0.0,0.0,0.0,0.0,0.0,0.0,0.0,0.0,0.0,0.0,0.0,0.0,0.0,0.0,0.0,0.0,0.0,0.0,0.0,0.0,0.0,0.0,0.0,0.0,0.0,0.0,0.0,0.0,0.0,0.0,0.0,0.0,0.0,0.0,0.0,0.0,0.0,0.0,0.0,0.0,0.0,0.0,0.0,0.0,0.0,0.0,0.0,0.0,0.0,0.0,0.0,0.0,0.0,0.0,0.0,0.0,0.0,0.0,0.0,0.0,0.0,0.0,0.0,0.0,0.0,0.0,0.0,0.0,0.0,0.0,0.0,1.2178,1.1918,1.1682,1.1055,1.0924,1.1627,1.136,1.1602,1.2707,1.315,0.0,0.0,0.0,0.0,0.0,0.0,0.0,0.0,0.0,0.0,0.0,0.0,0.0,0.0,0.0,0.0,0.0,0.0,0.0,0.0,0.0,0.0,0.0,0.0,0.0,0.0,0.0,0.0,0.0,0.0,0.0,0.0,0.0,0.0,0.0,0.0,0.0,0.0,0.0,0.0,0.0,0.0,0.0,0.0,0.0,0.0,0.0,0.0,0.0,0.0,0.0,0.0,0.0,0.0,0.0,0.0,0.0,0.0,0.0,0.0,0.0,0.0,0.0,0.0,0.0,0.0,0.0,0.0,0.0,0.0,0.0,0.0,0.0,0.0,0.0,0.0,0.0,0.0,0.0,0.0,0.0,0.0,0.0,0.0,0.0,0.0,0.0,0.0,0.0,0.0,0.0,0.0,0.0,0.0,0.0,0.0,0.0,0.0,0.0,0.0,0.0,0.0,1.195,1.1944,1.1817,1.1719,1.1828,1.2206,1.1997,1.2257,1.3284,1.3605,0.0,0.0,0.0,0.0,0.0,0.0,0.0,0.0,0.0,0.0,0.0,0.0,0.0,0.0,0.0,0.0,0.0,0.0,0.0,0.0,0.0,0.0,0.0,0.0,0.0,0.0,0.0,0.0,0.0,0.0,0.0,0.0,0.0,0.0,0.0,0.0,0.0,0.0,0.0,0.0,0.0,0.0,0.0,0.0,0.0,0.0,0.0,0.0,0.0,0.0,0.0,0.0,0.0,0.0,0.0,0.0,0.0,0.0,0.0,0.0,0.0,0.0,0.0,0.0,0.0,0.0,0.0,0.0,0.0,0.0,0.0,0.0,0.0,0.0,0.0,0.0,0.0,0.0,0.0,0.0,0.0,0.0,0.0,0.0,0.0,0.0,0.0,0.0,0.0,0.0,0.0,0.0,0.0,0.0,0.0,0.0,0.0,0.0,0.0,0.0,0.0,0.0,1.2035,1.1842,0.0,1.1435,1.1538,1.1668,1.1656,1.2131,1.3268,0.0,0.0,0.0,0.0,0.0,0.0,0.0,0.0,0.0,0.0,0.0,0.0,0.0,0.0,0.0,0.0,0.0,0.0,0.0,0.0,0.0,0.0,0.0,0.0,0.0,0.0,0.0,0.0,0.0,0.0,0.0,0.0,0.0,0.0,0.0,0.0,0.0,0.0,0.0,0.0,0.0,0.0,0.0,0.0,0.0,0.0,0.0,0.0,0.0,0.0,0.0,0.0,0.0,0.0,0.0,0.0,0.0,0.0,0.0,0.0,0.0,0.0,0.0,0.0,0.0,0.0,0.0,0.0,0.0,0.0,0.0,0.0,0.0,0.0,0.0,0.0,0.0,0.0,0.0,0.0,0.0,0.0,0.0,0.0,0.0,0.0,0.0,0.0,0.0,0.0,0.0,0.0,0.0,0.0,0.0,0.0,0.0,0.0,0.0,0.0,0.0,0.0,1.2387,1.2045,1.1716,0.0,1.1462,1.1566,1.1705,1.1808,1.2368,1.3616,0.0,0.0,0.0,0.0,0.0,0.0,0.0,0.0,0.0,0.0,0.0,0.0,0.0,0.0,0.0,0.0,0.0,0.0,0.0,0.0,0.0,0.0,0.0,0.0,0.0,0.0,0.0,0.0,0.0,0.0,0.0,0.0,0.0,0.0,0.0,0.0,0.0,0.0,0.0,0.0,0.0,0.0,0.0,0.0,0.0,0.0,0.0,0.0,0.0,0.0,0.0,0.0,0.0,0.0,0.0,0.0,0.0,0.0,0.0,0.0,0.0,0.0,0.0,0.0,0.0,0.0,0.0,0.0,0.0,0.0,0.0,0.0,0.0,0.0,0.0,0.0,0.0,0.0,0.0,0.0,0.0,0.0,0.0,0.0,0.0,0.0,0.0,0.0,0.0,0.0,0.0,0.0,0.0,0.0,0.0,0.0,0.0,0.0,0.0,0.0,0.0,0.0,1.2619,1.198,1.163,1.195,1.2027,1.217,1.2566,1.2598,1.3133,0.0,0.0,0.0,0.0,0.0,0.0,0.0,0.0,0.0,0.0,0.0,0.0,0.0,0.0,0.0,0.0,0.0,0.0,0.0,0.0,0.0,0.0,0.0,0.0,0.0,0.0,0.0,0.0,0.0,0.0,0.0,0.0,0.0,0.0,0.0,0.0,0.0,0.0,0.0,0.0,0.0,0.0,0.0,0.0,0.0,0.0,0.0,0.0,0.0,0.0,0.0,0.0,0.0,0.0,0.0,0.0,0.0,0.0,0.0,0.0,0.0,0.0,0.0,0.0,0.0,0.0,0.0,0.0,0.0,0.0,0.0,0.0,0.0,0.0,0.0,0.0,0.0,0.0,0.0,0.0,0.0,0.0,0.0,0.0,0.0,0.0,0.0,0.0,0.0,0.0,0.0,0.0,0.0,0.0,0.0,0.0,0.0,0.0,0.0,0.0,0.0,0.0,0.0,1.2934,1.2475,1.2161,1.2393,1.2439,1.2471,1.2582,1.2598,1.295,1.3752,0.0,0.0,0.0,0.0,0.0,0.0,0.0,0.0,0.0,0.0,0.0,0.0,0.0,0.0,0.0,0.0,0.0,0.0,0.0,0.0,0.0,0.0,0.0,0.0,0.0,0.0,0.0,0.0,0.0,0.0,0.0,0.0,0.0,0.0,0.0,0.0,0.0,0.0,0.0,0.0,0.0,0.0,0.0,0.0,0.0,0.0,0.0,0.0,0.0,0.0,0.0,0.0,0.0,0.0,0.0,0.0,0.0,0.0,0.0,0.0,0.0,0.0,0.0,0.0,0.0,0.0,0.0,0.0,0.0,0.0,0.0,0.0,0.0,0.0,0.0,0.0,0.0,0.0,0.0,0.0,0.0,0.0,0.0,0.0,0.0,0.0,0.0,0.0,0.0,0.0,0.0,0.0,0.0,0.0,0.0,0.0,0.0,0.0,0.0,0.0,0.0,0.0,1.3067,1.2728,1.2459,1.2598,1.2598,1.2598,1.2598,1.2721,1.3042,1.3662,0.0,0.0,0.0,0.0,0.0,0.0,0.0,0.0,0.0,0.0,0.0,0.0,0.0,0.0,0.0,0.0,0.0,0.0,0.0,0.0,0.0,0.0,0.0,0.0,0.0,0.0,0.0,0.0,0.0,0.0,0.0,0.0,0.0,0.0,0.0,0.0,0.0,0.0,0.0,0.0,0.0,0.0,0.0,0.0,0.0,0.0,0.0,0.0,0.0,0.0,0.0,0.0,0.0,0.0,0.0,0.0,0.0,0.0,0.0,0.0,0.0,0.0,0.0,0.0,0.0,0.0,0.0,0.0,0.0,0.0,0.0,0.0,0.0,0.0,0.0,0.0,0.0,0.0,0.0,0.0,0.0,0.0,0.0,0.0,0.0,0.0,0.0,0.0,0.0,0.0,0.0,0.0,0.0,0.0,0.0,0.0,0.0,0.0,0.0,0.0,0.0,0.0,1.2917,1.2658,1.2444,1.2444,1.2444,1.2444,1.2444,1.2736,1.3194,1.3799,0.0,0.0,0.0,0.0,0.0,0.0,0.0,0.0,0.0,0.0,0.0,0.0,0.0,0.0,0.0,0.0,0.0,0.0,0.0,0.0,0.0,0.0,0.0,0.0,0.0,0.0,0.0,0.0,0.0,0.0,0.0,0.0,0.0,0.0,0.0,0.0,0.0,0.0,0.0,0.0,0.0,0.0,0.0,0.0,0.0,0.0,0.0,0.0,0.0,0.0,0.0,0.0,0.0,0.0,0.0,0.0,0.0,0.0,0.0,0.0,0.306,0.0,0.0,0.0,0.0,0.0,0.0,0.0,0.0,0.0,0.0,0.0,0.0,0.0,0.0,0.0,0.0,0.0,0.0,0.0,0.0,0.0,0.0,0.0,0.0,0.0,0.0,0.0,0.0,0.0,0.0,0.0,0.0,0.0,0.0,0.0,0.0,0.0,0.0,0.0,0.0,0.0,1.2397,1.1779,1.1327,1.1327,1.1327,1.1327,1.1327,1.2011,1.2521,1.2644,1.3752,0.0,0.0,0.0,0.0,0.0,0.0,0.0,0.0,0.0,0.0,0.0,0.0,0.0,0.0,0.0,0.0,0.0,0.0,0.0,0.0,0.0,0.0,0.0,0.0,0.0,0.0,0.0,0.0,0.0,0.0,0.0,0.0,0.0,0.0,0.0,0.0,0.0,0.0,0.0,0.0,0.0,0.0,0.0,0.0,0.0,0.0,0.0,0.0,0.0,0.0,0.0,0.0,0.0,0.0,0.0,0.0,0.0,0.0,0.0,0.0,0.2579,0.0,0.0,0.0,0.0,0.0,0.0,0.0,0.0,0.0,0.0,0.0,0.0,0.0,0.0,0.0,0.0,0.0,0.0,0.0,0.0,0.0,0.0,0.0,0.0,0.0,0.0,0.0,0.0,0.0,0.0,0.0,0.0,0.0,0.0,0.0,0.0,0.0,0.0,0.0,0.0,1.1748,1.1358,1.0982,1.0982,1.0982,1.0982,1.0982,1.1577,1.195,1.2058,1.3086,0.0,0.0,0.0,0.0,0.0,0.0,0.0,0.0,0.0,0.0,0.0,0.0,0.0,0.0,0.0,0.0,0.0,0.0,0.0,0.0,0.0,0.0,0.0,0.0,0.0,0.0,0.0,0.0,0.0,0.0,0.0,0.0,0.0,0.0,0.0,0.0,0.0,0.0,0.0,0.0,0.0,0.0,0.0,0.0,0.0,0.0,0.0,0.0,0.0,0.0,0.0,0.0,0.0,-0.1319,-0.0585,-0.0584,0.0285,0.0494,0.0246,0.1169,0.1591,0.1709,0.2415,0.0,0.0,0.0,0.0,0.0,0.0,0.0,0.0,0.0,0.0,0.0,0.0,0.0,0.0,0.0,0.0,0.0,0.0,0.0,0.0,0.0,0.0,0.0,0.0,0.6988,0.6996,0.7551,0.0,0.0,0.0,0.0,0.0,0.0,0.0,0.0,0.0,0.0,0.0,1.1076,1.0911,1.0812,1.0812,1.0853,1.0894,1.0894,1.128,1.1614,1.1727,1.2429,1.286,0.0,0.0,0.0,0.0,0.0,0.0,0.0,0.0,0.0,0.0,0.0,0.0,0.0,0.0,0.0,0.0,0.0,0.0,0.0,0.0,0.0,0.0,0.0,0.0,0.0,0.0,0.0,0.0,0.0,0.0,0.0,0.0,-1.0791,-1.1009,0.0,0.0,0.0,0.0,0.0,0.0,0.0,0.0,0.0,0.0,0.0,0.0,0.0,-0.5079,-0.438,-0.4067,-0.3565,-0.2789,-0.2387,-0.2213,-0.2173,-0.1355,-0.1015,-0.1015,-0.0144,0.0,0.0671,0.0673,0.0,0.0,0.0,0.0,0.0,0.0,0.0,0.0,0.0,0.0,0.0,0.0,0.0,0.0,0.0,0.0,0.0,0.0,0.0,0.0,0.0,0.0,0.6306,0.6058,0.627,0.6526,0.0,0.7735,0.9192,0.9888,1.0015,0.0,0.0,0.0,0.0,0.0,0.0,0.0,1.0206,1.01,1.0052,1.0052,1.0261,1.0396,1.0396,1.1303,1.1731,1.1465,1.239,1.2869,1.2581,1.3494,0.0,0.0,0.0,0.0,0.0,0.0,0.0,0.0,0.0,0.0,0.0,0.0,0.0,0.0,0.0,0.0,0.0,0.0,0.0,0.0,0.0,0.0,0.0,0.0,0.0,0.0,0.0,0.0,0.0,-1.0791,-1.0837,-1.1056,-1.108,-1.0956,0.0,0.0,0.0,0.0,0.0,0.0,0.0,0.0,0.0,-0.544,-0.544,-0.5207,-0.474,-0.4662,-0.4423,-0.4034,-0.3484,-0.3231,-0.3193,-0.2366,-0.1968,-0.1931,-0.1099,-0.0647,-0.0458,0.0141,0.0496,0.0681,0.0,0.0,0.0,0.0,0.2182,0.2393,0.2643,0.2892,0.322,0.4078,0.0,0.0,0.0,0.0,0.0,0.0,0.0,0.5972,0.0,0.0,0.5692,0.5411,0.5555,0.5871,0.6301,0.7128,0.8035,0.0,0.9355,0.9791,0.9645,0.0,0.0,0.0,0.0,1.0651,1.0471,1.0248,1.0118,1.0118,1.0329,1.0471,1.0471,1.1011,1.1335,1.127,1.2092,1.2712,1.3091,1.3906,1.4724,0.0,0.0,0.0,0.0,0.0,0.0,0.0,0.0,0.0,0.0,0.0,0.0,0.0,0.0,0.0,0.0,0.0,0.0,0.0,0.0,0.0,0.0,0.0,0.0,0.0,0.0,0.0,0.0,-1.0818,-1.0706,-1.0931,-1.0781,-1.0743,0.0,0.0,0.0,0.0,0.0,0.0,-0.6865,-0.6215,-0.5673,-0.5246,-0.5207,-0.5168,-0.5018,-0.5018,-0.5018,-0.4979,-0.4384,-0.4107,-0.4064,-0.3224,-0.2816,-0.2775,-0.1982,-0.1486,-0.1224,-0.0073,0.0329,0.0331,0.081,0.085,0.0706,0.0886,0.0994,0.1066,0.1395,0.1652,0.1874,0.2476,0.2999,0.3515,0.4252,0.0,0.0,0.0,0.0,0.5329,0.5255,0.5182,0.5151,0.5224,0.5298,0.5585,0.6353,0.6718,0.7086,0.0,0.8624,0.9184,0.9009,0.0,0.0,0.0,0.0,1.0551,1.0667,1.052,1.0429,1.0464,1.0666,1.0808,1.0879,1.1055,1.1204,1.1301,1.1819,1.2395,1.3016,1.3867,1.4852,1.5936,0.0,0.0,0.0,0.0,0.0,0.0,0.0,0.0,0.0,0.0,0.0,0.0,0.0,0.0,0.0,0.0,0.0,0.0,0.0,0.0,0.0,0.0,0.0,0.0,0.0,0.0,0.0,0.0,0.0,-1.0519,-1.0368,0.0,0.0,0.0,0.0,-0.9377,-0.9226,-0.8428,-0.6718,-0.6563,-0.606,-0.5057,-0.5018,-0.5018,-0.5018,-0.5018,-0.5018,-0.5018,-0.4979,-0.494,-0.4901,-0.4103,-0.3744,-0.3667,-0.2807,-0.199,-0.1245,-0.0334,-0.0074,-0.0189,0.0378,0.0499,0.0351,0.0534,0.1057,0.1621,0.1395,0.1734,0.2309,0.2438,0.2262,0.2301,0.393,0.3585,0.0,0.0,0.4603,0.3783,0.4991,0.4874,0.4675,0.5648,0.5841,0.5957,0.6234,0.6612,0.7086,0.0,0.7964,0.7894,0.7548,0.0,0.8589,0.8679,0.9265,0.9811,1.0251,1.055,1.0743,1.0946,1.1217,1.144,1.1625,1.181,1.1853,1.1615,1.1779,1.1787,1.1505,1.2882,1.3734,1.3933,1.6008,0.0,0.0,0.0,0.0,0.0,0.0,0.0,0.0,0.0,0.0,0.0,0.0,0.0,0.0,0.0,0.0,0.0,0.0,0.0,0.0,0.0,0.0,0.0,0.0,0.0,0.0,0.0,0.0,-1.0481,-1.0331,0.0,-1.0481,-1.0368,-1.018,-0.9916,-0.9263,-0.8618,-0.7978,-0.6934,-0.621,-0.5915,-0.5405,-0.5165,-0.5241,-0.5246,-0.5246,-0.5246,-0.5246,-0.5246,-0.5241,-0.4879,-0.4718,-0.4634,-0.3738,-0.3168,-0.2852,-0.1959,-0.0998,-0.0078,0.0116,0.0156,0.0118,0.0195,0.0387,0.0581,0.0504,0.062,0.0931,0.1523,0.1644,0.1724,0.2852,0.2856,0.2663,0.3402,0.3207,0.2973,0.3558,0.3951,0.438,0.4963,0.5506,0.5983,0.6261,0.6416,0.6566,0.6829,0.7509,0.7836,0.7173,0.8022,0.8652,0.8328,0.88,0.9427,0.9963,1.0251,1.0603,1.1193,1.1575,1.1824,1.1898,1.2083,1.2141,1.2048,1.2108,1.2358,1.2735,1.3711,1.4618,1.5394,1.6667,1.7566,0.0,0.0,0.0,0.0,0.0,0.0,0.0,0.0,0.0,0.0,0.0,0.0,0.0,0.0,0.0,0.0,0.0,0.0,0.0,0.0,0.0,0.0,0.0,0.0,0.0,0.0,-1.0255,-1.0481,-1.0255,-1.018,-1.0368,-1.0218,-1.0138,-1.0226,-0.9625,-0.9154,-0.8941,-0.7878,-0.7185,-0.7024,-0.6175,-0.5776,-0.5865,-0.5574,-0.5413,-0.5413,-0.5413,-0.5413,-0.5407,-0.5325,-0.5246,-0.5241,-0.4598,-0.4166,-0.3842,-0.3216,-0.2099,-0.0793,-0.0551,-0.0275,0.0,0.0,0.0,0.0,0.0,0.0,0.0118,0.0746,0.098,0.1137,0.2035,0.2309,0.2348,0.2621,0.2543,0.2504,0.2898,0.3288,0.3717,0.4258,0.5002,0.5628,0.5828,0.6106,0.63,0.63,0.6949,0.7326,0.6788,0.748,0.8122,0.8275,0.8466,0.9036,1.0255,1.0331,1.0631,1.1515,1.1848,1.2046,1.212,1.2231,1.2305,1.2305,1.2305,1.2562,1.3062,1.4063,1.4994,1.5807,1.6959,1.7885,1.8544,0.0,0.0,0.0,0.0,0.0,0.0,0.0,0.0,0.0,0.0,0.0,0.0,0.0,0.0,0.0,0.0,0.0,0.0,0.0,0.0,0.0,0.0,0.0,-1.0455,-1.0342,-1.0267,-1.0466,-1.0165,-1.0014,-1.0202,-1.0051,-1.0046,-1.0283,-1.0304,-1.0034,-0.9461,-0.943,-0.9064,-0.8254,-0.7349,-0.6819,-0.6826,-0.5919,-0.5424,-0.5424,-0.5424,-0.5424,-0.5424,-0.5418,-0.5418,-0.5418,-0.5413,-0.4907,-0.4143,-0.4014,-0.3366,-0.2387,-0.1621,-0.0823,-0.0079,-0.0079,-0.0039,0.0,0.0,0.0,0.0039,0.0236,0.0314,0.051,0.1528,0.1842,0.2037,0.282,0.2585,0.2314,0.3132,0.2901,0.2705,0.3597,0.4419,0.5002,0.504,0.5712,0.63,0.63,0.63,0.63,0.63,0.63,0.6834,0.8399,0.8161,0.0,1.0993,1.0781,1.0818,1.1861,1.1972,1.2083,1.2268,1.2305,1.2305,1.2305,1.2305,1.2305,1.2342,1.3774,1.4708,1.4939,1.6768,1.8138,1.9011,0.0,0.0,0.0,0.0,0.0,0.0,0.0,0.0,0.0,0.0,0.0,0.0,0.0,0.0,0.0,0.0,0.0,0.0,0.0,0.0,0.0,0.0,-1.0458,-1.0373,-1.0302,-1.0367,-1.0531,-1.0473,-1.0444,-1.0473,-1.0433,-1.0426,-1.0501,-1.0501,-1.0442,-1.0303,-0.9725,-0.9333,-0.9234,-0.8405,-0.7665,-0.7014,-0.6753,-0.6281,-0.5632,-0.5632,-0.5632,-0.5632,-0.5497,-0.5459,-0.5454,-0.5409,-0.5282,-0.5032,-0.4997,-0.4362,-0.335,-0.2505,-0.192,-0.1608,-0.1608,-0.1099,-0.0354,0.0236,0.0432,0.0432,0.0511,0.0511,0.0589,0.0863,0.0942,0.102,0.1216,0.1177,0.1138,0.1491,0.1922,0.2549,0.3558,0.4419,0.5162,0.5789,0.6145,0.63,0.63,0.63,0.63,0.63,0.6525,0.6826,0.7134,0.7288,0.0,0.8874,0.8988,0.9518,1.0993,1.1267,1.1589,1.2268,1.2305,1.2378,1.2526,1.2526,1.2562,1.2709,1.368,1.4832,1.6105,1.7304,1.8259,0.0,0.0,0.0,0.0,0.0,0.0,0.0,0.0,0.0,0.0,0.0,0.0,0.0,0.0,0.0,0.0,0.0,0.0,0.0,0.0,0.0,0.0,-1.0314,-1.0303,-1.0302,-1.0378,-1.0487,-1.0576,-1.0597,-1.0597,-1.0597,-1.0597,-1.064,-1.0778,-1.0408,-1.0243,-1.0293,-0.9489,-0.9081,-0.9154,-0.8303,-0.7614,-0.7092,-0.67,-0.6263,-0.5691,-0.5691,-0.5691,-0.5686,-0.5528,-0.5452,-0.5447,-0.5292,-0.5304,-0.5384,-0.5214,-0.4808,0.0,0.0,0.0,0.0,0.0,-0.1535,-0.0566,-0.0121,0.0321,0.0638,0.0758,0.0752,0.0746,0.0864,0.0904,0.0904,0.0904,0.0904,0.0904,0.1021,0.1453,0.1961,0.2585,0.3366,0.4107,0.4618,0.5318,0.5899,0.5899,0.6247,0.0,0.6563,0.6672,0.6865,0.7173,0.7219,0.7557,0.8609,0.8609,0.9036,1.0282,1.0844,1.1304,1.175,1.212,0.0,0.0,0.0,1.2856,1.3368,1.4165,0.0,0.0,0.0,1.8124,1.8596,1.8596,0.0,0.0,2.0222,2.0647,0.0,0.0,0.0,0.0,0.0,0.0,0.0,0.0,0.0,0.0,0.0,0.0,0.0,0.0,0.0,0.0,-0.9896,-1.0007,-1.0238,-1.0429,-1.055,-1.0672,-1.0632,-1.0591,-1.0591,-1.055,-1.0635,-1.092,-1.0038,-0.9615,-0.9845,0.0,0.0,0.0,0.0,-0.717,-0.7057,-0.6215,-0.5773,-0.5639,-0.5639,-0.5639,-0.5639,-0.5444,-0.5345,-0.5345,-0.5107,-0.5146,-0.5319,-0.4961,-0.4836,-0.4822,-0.4109,-0.3273,-0.2438,-0.2354,-0.1722,-0.0924,-0.0714,0.0,0.0,0.094,0.1007,0.099,0.1228,0.1307,0.1307,0.1307,0.1305,0.1302,0.1302,0.1299,0.1335,0.1414,0.2,0.2549,0.2666,0.4064,0.5345,0.5345,0.6202,0.6903,0.6942,0.6788,0.698,0.7855,0.7557,0.7748,0.9178,0.8884,0.8922,0.982,0.0,0.0,1.1217,1.1898,1.2415,1.2636,1.2673,1.3112,1.3985,1.474,1.5542,1.649,1.7217,1.775,1.8008,1.8008,1.8076,1.8313,1.9639,2.0291,0.0,0.0,0.0,0.0,0.0,0.0,0.0,0.0,0.0,0.0,0.0,0.0,0.0,0.0,0.0,-1.0,-0.9967,-1.0019,-1.0058,-1.0072,-1.0396,-1.1081,-1.0814,-1.06,-1.06,-1.03,-1.0277,-1.0661,-0.9659,-0.92,-0.9628,-0.8563,-0.7967,-0.811,-0.793,-0.7496,-0.6793,-0.6613,-0.6147,-0.5364,0.0,0.0,-0.5359,-0.5225,-0.5137,-0.5132,-0.5046,-0.5008,-0.5053,-0.4989,-0.4896,-0.4705,-0.4346,-0.4072,-0.3821,-0.3148,-0.2687,-0.2181,-0.0713,-0.0084,0.0167,0.1004,0.1251,0.1247,0.1289,0.1289,0.0,0.1289,0.1313,0.1294,0.1294,0.1316,0.1453,0.2118,0.251,0.2937,0.364,0.473,0.5544,0.5544,0.6279,0.6942,0.7103,0.7103,0.7142,0.7334,0.7411,0.7557,0.7863,0.7787,0.8275,0.9744,1.0045,1.0645,1.1972,1.2378,1.2636,1.282,1.3163,1.3419,1.3601,1.433,1.5065,1.586,1.6664,1.7354,1.8008,1.8008,1.8008,1.8076,1.9044,1.9606,0.0,0.0,0.0,0.0,0.0,0.0,0.0,0.0,0.0,0.0,0.0,-0.9994,0.0,0.0,-0.9907,-0.9689,-0.9646,-0.9646,-0.9646,-0.9646,-0.9907,-1.0559,-1.0429,-1.0289,-1.0289,-1.0125,-0.9951,-0.9767,-0.8802,-0.8228,-0.8124,-0.7125,-0.6557,-0.6629,-0.6629,-0.6432,-0.5984,-0.5984,-0.5748,-0.528,-0.528,-0.528,-0.528,-0.5083,-0.5013,-0.5008,-0.4871,-0.4848,-0.4936,-0.4936,-0.4848,-0.466,-0.4516,-0.4379,-0.4251,-0.3862,-0.3339,-0.2647,-0.1258,-0.0431,0.0085,0.1027,0.1317,0.1305,0.1473,0.1389,0.1347,0.1473,0.1419,0.1325,0.1448,0.1518,0.1625,0.2153,0.2397,0.2556,0.3002,0.385,0.453,0.453,0.5626,0.6595,0.6672,0.7057,0.7334,0.7334,0.745,0.748,0.748,0.748,0.7825,0.8618,0.9074,0.9669,1.0571,1.1663,1.2526,1.3017,1.3346,1.3492,1.3492,1.4222,1.478,1.5136,1.6298,1.7079,1.7442,1.7837,1.8042,1.8178,1.8596,1.8865,0.0,0.0,0.0,0.0,0.0,0.0,0.0,0.0,-1.0246,-0.982,-0.9733,-0.9733,-0.9733,-0.9733,-0.9602,-0.9218,-0.9174,-0.9174,-0.9174,-0.9174,-0.9305,-0.9689,-0.982,-0.9864,-0.9864,-0.9777,-0.9533,-0.9033,-0.8012,-0.723,-0.6798,-0.5743,-0.5147,-0.517,-0.517,-0.5179,-0.5197,-0.5197,-0.5197,-0.5197,-0.5197,-0.5197,-0.5197,-0.4984,-0.4879,-0.4832,-0.4672,-0.4711,-0.4849,-0.4849,-0.4759,-0.4621,-0.4621,-0.4483,-0.4353,-0.4353,-0.3901,-0.3038,-0.1856,-0.0941,-0.0088,0.1101,0.1435,0.1459,0.1706,0.1661,0.1535,0.1746,0.1614,0.1526,0.1734,0.1771,0.185,0.206,0.2144,0.2144,0.2144,0.2896,0.3627,0.383,0.5166,0.6329,0.6524,0.711,0.7561,0.7496,0.748,0.748,0.748,0.748,0.7557,0.771,0.836,0.896,0.9528,1.1217,1.2526,1.32,1.3419,1.3492,1.3492,1.4093,1.4458,1.4601,1.5807,1.6611,1.6906,1.751,1.7979,1.8364,1.8364,1.8432,-1.1402,-1.094,0.0,-1.0669,-1.0429,-1.0038,0.0,0.0,-0.9305,-0.8876,-0.8744,-0.8744,-0.8744,-0.8744,-0.8744,-0.87,-0.87,-0.87,-0.87,-0.87,-0.87,-0.8744,-0.913,-0.9393,-0.9393,-0.8999,-0.8935,-0.94,-0.7762,-0.6915,-0.7363,-0.5648,-0.4706,-0.4789,-0.4789,-0.4777,-0.4856,-0.4856,-0.4856,-0.4856,-0.4856,-0.4856,-0.4852,-0.4777,-0.474,-0.4736,-0.4654,-0.4621,-0.4621,-0.4621,-0.4621,-0.4621,-0.4621,-0.4608,-0.4588,-0.4588,-0.4493,-0.4116,-0.2175,-0.1416,-0.0987,0.1062,0.1743,0.1781,0.2061,0.2138,0.2094,0.2138,0.2066,0.2036,0.2036,0.2048,0.206,0.2102,0.2228,0.2354,0.2354,0.3141,0.4134,0.5002,0.5941,0.6839,0.7665,0.7869,0.7845,0.7529,0.748,0.748,0.748,0.748,0.7787,0.8475,0.8808,0.9717,1.1515,1.2526,1.32,1.3455,1.3492,1.3492,1.3492,1.3564,1.3949,1.4601,1.478,1.5525,1.6906,1.6975,1.7543,1.8555,1.8555,1.8854,-1.0776,0.0,0.0,0.0,-1.0125,-0.9864,-0.9393,-0.9305,-0.9174,-0.87,-0.8612,-0.8612,-0.8612,-0.8612,-0.8612,0.0,-0.8612,-0.8612,-0.8612,-0.8612,-0.8612,-0.8612,-0.8788,-0.8876,-0.8876,-0.8791,-0.8657,-0.854,-0.7476,-0.6744,-0.6565,-0.5377,-0.4741,-0.4781,-0.4781,-0.4748,-0.4784,-0.4784,-0.4784,-0.4784,-0.4784,-0.4784,-0.4784,-0.4748,-0.4781,-0.4781,-0.4741,-0.4724,-0.4675,-0.4381,-0.4234,-0.4237,-0.3893,-0.3795,-0.3834,-0.4418,-0.4621,-0.4332,-0.2571,-0.1665,-0.095,0.0802,0.1696,0.2163,0.2423,0.2352,0.2239,0.2376,0.2296,0.217,0.2303,0.2332,0.2359,0.2534,0.2621,0.2711,0.2711,0.2984,0.3553,0.4529,0.5362,0.6185,0.7143,0.781,0.818,0.8062,0.7877,0.7796,0.7847,0.7838,0.7991,0.8302,0.9115,1.0176,1.1474,1.2643,1.3477,1.4062,1.4062,1.4062,1.4062,1.4062,1.4252,1.4539,1.4959,1.5519,1.6147,1.708,1.7786,1.8263,1.8896,1.9521,-1.0168,0.0,0.0,-0.982,-0.9689,-0.9524,-0.9174,-0.9087,-0.8999,-0.8656,-0.8571,-0.8547,-0.8604,-0.8571,-0.8555,-0.8604,-0.8612,-0.8612,-0.8612,-0.8612,-0.8629,-0.8633,-0.8633,-0.8658,-0.8751,-0.8779,-0.8542,-0.7944,-0.7352,-0.6712,-0.5969,-0.5196,-0.4784,-0.4784,-0.4784,-0.4784,-0.4784,-0.4784,-0.4784,-0.4784,-0.4784,-0.4784,-0.4784,-0.4784,-0.4784,-0.4784,-0.4634,-0.4583,-0.4533,-0.3984,-0.3783,-0.3732,-0.333,-0.3181,-0.3271,-0.3964,-0.4212,-0.3967,-0.2322,-0.1402,-0.0628,0.101,0.1922,0.245,0.2721,0.2642,0.2474,0.266,0.2585,0.2465,0.2648,0.2635,0.2671,0.2897,0.2931,0.292,0.292,0.2884,0.32,0.4376,0.5132,0.596,0.7189,0.8086,0.8639,0.8639,0.8505,0.833,0.8256,0.8271,0.8299,0.8356,0.9625,1.0779,1.1405,1.2818,1.387,1.4472,1.4511,1.4511,1.4511,1.4511,1.4511,1.4511,1.5026,1.5397,1.5589,1.6829,1.7708,1.8322,1.9139,1.9984,-0.9994,0.0,-0.9305,-0.9305,-0.8999,-0.8656,-0.8612,-0.8612,-0.8612,-0.8612,-0.8422,-0.8357,-0.858,-0.8422,-0.8357,-0.858,-0.8612,-0.8612,-0.8612,-0.8612,-0.8625,-0.8796,-0.8812,-0.8885,0.0,-0.8926,-0.8636,-0.8206,-0.7463,-0.6698,-0.6032,-0.5236,-0.4784,-0.4784,-0.4784,-0.4784,-0.4784,-0.4784,-0.4784,-0.4784,-0.4784,-0.4784,-0.4784,-0.4784,-0.4784,-0.4784,-0.4232,-0.4034,-0.3984,-0.343,-0.3232,-0.3232,-0.3232,-0.3181,-0.3179,-0.3226,-0.3226,-0.2972,-0.1107,-0.0453,-0.01,0.1971,0.2645,0.2735,0.3018,0.3094,0.3094,0.3094,0.3091,0.3091,0.3091,0.3047,0.3003,0.3003,0.2958,0.292,0.292,0.2917,0.3451,0.5314,0.5885,0.6675,0.8536,0.9069,0.9288,0.9288,0.9288,0.9103,0.8726,0.8673,0.8755,0.8941,1.0514,1.1638,1.1838,1.3449,1.4472,1.4511,1.4511,1.4511,1.4511,1.4511,1.4511,1.4511,1.4511,1.4886,1.5589,1.5857,1.6996,1.8993,1.9203,2.0079,-1.0115,0.0,-0.9689,-0.9689,-0.913,-0.8612,-0.8612,-0.8612,-0.8612,-0.8612,-0.8563,-0.8539,-0.8604,-0.8563,-0.8539,-0.8604,-0.8612,-0.8612,-0.8612,-0.8666,-0.8755,-0.8812,-0.8926,0.0,0.0,0.0,0.0,-0.9004,-0.7853,-0.7038,-0.6786,-0.5536,-0.4784,-0.4784,-0.4784,-0.4784,-0.4784,-0.4784,-0.4784,-0.4784,-0.4433,-0.4282,-0.4232,-0.3883,-0.3732,-0.3732,-0.3531,-0.3481,-0.343,-0.2876,-0.2675,-0.2624,-0.2271,-0.2122,-0.2122,-0.2122,-0.2122,-0.2019,-0.1211,-0.0252,0.0856,0.1902,0.2598,0.3047,0.3125,0.3142,0.3109,0.3109,0.3079,0.3097,0.3097,0.308,0.3066,0.3066,0.3052,0.3036,0.3036,0.3602,0.4476,0.5788,0.6662,0.7658,0.8947,0.9349,0.9559,0.9733,0.9493,0.9237,0.9103,0.9092,0.9123,0.9205,1.0377,1.1213,1.1295,1.3108,1.4227,1.4227,1.4775,1.5101,1.5101,1.5101,1.5101,1.5101,1.5101,1.529,1.568,1.6325,1.7093,1.7968,1.9268,2.014,-1.0159,-0.9898,-0.9811,-0.9515,-0.8999,-0.8612,-0.8612,-0.8612,-0.8612,-0.8612,-0.8555,-0.8531,-0.8596,-0.8555,-0.8555,-0.8633,-0.8658,-0.8682,-0.8747,-0.8852,-0.8896,-0.8868,-0.898,-0.9116,0.0,0.0,0.0,-0.862,-0.773,-0.6886,-0.6087,-0.5085,-0.4433,-0.4232,-0.4232,-0.4232,-0.4232,-0.4232,-0.4232,-0.4232,-0.3883,-0.3732,-0.3682,-0.338,-0.3181,-0.3181,-0.2977,-0.2927,-0.2876,-0.2322,-0.212,-0.207,-0.1718,-0.1617,-0.1617,-0.1617,-0.1212,-0.0706,-0.0554,0.0202,0.121,0.2118,0.2775,0.3181,0.3181,0.3154,0.3172,0.337,0.3439,0.3451,0.3646,0.3675,0.3655,0.3655,0.3684,0.3667,0.3667,0.4195,0.499,0.5964,0.695,0.7923,0.8916,0.9429,0.982,0.9994,0.9761,0.9548,0.9548,0.9555,0.9545,0.9545,1.0501,1.1132,1.1132,1.297,1.4097,1.4097,1.4908,1.5382,1.5382,1.5382,1.5382,1.5382,1.5465,1.5575,1.5699,1.6427,1.7106,1.7713,1.9012,2.0008,-1.0246,-0.9941,-0.9671,-0.8867,-0.8604,-0.8604,-0.8612,-0.8612,-0.8612,-0.8612,-0.843,-0.8357,0.0,0.0,-0.843,-0.8779,-0.8836,-0.8893,-0.9072,-0.9104,-0.9075,0.0,0.0,0.0,0.0,0.0,0.0,-0.7235,0.0,-0.6237,-0.4131,-0.3984,-0.3732,-0.3232,-0.3181,-0.3181,-0.3181,-0.3181,-0.3181,-0.3181,-0.3181,-0.3179,-0.3179,-0.3128,-0.3131,-0.308,-0.2574,-0.2372,-0.232,-0.182,-0.162,-0.162,-0.1621,-0.1621,-0.1621,-0.1621,-0.0607,0.0757,0.0808,0.0858,0.1159,0.2725,0.3181,0.3181,0.3232,0.3229,0.333,0.3883,0.4031,0.4131,0.4684,0.4769,0.4704,0.4704,0.4691,0.4681,0.4681,0.4776,0.5052,0.5952,0.6827,0.7685,0.8601,0.9447,1.0023,1.0023,1.0023,1.0023,0.9994,0.9994,0.9994,0.9994,1.0722,1.1241,1.1241,1.2899,1.3971,1.4013,1.4866,1.534,1.5382,1.5382,1.5396,1.5452,1.5646,1.5771,1.5786,1.6242,1.7061,1.8204,1.843,1.9603,-1.1198,-1.0343,-0.97,-0.9609,-0.8974,-0.8398,-0.858,-0.8612,-0.8612,-0.8612,-0.8571,-0.8552,0.0,0.0,0.0,-0.8991,-0.9031,0.0,-0.88,-0.8918,0.0,-0.8731,0.0,-0.8829,-0.8817,-0.8825,0.0,0.0,-0.6331,-0.5732,-0.4379,-0.3732,-0.333,-0.3181,-0.3181,-0.3181,-0.3181,-0.3181,-0.3181,-0.3181,-0.2775,-0.2624,-0.2574,-0.217,-0.2021,-0.2021,-0.1868,-0.1817,-0.182,-0.1693,-0.1651,-0.1652,-0.1674,-0.1682,-0.1682,-0.1682,-0.0989,0.0,0.0618,0.1581,0.2675,0.3078,0.3181,0.3279,0.3682,0.3783,0.3934,0.4433,0.4583,0.4634,0.4784,0.4768,0.4802,0.4802,0.4781,0.4769,0.4769,0.545,0.6117,0.6359,0.7725,0.8922,0.9162,0.9902,1.046,1.046,1.046,1.0346,1.0032,0.9994,0.9994,0.9994,1.0212,1.0342,1.0342,1.137,1.2303,1.3014,1.3928,1.4699,1.5382,1.5382,1.5624,1.6072,1.6115,1.6448,1.7051,1.718,1.747,1.7922,1.8624,1.9229,-1.0939,-1.0313,-0.9817,-0.9419,-0.893,-0.8528,-0.8604,-0.8612,-0.8612,-0.8612,-0.8625,0.0,0.0,0.0,0.0,0.0,0.0,0.0,-0.8933,-0.8922,-0.8788,0.0,-0.8576,0.0,-0.8478,-0.8428,-0.7627,0.0,-0.5777,-0.5277,-0.3626,-0.3075,-0.2725,-0.2523,-0.2473,-0.2473,-0.2473,-0.2473,-0.2473,-0.2473,-0.217,-0.2078,-0.2096,-0.1789,-0.1643,-0.1655,-0.1655,-0.1655,-0.1656,-0.1674,-0.1681,-0.1682,-0.1697,-0.1704,-0.1704,-0.1704,-0.074,0.0577,0.1048,0.2446,0.402,0.3653,0.3732,0.3934,0.4282,0.4332,0.4483,0.4985,0.5135,0.5186,0.5436,0.5486,0.5486,0.5486,0.5486,0.5486,0.5486,0.5986,0.6519,0.6803,0.8027,0.9083,0.9338,1.0065,1.0621,1.0621,1.0621,1.0535,1.0298,1.027,1.027,1.027,1.027,1.027,1.027,1.1062,1.1805,1.2334,1.3635,1.4602,1.5133,1.5576,1.6007,1.6313,1.6415,1.6766,1.7298,1.7386,1.7639,1.8045,1.8529,1.905,-1.0163,-0.996,-0.9776,-0.8855,-0.8674,-0.8723,-0.8637,-0.8612,-0.862,-0.8645,0.0,-0.8836,-0.8885,-0.9023,-0.9185,-0.9364,0.0,-0.9057,-0.9065,-0.8882,-0.8627,-0.8386,-0.8329,-0.8237,-0.8038,-0.7988,-0.7129,-0.4972,-0.5427,-0.4826,-0.2421,-0.2269,-0.207,-0.1617,-0.1617,-0.1617,-0.1617,-0.1617,-0.1617,-0.1617,-0.1617,-0.1633,-0.1714,-0.1714,-0.1678,-0.1704,-0.1704,-0.1704,-0.1704,-0.1708,-0.171,-0.1657,-0.1661,-0.1609,-0.1555,-0.1395,-0.0107,0.1547,0.1707,0.3196,0.4978,0.4362,0.4467,0.4871,0.4922,0.4964,0.5052,0.5605,0.5696,0.5837,0.6287,0.6387,0.6387,0.6387,0.6387,0.6387,0.6387,0.6387,0.6553,0.7088,0.7931,0.8701,0.9233,1.0099,1.0706,1.0706,1.0706,1.0706,1.0706,1.0612,1.0621,1.0621,1.0621,1.0621,1.0621,1.1303,1.1763,1.1889,1.3607,1.4686,1.4821,1.5814,1.6433,1.6566,1.6743,1.6994,1.7334,1.7526,1.7843,1.8367,1.8367,1.8978,-1.0197,-0.9527,-0.8855,-0.8792,-0.8576,-0.8414,-0.858,-0.8612,0.0,0.0,-0.8796,-0.8909,-0.9257,-0.9339,0.0,-0.9257,0.0,0.0,0.0,0.0,-0.8386,0.0,0.0,0.0,0.0,0.0,0.0,0.0,0.0,-0.4074,-0.1868,-0.1718,-0.1718,-0.1617,-0.1617,-0.1617,-0.1617,-0.1617,-0.1617,-0.1617,-0.1617,-0.1633,-0.1714,-0.1714,-0.1678,-0.1704,-0.1704,0.0,-0.1707,-0.1785,-0.1632,-0.1362,-0.1383,-0.1223,-0.0945,0.0056,0.055,0.0761,0.1684,0.3066,0.4461,0.4861,0.5063,0.5221,0.5636,0.5733,0.5718,0.6282,0.6361,0.6287,0.6387,0.6387,0.6387,0.6387,0.6387,0.6387,0.6387,0.6387,0.6431,0.6559,0.7743,0.8773,0.889,1.0112,1.1085,1.1085,1.1085,1.1085,1.1085,1.0792,1.0621,1.0621,1.0621,1.0621,1.0621,1.076,1.1119,1.1844,1.303,1.407,1.4776,1.5814,1.6714,1.7386,1.7446,1.781,1.8515,1.8545,1.8639,1.8686,1.8686,1.8856,-0.903,-0.869,-0.8341,-0.8333,-0.8271,-0.8216,-0.8208,0.0,0.0,0.0,-0.8573,-0.8668,-0.9116,0.0,0.0,0.0,0.0,0.0,0.0,0.0,0.0,0.0,0.0,0.0,0.0,0.0,0.0,0.0,0.0,-0.3874,-0.1718,-0.1617,-0.1617,-0.1617,-0.1617,-0.1617,-0.1617,-0.1617,-0.1617,-0.1617,-0.1617,-0.164,-0.1684,-0.1684,-0.1708,-0.1752,-0.1752,-0.1642,-0.1478,-0.1546,-0.1385,-0.1109,-0.1118,-0.1009,-0.0841,-0.0224,0.0334,0.0941,0.1493,0.3079,0.4862,0.5188,0.5612,0.6061,0.6326,0.6395,0.6349,0.661,0.6671,0.6627,0.6627,0.6578,0.6478,0.6478,0.643,0.6387,0.6387,0.6387,0.6387,0.6387,0.7378,0.8329,0.8726,0.9764,1.0708,1.1149,1.1198,1.1198,1.1198,1.1019,1.0896,1.0896,1.0896,1.0896,1.0896,1.0896,1.1086,1.1505,1.2487,1.3286,1.3695,1.5378,1.6472,1.686,1.7521,1.8118,1.8658,1.8658,1.8705,1.8781,1.8781,1.8781,-0.7997,-0.8005,-0.8072,-0.7982,-0.7983,-0.802,-0.793,-0.7923,0.0,0.0,-0.842,-0.8492,-0.8898,0.0,0.0,0.0,0.0,0.0,0.0,0.0,0.0,0.0,0.0,0.0,0.0,0.0,0.0,0.0,0.0,-0.3374,-0.1667,-0.1617,-0.1617,-0.1617,-0.1617,-0.1617,-0.1617,-0.1617,-0.1617,-0.1617,-0.1617,-0.1648,-0.1704,-0.1704,-0.1683,-0.1683,-0.1683,-0.1514,-0.1234,-0.1234,-0.1065,-0.0785,-0.0785,-0.0785,-0.0673,-0.0392,0.0224,0.1064,0.1344,0.2964,0.5035,0.5035,0.5877,0.6877,0.6877,0.6861,0.6839,0.6839,0.6823,0.6801,0.6801,0.673,0.666,0.666,0.6562,0.6425,0.6425,0.6403,0.6387,0.6387,0.7036,0.7882,0.8676,0.9468,1.0265,1.11,1.1198,1.1198,1.1198,1.1198,1.1247,1.1345,1.1296,1.1198,1.1198,1.1198,1.1247,1.1345,1.2301,1.292,1.3028,1.5175,1.6386,1.6419,1.7574,1.8334,1.8566,1.8566,1.8658,1.8781,1.8781,1.8781,-0.808,-0.8094,-0.8102,-0.8087,-0.7983,-0.7915,-0.79,0.0,0.0,-0.8281,-0.8452,-0.8616,-0.8773,-0.8817,-0.8726,-0.8478,-0.8435,-0.8336,0.0,0.0,0.0,0.0,0.0,0.0,0.0,0.0,0.0,0.0,-0.2972,-0.1817,-0.1617,-0.1617,-0.1617,-0.1617,-0.1617,-0.1617,-0.1617,-0.1617,-0.1617,-0.1617,-0.1617,-0.1648,-0.1704,-0.1704,-0.1574,-0.1346,-0.1346,-0.1177,0.0,-0.0953,-0.0729,-0.0449,-0.0449,-0.028,0.0056,0.112,0.0953,0.028,0.14,0.263,0.3748,0.3748,0.5297,0.7177,0.7177,0.7106,0.697,0.697,0.6888,0.6801,0.6801,0.6796,0.6785,0.6785,0.6692,0.66,0.66,0.6462,0.6387,0.6387,0.7036,0.7882,0.8676,0.9468,1.0265,1.11,1.1198,1.1198,1.1198,1.1198,1.1394,1.1883,1.1492,1.1198,1.1198,1.1198,1.1394,1.1883,1.2883,1.3655,1.4148,1.5947,1.6998,1.7185,1.8055,1.8566,1.8781,1.8781,1.8781,1.8781,1.8781,1.8781,-0.7551,-0.7506,-0.7506,-0.7506,-0.7457,-0.7408,-0.7408,0.0,-0.7781,-0.8077,-0.8141,-0.8202,-0.8499,-0.8428,-0.8287,-0.8187,-0.8137,-0.8137,0.0,0.0,0.0,0.0,0.0,0.0,0.0,0.0,0.0,0.0,-0.2471,-0.1617,-0.1617,-0.1617,-0.1617,-0.1617,-0.1617,-0.1617,-0.1617,-0.1617,-0.1617,-0.1617,-0.1617,-0.1545,-0.1439,-0.1438,-0.1303,-0.1065,-0.1065,-0.0897,0.0,-0.0617,-0.0449,-0.0168,-0.0168,-0.0112,0.0056,0.056,0.0392,0.0056,0.056,0.1512,0.263,0.3357,0.4752,0.6265,0.6988,0.7177,0.7144,0.7144,0.7106,0.7067,0.7067,0.6964,0.6893,0.6817,0.6763,0.673,0.673,0.6692,0.6632,0.6562,0.6901,0.7484,0.8201,0.8726,0.9517,1.1002,1.1198,1.1443,1.2078,1.2175,1.2224,1.2467,1.198,1.1834,1.2127,1.2175,1.2273,1.2467,1.2856,1.3195,1.3389,1.4806,1.5852,1.6372,1.7466,1.8272,1.8781,1.8781,1.8939,1.9161,1.9161,1.9256,-0.6745,-0.6694,-0.6738,-0.7054,-0.7098,-0.7105,0.0,0.0,-0.7574,-0.7867,-0.7918,-0.7958,-0.8216,-0.8137,-0.7988,-0.7988,-0.7988,-0.7889,-0.759,0.0,0.0,0.0,0.0,0.0,0.0,0.0,0.0,0.0,-0.1817,-0.1364,-0.1364,-0.1364,-0.1415,-0.1617,-0.1617,-0.1566,-0.1465,-0.1465,-0.1465,-0.1364,-0.1371,-0.1294,-0.1174,-0.1178,-0.1036,-0.0729,-0.0729,-0.0561,0.0,-0.028,-0.0168,0.0,0.0,0.0,0.0,0.0,0.0,0.0,0.0,0.1009,0.2463,0.3301,0.4641,0.6093,0.6932,0.721,0.721,0.721,0.721,0.721,0.721,0.715,0.7013,0.6926,0.693,0.6962,0.6962,0.704,0.7042,0.6952,0.709,0.7422,0.8137,0.8384,0.9099,1.0987,1.1236,1.1609,1.2758,1.2916,1.2986,1.321,1.2914,1.2713,1.278,1.2807,1.2856,1.3001,1.3001,1.3098,1.3244,1.434,1.5322,1.6164,1.7269,1.827,1.9129,1.9129,1.9272,1.9574,1.9574,1.975,-0.5719,-0.5719,-0.5941,-0.6871,-0.7098,-0.7139,0.0,0.0,-0.7638,-0.778,-0.7929,-0.7988,-0.7988,-0.7988,-0.7988,-0.7988,-0.7988,-0.764,-0.6587,0.0,0.0,0.0,0.0,0.0,0.0,0.0,0.0,-0.1313,-0.096,0.0,-0.0808,-0.0808,-0.1061,-0.1566,-0.1617,-0.1465,-0.1213,-0.1213,-0.1061,-0.0809,-0.0824,-0.0839,-0.0908,-0.0922,-0.0717,-0.0393,-0.0393,-0.028,0.0,0.0,0.0,0.0,0.0,0.0,0.0,0.0,0.0,0.0,0.0,0.1567,0.358,0.358,0.5198,0.721,0.721,0.721,0.721,0.721,0.721,0.721,0.721,0.721,0.721,0.7204,0.7281,0.7414,0.7414,0.7529,0.7703,0.7703,0.7703,0.796,0.8734,0.877,0.9325,1.1139,1.1272,1.1658,1.3032,1.3203,1.3501,1.4191,1.4276,1.3869,1.2899,1.2807,1.3001,1.3448,1.3485,1.3727,1.4244,1.501,1.5952,1.7057,1.7842,1.8728,1.9909,1.9909,1.9909,1.9909,1.9909,2.0051,-0.4736,-0.4736,-0.4825,-0.5092,-0.5181,-0.5206,-0.5273,0.0,-0.5541,-0.5601,-0.5704,-0.5827,-0.5827,-0.5827,-0.5827,-0.5827,-0.5827,-0.5677,0.0,0.0,0.0,0.0,0.0,0.0,0.0,0.0,-0.1312,-0.096,-0.0858,-0.0808,-0.0808,-0.0808,-0.0858,-0.1061,-0.1061,-0.1011,-0.091,-0.091,-0.0909,-0.0809,-0.0824,-0.0734,-0.0534,-0.0543,-0.0387,-0.0112,-0.0112,-0.0056,0.0,0.0,0.0,0.0,0.0,0.0,0.0,0.0,0.0,0.0,0.0,0.1065,0.2519,0.3357,0.4697,0.6149,0.6932,0.721,0.721,0.721,0.7321,0.7493,0.7493,0.7604,0.7765,0.7765,0.779,0.7816,0.7816,0.7841,0.7895,0.7851,0.7999,0.8181,0.8341,0.8445,0.9035,1.0312,1.1132,1.204,1.3177,1.401,1.4601,1.4835,1.4847,1.4725,1.4421,1.436,1.446,1.456,1.461,1.466,1.4847,1.5047,1.5618,1.649,1.6688,1.7535,1.9014,1.9014,1.9432,2.0226,2.048,2.0655,-0.3486,-0.3623,-0.3708,-0.4198,-0.4287,0.0,0.0,0.0,-0.4598,-0.4524,-0.4587,-0.4622,-0.4522,-0.4522,-0.4522,-0.4522,-0.4522,-0.4372,0.0,0.0,0.0,0.0,0.0,0.0,0.0,0.0,-0.0656,-0.0656,-0.0555,-0.0505,-0.0505,-0.0505,-0.0505,-0.0505,-0.0707,-0.0757,-0.0656,-0.0656,-0.0608,-0.051,-0.052,-0.0424,-0.027,-0.0274,-0.0167,0.0,0.0,0.0,0.0,0.0,0.0,0.0,0.0,0.0,0.0,0.0,0.0,0.0056,0.0504,0.1456,0.2686,0.386,0.5091,0.626,0.721,0.7432,0.7376,0.7487,0.7604,0.7771,0.7771,0.7881,0.7992,0.7992,0.8097,0.8208,0.8208,0.8269,0.8355,0.8266,0.8416,0.8499,0.8407,0.8501,0.8938,1.0031,1.1114,1.2235,1.3412,1.4567,1.5294,1.539,1.5403,1.5403,1.5403,1.5221,1.5113,1.5113,1.5113,1.5113,1.5113,1.5113,1.5505,1.6392,1.6443,1.7103,1.8542,1.8844,1.9567,2.0591,2.0813,2.0925,0.0,-0.2374,0.0,0.0,0.0,0.0,0.0,0.0,0.0,-0.4189,-0.4121,-0.4067,-0.3817,-0.3767,-0.3767,-0.3767,-0.3767,-0.3416,0.0,0.0,0.0,0.0,0.0,0.0,0.0,-0.0505,-0.0353,-0.0353,-0.0151,0.0,0.0,0.0,0.0,0.0,-0.0507,-0.0608,-0.0354,-0.0354,-0.0255,0.0,0.0,0.0,0.0,0.0,0.0,0.0,0.0,0.0,0.0,0.0,0.0,0.0,0.0,0.0,0.0,0.0,0.0056,0.028,0.14,0.263,0.3916,0.5146,0.632,0.7321,0.782,0.7826,0.766,0.7937,0.7992,0.8042,0.8042,0.8042,0.8048,0.8048,0.8318,0.854,0.854,0.8712,0.8885,0.8885,0.8885,0.8885,0.8885,0.8818,0.9047,1.0061,1.1125,1.2271,1.353,1.478,1.562,1.5861,1.5885,1.5885,1.5885,1.5439,1.5161,1.5161,1.5161,1.5161,1.5161,1.5161,1.5628,1.6704,1.6807,1.7353,1.8422,1.9257,2.0086,2.0925,2.0925,2.0925,-0.0762,0.0,-0.121,-0.1478,-0.1541,-0.157,0.0,0.0,0.0,0.0,0.0,-0.1614,-0.1564,-0.1564,-0.1564,-0.1564,-0.1564,-0.1463,0.0,0.0,0.0,0.0,0.0,0.0,0.0,-0.0151,-0.0101,-0.0101,-0.005,0.0,0.0,0.0,0.0,0.0,-0.0105,-0.0157,-0.0103,-0.0103,-0.0052,0.0,0.0,0.0,0.0,0.0,0.0,0.0,0.0,0.0,0.0,0.0,0.0,0.0,0.0,0.0,0.0,0.0,0.056,0.14,0.1679,0.3189,0.5202,0.6376,0.7099,0.7549,0.7881,0.7826,0.766,0.7937,0.8208,0.8374,0.8374,0.8546,0.8712,0.8712,0.8768,0.8823,0.8823,0.8885,0.8885,0.8885,0.8885,0.8885,0.8885,0.8851,0.8941,0.9208,1.0954,1.2393,1.271,1.4554,1.5825,1.5885,1.5885,1.5885,1.5885,1.5777,1.5704,1.5704,1.5704,1.5704,1.5704,1.5704,1.5834,1.6107,1.6792,1.7554,1.8422,1.9257,2.0086,2.0925,2.0925,2.0925,-0.018,-0.0404,-0.0583,-0.0672,-0.0683,-0.0697,-0.0807,0.0,0.0,0.0,0.0,-0.0555,-0.0454,-0.0454,-0.0454,-0.0454,-0.0454,0.0,0.0,0.0,0.0,0.0,0.0,0.0,0.0,0.0,0.0,0.0,0.0,0.0,0.0,0.0,0.0,0.0,0.0,0.0,0.0,0.0,0.0,0.0,0.0,0.0,0.0,0.0,0.0,0.0,0.0,0.0,0.0,0.0,0.0,0.0,0.0,0.0,0.0,0.0,0.0784,0.1903,0.2407,0.4306,0.6543,0.7487,0.7765,0.7881,0.8269,0.8214,0.8048,0.8325,0.8546,0.8712,0.8712,0.8768,0.8885,0.8885,0.8885,0.8885,0.8885,0.8885,0.8885,0.8885,0.8885,0.8885,0.8885,0.8885,0.8885,0.8885,1.0899,1.2417,1.2417,1.4471,1.5885,1.5885,1.5885,1.5885,1.5885,1.5885,1.5885,1.5885,1.5885,1.5885,1.5885,1.5885,1.5885,1.5885,1.6365,1.6988,1.7832,1.8304,1.9153,2.0359,2.0359,2.0565,0.0225,-0.0045,-0.0359,-0.0538,-0.0594,-0.0607,-0.0665,0.0,0.0,0.0,0.0,0.0,0.0,0.0,0.0,0.0,0.0,0.0,0.0,0.0,0.0,0.0,0.0,0.0,0.0,0.0,0.0,0.0,0.0,0.0,0.0,0.0,0.0,0.0,0.0,0.0,0.0,0.0,0.0,0.0,0.0,0.0,0.0,0.0,0.0,0.0,0.0,0.0,0.0,0.0,0.0,0.0056,0.0056,0.0112,0.0168,0.0336,0.1176,0.2407,0.3804,0.5759,0.7771,0.8263,0.8263,0.8152,0.8657,0.8712,0.8595,0.8823,0.8885,0.8885,0.8885,0.8885,0.8885,0.8885,0.8885,0.8885,0.8885,0.8885,0.8885,0.8885,0.8885,0.8885,0.8885,0.8885,0.8885,0.8885,1.0735,1.2146,1.2146,1.4202,1.5618,1.5618,1.5779,1.5885,1.5885,1.5885,1.5885,1.5885,1.5885,1.5885,1.5885,1.5885,1.5885,1.5885,1.5885,1.6311,1.7199,1.7199,1.7989,1.9517,1.962,2.0101,0.1166,0.0584,-0.009,-0.009,-0.0092,-0.0095,-0.0143,0.0,0.0,0.0,0.0,0.0,0.0,0.0,0.0,0.0,0.0,0.0,0.0,0.0,0.0,0.0,0.0,0.0,0.0,0.0,0.0,0.0,0.0,0.0,0.0,0.0,0.0,0.0,0.0,0.0,0.0,0.0,0.0,0.0,0.0,0.0,0.0,0.0,0.0,0.0,0.0,0.0,0.0,0.0,0.0112,0.0336,0.0336,0.0505,0.0897,0.1902,0.3075,0.4414,0.6589,0.7598,0.7937,0.8042,0.8208,0.8429,0.854,0.8712,0.883,0.8885,0.8885,0.8885,0.8885,0.8885,0.8885,0.8885,0.8885,0.8885,0.8885,0.8885,0.8885,0.8885,0.8885,0.8885,0.8885,0.8885,0.8885,0.8885,1.0076,1.0945,1.0945,1.3014,1.4439,1.4439,1.5298,1.5885,1.5885,1.5885,1.5885,1.5885,1.5885,1.5885,1.5885,1.5885,1.5885,1.5885,1.5885,1.6311,1.7199,1.7199,1.7674,1.8632,1.9361,1.9776,0.1791,0.13,0.0809,0.0182,0.0,0.0,0.0,0.0,0.0,0.0,0.0,0.0,0.0,0.0,0.0,0.0,0.0,0.0,0.0,0.0,0.0,0.0,0.0,0.0,0.0,0.0,0.0,0.0,0.0,0.0,0.0,0.0,0.0,0.0,0.0,0.0056,0.0224,0.0223,0.0167,0.0,0.0,0.0056,0.0224,0.0224,0.0336,0.0505,0.0,0.0505,0.0505,0.0505,0.0561,0.0673,0.0673,0.0785,0.1121,0.2964,0.4414,0.575,0.7593,0.8263,0.8318,0.8436,0.8602,0.8712,0.8712,0.8823,0.8885,0.8885,0.8885,0.8885,0.8885,0.8885,0.8885,0.8885,0.8885,0.8885,0.8885,0.8885,0.8885,0.8885,0.8885,0.8885,0.8885,0.8885,0.8885,0.8885,0.9911,1.0726,1.0726,1.2743,1.4223,1.4223,1.5244,1.5885,1.5885,1.5885,1.5885,1.5885,1.5885,1.5885,1.5885,1.5885,1.5885,1.5885,1.5885,1.6099,1.6524,1.6524,1.6935,1.7779,1.8146,1.8826,0.2814,0.2424,0.2037,0.111,0.0,0.0,0.0,0.0,0.0,0.0,0.0,0.0,0.0,0.0,0.0,0.0,0.0,0.0,0.0,0.0,0.0,0.0,0.0,0.0,0.0,0.0054,0.011,0.011,0.0167,0.0224,0.0224,0.0224,0.0224,0.0224,0.0224,0.0336,0.0505,0.0505,0.0393,0.0224,0.0224,0.0336,0.0505,0.0505,0.0673,0.0897,0.0897,0.0897,0.0897,0.0897,0.0953,0.1009,0.1289,0.1793,0.2574,0.4414,0.5862,0.7088,0.8208,0.8595,0.8657,0.8823,0.8885,0.8885,0.8885,0.8885,0.8885,0.8885,0.8885,0.8885,0.8885,0.8885,0.8885,0.8885,0.8885,0.8885,0.8885,0.8885,0.8885,0.8885,0.8885,0.8885,0.8885,0.8885,0.8885,0.8885,0.9699,1.0296,1.0296,1.2309,1.3781,1.3781,1.503,1.5885,1.5885,1.5885,1.5885,1.5885,1.5885,1.5885,1.5885,1.5885,1.5885,1.5885,1.5885,1.5885,1.5885,1.5885,1.6258,1.6882,1.7147,1.7989,0.4776,0.4209,0.3648,0.3534,0.1757,0.0,0.0,0.0,0.0,0.0,0.0,0.0,0.0,0.0,0.0,0.0,0.0,0.0,0.0,0.0,0.0,0.0,0.0,0.0,0.0,0.0217,0.0386,0.0391,0.0672,0.0841,0.0841,0.0841,0.0841,0.0841,0.0841,0.0841,0.0841,0.0841,0.0841,0.0841,0.0841,0.0841,0.0841,0.0841,0.0897,0.0897,0.0897,0.0897,0.0897,0.0897,0.1065,0.1402,0.2519,0.447,0.6649,0.6871,0.7654,0.8712,0.8823,0.8885,0.8885,0.8885,0.8885,0.8885,0.8885,0.8885,0.8885,0.8885,0.8885,0.8885,0.8885,0.8885,0.8885,0.8885,0.8885,0.8885,0.8885,0.8885,0.8885,0.8885,0.8885,0.8885,0.8885,0.8885,0.8885,0.8885,0.8995,0.9044,0.9044,1.1063,1.2526,1.2526,1.4535,1.5885,1.5885,1.5885,1.5885,1.5885,1.5885,1.5885,1.5885,1.5885,1.5885,1.5885,1.5885,1.5885,1.5885,1.5885,1.5939,1.5992,1.7107,1.7635,0.5447,0.5079,0.4723,0.3967,0.3116,0.0,0.0,0.0954,0.0505,0.0505,0.05,0.0,0.0,0.0,0.0,0.0,0.0,0.0252,0.0252,0.0252,0.0304,0.0513,0.0575,0.0585,0.0541,0.066,0.0725,0.0728,0.0841,0.0897,0.0897,0.0897,0.0897,0.0897,0.0897,0.0953,0.1121,0.1121,0.1234,0.1458,0.1065,0.1009,0.1121,0.1121,0.129,0.1458,0.1458,0.1458,0.1458,0.1458,0.1962,0.2854,0.408,0.5584,0.7099,0.7099,0.7875,0.8885,0.8885,0.8885,0.8885,0.8885,0.8885,0.8885,0.8885,0.8885,0.8885,0.8885,0.8885,0.8885,0.8885,0.8885,0.8885,0.8885,0.8885,0.8885,0.8885,0.8885,0.8885,0.8885,0.8885,0.8885,0.8885,0.8885,0.8885,0.8885,0.8885,0.8885,0.8885,1.0954,1.2417,1.2417,1.4482,1.5885,1.5885,1.5885,1.5885,1.5885,1.5885,1.5885,1.5885,1.5885,1.5885,1.5885,1.6057,1.6164,1.6164,1.6311,1.6418,1.6418,1.6842,1.7318,0.621,0.6133,0.598,0.4862,0.0,0.0,0.2909,0.1965,0.1209,0.0852,0.0793,0.0,0.0,0.0,0.0,0.0,0.0505,0.0505,0.0505,0.0505,0.0611,0.0881,0.0897,0.0913,0.0873,0.0999,0.1009,0.1009,0.1121,0.1177,0.1177,0.1177,0.1177,0.1177,0.1177,0.129,0.1458,0.1458,0.157,0.1795,0.1402,0.129,0.1458,0.1458,0.157,0.1795,0.1795,0.1795,0.1851,0.2186,0.3304,0.4808,0.5639,0.6644,0.7654,0.7654,0.8214,0.8885,0.8885,0.8885,0.8885,0.8885,0.8885,0.8885,0.8885,0.8885,0.8885,0.8885,0.8885,0.8885,0.8885,0.8885,0.8885,0.8885,0.8885,0.8885,0.8885,0.8885,0.8885,0.8885,0.8885,0.8885,0.8885,0.8885,0.8885,0.8885,0.8885,0.8885,0.8885,1.0954,1.2689,1.3447,1.4965,1.5885,1.5885,1.5885,1.5885,1.5885,1.5885,1.5939,1.6004,1.6057,1.6045,1.6152,1.6311,1.643,1.643,1.663,1.6683,1.6683,1.6789,1.716,0.7326,0.7482,0.7395,0.6418,0.0,0.0,0.3425,0.2768,0.2104,0.1034,0.0785,0.079,0.0805,0.0,0.0,0.0808,0.0808,0.0808,0.0808,0.0808,0.0814,0.0881,0.0897,0.0913,0.0928,0.1166,0.129,0.129,0.1626,0.1795,0.1795,0.1795,0.1795,0.1795,0.1795,0.1795,0.1795,0.1795,0.1795,0.1795,0.1795,0.1795,0.1795,0.1795,0.1795,0.1795,0.1795,0.1795,0.1906,0.308,0.4975,0.7043,0.7099,0.782,0.8885,0.8885,0.8885,0.8885,0.8885,0.8885,0.8885,0.8885,0.8885,0.8885,0.8885,0.8885,0.8885,0.8885,0.8885,0.8885,0.8885,0.8885,0.8885,0.8885,0.8885,0.8885,0.8885,0.8885,0.8885,0.8885,0.8885,0.8885,0.8885,0.8885,0.8885,0.8885,0.8885,0.8885,0.894,1.0954,1.3285,1.5618,1.5885,1.5885,1.5885,1.5885,1.5885,1.5885,1.5885,1.6004,1.6271,1.6324,1.643,1.667,1.6683,1.6683,1.6683,1.6736,1.6736,1.6736,1.7067,1.7173,0.7326,0.7482,0.0,0.6418,0.0,0.0,0.0,0.2471,0.0,0.0,0.134,0.1349,0.1339,0.0,0.0,0.1112,0.1061,0.1061,0.1061,0.1061,0.1175,0.1422,0.1488,0.1455,0.1554,0.1622,0.1627,0.1627,0.1739,0.1795,0.1795,0.1795,0.1795,0.1795,0.1795,0.1795,0.1795,0.1795,0.1795,0.1795,0.1795,0.1795,0.1795,0.1795,0.1795,0.185,0.2688,0.2576,0.1906,0.308,0.4027,0.4697,0.5588,0.6144,0.6422,0.6422,0.6927,0.7654,0.7654,0.8214,0.8885,0.8885,0.8885,0.8885,0.8885,0.8885,0.8885,0.8885,0.8885,0.8905,0.9062,0.9089,0.9062,0.8905,0.8885,0.8885,0.8885,0.8885,0.8885,0.8885,0.8885,0.8885,0.8885,0.8885,0.8885,0.8885,0.8885,0.921,1.0076,1.0781,1.2091,1.4428,1.4708,1.503,1.5832,1.5885,1.6004,1.6164,1.6164,1.6111,1.6004,1.6004,1.6164,1.643,1.6577,1.6842,1.7067,1.7265,1.7318,1.7318,1.7424,1.7477,0.7421,0.757,0.0,0.6491,0.603,0.5181,0.3075,0.0,0.0,0.0,0.1595,0.1596,0.1591,0.1605,0.0,0.1364,0.1364,0.1364,0.1364,0.1364,0.1434,0.1697,0.1704,0.1727,0.1789,0.1795,0.1795,0.1795,0.1795,0.1795,0.1795,0.1795,0.1795,0.1795,0.1795,0.1795,0.1795,0.1795,0.1795,0.1795,0.1795,0.1795,0.1795,0.1795,0.1795,0.1851,0.2576,0.2744,0.2576,0.3301,0.386,0.4359,0.5139,0.5417,0.5417,0.5417,0.6144,0.7099,0.7099,0.7875,0.8885,0.8885,0.8885,0.8885,0.8885,0.8885,0.8898,0.9008,0.9022,0.9055,0.9262,0.9303,0.9218,0.9137,0.9117,0.9117,0.9117,0.9069,0.9022,0.9022,0.8981,0.8885,0.8885,0.8885,0.8885,0.8885,0.8885,0.932,1.0562,1.0726,1.1437,1.3295,1.3889,1.4546,1.5339,1.5779,1.6164,1.643,1.6471,1.6365,1.6205,1.6377,1.6537,1.6789,1.7001,1.716,1.7384,1.7529,1.7649,1.7769,1.7769,1.7836,0.7577,0.7712,0.0,0.6653,0.5527,0.0,0.217,0.1645,0.1583,0.1611,0.0,0.1584,0.1611,0.1617,0.1617,0.1617,0.1617,0.1617,0.1617,0.1617,0.1639,0.1697,0.1704,0.1727,0.1789,0.1795,0.1795,0.1795,0.1795,0.1795,0.1795,0.1795,0.1795,0.1795,0.1795,0.1795,0.1795,0.1795,0.1795,0.1795,0.1795,0.1795,0.1795,0.1795,0.185,0.1962,0.185,0.2464,0.358,0.3469,0.4083,0.5083,0.5083,0.5083,0.5083,0.5194,0.5977,0.6982,0.7043,0.7875,0.8885,0.8885,0.8885,0.8885,0.8898,0.8905,0.8988,0.9187,0.9228,0.9268,0.9361,0.9401,0.9408,0.9415,0.9401,0.9381,0.9381,0.933,0.9228,0.9228,0.9069,0.8925,0.8925,0.8925,0.8925,0.8925,0.8925,0.9362,1.0445,1.072,1.127,1.2365,1.3627,1.4494,1.486,1.5797,1.6558,1.6813,1.6813,1.6866,1.6866,1.704,1.7292,1.7569,1.7622,1.7635,1.7662,1.7662,1.7809,1.8035,1.8035,1.8237,0.7692,0.7787,0.0,0.0,0.4981,0.3425,0.2972,0.2213,0.1609,0.1615,0.1611,0.1609,0.1615,0.1617,0.1617,0.1617,0.1617,0.1617,0.1617,0.1617,0.1639,0.1697,0.1704,0.1727,0.1789,0.1795,0.1795,0.1795,0.1795,0.1795,0.1795,0.1795,0.1795,0.1795,0.1795,0.1795,0.1795,0.1795,0.1795,0.1795,0.1795,0.1795,0.1795,0.1795,0.2298,0.3134,0.2186,0.2464,0.3525,0.2576,0.2354,0.2576,0.2576,0.2576,0.2688,0.3636,0.4749,0.5922,0.6816,0.7875,0.8885,0.8885,0.8885,0.8905,0.9076,0.9166,0.9137,0.9293,0.9334,0.9367,0.9517,0.9557,0.9591,0.97,0.9551,0.9381,0.9381,0.9354,0.9334,0.9334,0.9306,0.9286,0.9286,0.9286,0.9286,0.9286,0.9286,0.9401,0.9624,1.076,1.1994,1.3115,1.4641,1.5946,1.6845,1.7189,1.7465,1.7783,1.7796,1.7906,1.8071,1.7247,1.7051,1.7607,1.762,1.7833,1.829,1.829,1.833,1.8397,1.8397,1.8424,0.7945,0.0,0.0,0.667,0.0,0.4479,0.3425,0.2773,0.2221,0.1718,0.1617,0.1617,0.1617,0.1617,0.1617,0.1617,0.1617,0.1617,0.1617,0.1617,0.1639,0.1697,0.1704,0.1727,0.1789,0.1795,0.1795,0.1795,0.1795,0.1795,0.1795,0.1795,0.1795,0.1795,0.1795,0.1795,0.1795,0.1795,0.1795,0.1795,0.1795,0.1795,0.1795,0.1795,0.213,0.2688,0.2074,0.213,0.2688,0.2074,0.1795,0.1795,0.1795,0.213,0.2744,0.3357,0.4693,0.6311,0.6871,0.7875,0.8885,0.8885,0.8988,0.9055,0.9187,0.9262,0.935,0.9449,0.949,0.9523,0.9673,0.9707,0.9727,0.9802,0.97,0.9591,0.9591,0.9537,0.949,0.949,0.9435,0.9381,0.9381,0.9381,0.9381,0.9381,0.9381,0.9381,0.9381,1.0127,1.115,1.2518,1.3932,1.5355,1.6838,1.752,1.7978,1.8255,1.8311,1.838,1.849,1.791,1.771,1.8031,1.8031,1.8165,1.849,1.849,1.8557,1.8691,1.8691,1.8771,0.8256,0.0,0.7839,0.6886,0.6537,0.0,0.4178,0.3475,0.2972,0.207,0.1718,0.1617,0.1617,0.1617,0.1617,0.1617,0.1617,0.1617,0.1617,0.1617,0.1639,0.1697,0.1704,0.1727,0.1789,0.1795,0.1795,0.1795,0.1795,0.1795,0.1795,0.1795,0.1795,0.1795,0.1795,0.1795,0.1795,0.1795,0.1795,0.1795,0.1795,0.1795,0.1795,0.1795,0.1795,0.1795,0.1795,0.1795,0.1795,0.1795,0.1795,0.1795,0.2018,0.2748,0.3709,0.4099,0.551,0.7214,0.7438,0.8171,0.8959,0.8959,0.9096,0.9255,0.9282,0.932,0.9449,0.9605,0.9646,0.9673,0.9788,0.9822,0.9822,0.9822,0.9822,0.9822,0.9822,0.9727,0.9646,0.9646,0.9544,0.9456,0.9456,0.9456,0.9514,0.9573,0.9573,0.9573,0.9631,0.9865,1.0666,1.2223,1.348,1.4899,1.6666,1.7772,1.8414,1.8637,1.8637,1.8637,1.8637,1.8637,1.8637,1.8637,1.8597,1.8597,1.8637,1.8637,1.8771,1.8998,1.8998,1.9132,0.8701,0.0,0.8237,0.0,0.7086,0.6337,0.0,0.0,0.3173,0.0,0.2271,0.1617,0.1617,0.1617,0.1617,0.1617,0.1617,0.1617,0.1617,0.1617,0.1639,0.1697,0.1704,0.1727,0.1789,0.1795,0.1795,0.1795,0.1795,0.1795,0.1795,0.1795,0.1795,0.1795,0.1795,0.1795,0.1795,0.1795,0.1795,0.1795,0.1795,0.1795,0.1795,0.1795,0.1795,0.1795,0.1795,0.1795,0.1795,0.1795,0.1795,0.1906,0.2968,0.3557,0.4002,0.6105,0.7138,0.769,0.8737,0.9205,0.932,0.932,0.9334,0.9374,0.951,0.9564,0.9612,0.9754,0.9795,0.9795,0.9815,0.9822,0.9822,0.9822,0.9822,0.9822,0.9822,0.9808,0.9795,0.9795,0.9774,0.9761,0.9761,0.9761,0.9821,1.0123,1.0183,1.0304,1.0605,1.185,1.3223,1.4518,1.6049,1.7521,1.8892,1.9123,1.9252,1.931,1.931,1.931,1.931,1.931,1.931,1.931,1.8998,1.8998,1.931,1.931,1.9323,1.9305,1.9305,1.939,0.878,0.8627,0.8386,0.0,0.7739,0.7135,0.6537,0.0,0.463,0.3425,0.2823,0.232,0.1718,0.1617,0.1617,0.1617,0.1617,0.1617,0.1617,0.1617,0.1639,0.1697,0.1704,0.1727,0.1789,0.1795,0.1795,0.1795,0.1795,0.1795,0.1795,0.1795,0.1851,0.202,0.202,0.2132,0.23,0.23,0.23,0.23,0.23,0.23,0.23,0.23,0.2132,0.1795,0.1795,0.1795,0.1795,0.1795,0.2254,0.2954,0.3519,0.464,0.6036,0.7138,0.7985,0.8678,0.9207,0.9381,0.9381,0.9381,0.9442,0.9523,0.9591,0.9786,0.9981,1.0044,1.0247,1.0368,1.0368,1.0368,1.0368,1.0368,1.0368,1.0308,1.0126,1.0065,1.0126,1.0308,1.0368,1.0368,1.0368,1.0368,1.0429,1.055,1.0604,1.0604,1.0785,1.145,1.2697,1.4847,1.5736,1.7044,1.9243,1.943,1.943,1.943,1.943,1.943,1.943,1.943,1.943,1.943,1.9239,1.9239,1.943,1.943,1.943,1.943,1.943,1.943,0.0,0.0,0.8584,0.8528,0.8336,0.7988,0.0,0.0,0.6032,0.0,0.3626,0.2972,0.2221,0.1819,0.1617,0.1617,0.1617,0.1617,0.1667,0.1667,0.1639,0.1803,0.1757,0.1727,0.1789,0.1795,0.1795,0.1795,0.1851,0.1908,0.1908,0.1964,0.2132,0.23,0.23,0.2468,0.2694,0.2694,0.2694,0.2694,0.2694,0.2694,0.2694,0.2694,0.2468,0.202,0.202,0.2186,0.2466,0.2534,0.3292,0.4529,0.489,0.6223,0.7961,0.8254,0.8929,0.9607,0.9607,0.9548,0.9496,0.9496,0.9571,0.9659,0.9659,0.9914,1.0186,1.0186,1.0368,1.0543,1.0543,1.0543,1.0543,1.0543,1.0611,1.0604,1.0368,1.0247,1.0247,1.0611,1.0671,1.0725,1.0785,1.0785,1.0846,1.0906,1.0906,1.0967,1.1035,1.1035,1.1993,1.449,1.5035,1.622,1.8706,1.9185,1.943,1.943,1.943,1.943,1.943,1.943,1.943,1.943,1.943,1.943,1.943,1.943,1.943,1.943,1.943,1.943,0.0,0.9187,0.0,0.8825,0.8775,0.0,0.0,0.0,0.6731,0.6631,0.4776,0.3274,0.3478,0.2473,0.1617,0.1617,0.1617,0.1667,0.192,0.1768,0.1741,0.2015,0.1864,0.1727,0.1789,0.1795,0.1795,0.1795,0.202,0.2188,0.2188,0.2468,0.2638,0.2694,0.2694,0.2694,0.2694,0.2694,0.2694,0.2694,0.2694,0.2694,0.2694,0.2694,0.2694,0.2638,0.2638,0.3306,0.4365,0.4492,0.5264,0.6465,0.7847,0.8506,0.8866,1.0006,1.0337,1.0219,1.0219,1.0037,0.9795,0.9795,0.9802,0.9808,0.9808,0.9815,0.9822,0.9822,0.9822,0.9883,0.9883,0.9883,0.9883,0.9883,1.0065,1.0308,1.0308,1.0065,0.9943,1.0247,1.0301,1.0422,1.0725,1.0785,1.0906,1.1209,1.1277,1.1398,1.1716,1.1776,1.2251,1.3605,1.4857,1.6101,1.7455,1.8706,1.943,1.943,1.943,1.943,1.943,1.943,1.943,1.943,1.943,1.943,1.943,1.943,1.943,1.943,1.943,1.943,0.0,0.0,0.0,0.908,0.8924,0.8825,0.8825,0.8428,0.7875,0.7173,0.6371,0.5572,0.4977,0.3226,0.192,0.207,0.197,0.197,0.2221,0.2021,0.1997,0.2388,0.2345,0.2322,0.2349,0.2356,0.2356,0.2356,0.2468,0.2524,0.2524,0.2638,0.2805,0.297,0.297,0.3085,0.3253,0.3253,0.3253,0.3309,0.4089,0.4424,0.448,0.5198,0.5528,0.5528,0.5528,0.5139,0.4589,0.5455,0.6613,0.7847,0.8213,0.8944,0.9794,0.9981,1.0016,1.0004,1.0247,1.0065,0.9822,1.0065,1.0004,0.9822,1.0065,1.0247,1.0482,1.0725,1.0914,1.1103,1.1103,1.1103,1.1103,1.1103,1.1035,1.0967,1.0967,1.1035,1.1103,1.1224,1.1285,1.1285,1.1405,1.1466,1.1466,1.1587,1.1647,1.1647,1.1776,1.1776,1.2311,1.3545,1.4083,1.5203,1.7337,1.7935,1.8532,1.9359,1.943,1.943,1.943,1.943,1.943,1.943,1.943,1.943,1.943,1.943,1.943,1.943,1.943,1.943,0.9575,0.0,0.0,0.0,0.9179,0.9072,0.9072,0.0,0.8726,0.8024,0.7521,0.7024,0.6376,0.4676,0.3277,0.2972,0.2473,0.2221,0.2473,0.2335,0.2319,0.2709,0.2679,0.2611,0.2686,0.2694,0.2694,0.2694,0.2805,0.2861,0.2861,0.2917,0.3085,0.325,0.325,0.3362,0.3589,0.3977,0.4201,0.4201,0.5425,0.5982,0.5977,0.675,0.7083,0.7138,0.7627,0.7142,0.614,0.7095,0.8314,0.9507,0.9486,1.0035,1.0793,1.055,1.0429,1.0368,1.055,1.0429,1.0186,1.0429,1.0308,1.0186,1.0429,1.0611,1.0846,1.1095,1.1277,1.1466,1.1466,1.1466,1.1466,1.1587,1.1458,1.1337,1.1458,1.1466,1.1526,1.1587,1.1647,1.1647,1.1776,1.1776,1.1776,1.1776,1.1776,1.1776,1.1776,1.1776,1.213,1.2955,1.3426,1.4371,1.609,1.7032,1.7864,1.8706,1.9185,1.943,1.943,1.943,1.943,1.943,1.943,1.943,1.943,1.943,1.943,1.943,1.943,1.943,0.0,0.0,0.0,0.0,0.0,0.0,0.9575,0.9385,0.9236,0.9236,0.8173,0.7372,0.7627,0.6781,0.5627,0.4325,0.3173,0.2523,0.2778,0.2615,0.2611,0.2981,0.2761,0.2643,0.2744,0.2751,0.2751,0.2751,0.297,0.3138,0.3138,0.3474,0.3645,0.3589,0.3642,0.3698,0.3642,0.4871,0.5425,0.5481,0.6589,0.7138,0.7138,0.7193,0.7193,0.7254,0.8676,0.925,0.927,0.9486,1.0339,1.1516,1.1703,1.1776,1.1776,1.1776,1.1587,1.1269,1.1269,1.1088,1.0785,1.0785,1.0785,1.0785,1.0785,1.0785,1.0853,1.0853,1.0853,1.0853,1.0853,1.0853,1.0906,1.1216,1.1329,1.1398,1.1716,1.1285,1.0914,1.1269,1.1329,1.1398,1.1716,1.1784,1.1784,1.1784,1.1792,1.1792,1.1792,1.1792,1.1792,1.1792,1.2913,1.3684,1.3684,1.5994,1.7479,1.7537,1.8732,1.9399,1.9399,1.9399,1.9444,1.9386,1.9386,1.943,1.943,1.943,1.943,1.943,1.943,1.943,0.9575,0.0,0.0,0.0,0.0,0.0,0.9575,0.9525,0.9484,0.9484,0.9179,0.8973,0.9031,0.8173,0.7322,0.6974,0.5177,0.3695,0.3238,0.2949,0.2938,0.3299,0.327,0.3301,0.336,0.3365,0.3365,0.0,0.3418,0.3474,0.3474,0.4369,0.448,0.3645,0.5254,0.5755,0.4923,0.6033,0.6644,0.6644,0.7808,0.8423,0.8416,0.9306,0.9691,0.9754,1.026,1.0576,1.0643,1.088,1.1157,1.1516,1.1455,1.1458,1.1398,1.1156,1.1035,1.0974,1.1216,1.1088,1.0846,1.1088,1.0967,1.0846,1.1088,1.1148,1.1216,1.1466,1.1526,1.1526,1.1526,1.1526,1.1526,1.1647,1.1647,1.1708,1.1776,1.1655,1.1526,1.1647,1.1647,1.1708,1.1776,1.1874,1.1963,1.1963,1.2077,1.2158,1.2158,1.2158,1.2158,1.2158,1.247,1.3075,1.3985,1.5636,1.7051,1.7973,1.9253,2.0,2.0,2.0,1.9893,1.9679,1.9679,1.9573,1.943,1.943,1.943,1.943,1.943,1.9479,0.0,0.0,0.0,0.0,0.0,0.0,0.9575,0.9575,0.9575,0.9575,0.9575,0.9575,0.9575,0.9183,0.8671,0.822,0.7002,0.5816,0.4862,0.425,0.4003,0.4246,0.3847,0.3548,0.3583,0.3589,0.3589,0.3589,0.3589,0.381,0.4313,0.5035,0.5314,0.5087,0.6362,0.6811,0.6089,0.7254,0.7864,0.7864,0.9085,0.9636,0.9699,1.0359,1.0737,1.0818,1.0997,1.1175,1.1354,1.1541,1.1614,1.1622,1.1547,1.1526,1.1458,1.1277,1.1224,1.1277,1.1458,1.1405,1.1277,1.1458,1.1405,1.1277,1.1458,1.1526,1.1542,1.1797,1.1939,1.1996,1.1996,1.1996,1.1996,1.1996,1.1996,1.1996,1.1996,1.1996,1.1979,1.1898,1.1882,1.1906,1.1987,1.2077,1.2142,1.2142,1.2239,1.2304,1.2304,1.2304,1.2304,1.2304,1.2304,1.2863,1.4163,1.5525,1.6887,1.8178,1.9485,2.0167,2.0167,2.0167,2.0147,1.9987,1.9987,1.9893,1.9733,1.9599,1.9613,1.9733,1.9733,1.9813,0.0,0.0,0.0,0.0,0.0,0.0,0.9575,0.9575,0.9575,0.9575,0.9575,0.9583,0.9657,0.9778,0.9587,0.8685,0.8657,0.834,0.6918,0.6032,0.5456,0.5301,0.4439,0.3754,0.3589,0.3589,0.3642,0.381,0.3921,0.4477,0.5536,0.5704,0.62,0.7083,0.736,0.7415,0.7304,0.8478,0.9085,0.9085,1.0194,1.0688,1.0688,1.0712,1.081,1.1037,1.1167,1.1346,1.1516,1.1703,1.1776,1.1776,1.1776,1.1776,1.1776,1.1776,1.1776,1.1776,1.1776,1.1776,1.1776,1.1776,1.1776,1.1784,1.1801,1.1801,1.1841,1.2012,1.2182,1.2304,1.2304,1.2304,1.2304,1.2304,1.2304,1.2304,1.2304,1.2304,1.2264,1.2117,1.2077,1.2109,1.228,1.232,1.2337,1.2337,1.2353,1.2369,1.2369,1.2369,1.2369,1.2369,1.2488,1.3113,1.4364,1.5784,1.7089,1.8324,1.9575,2.0273,2.0273,2.0273,2.0307,2.0281,2.0193,2.0254,2.0281,1.9987,1.9987,2.0167,2.0167,2.0193,0.0,0.0,0.0,0.0,0.0,0.0,0.9575,0.9575,0.9575,0.9575,0.9575,0.9673,0.9811,0.986,0.9882,0.982,0.9941,0.9343,0.7321,0.6878,0.6399,0.5503,0.5194,0.4648,0.3698,0.3589,0.3977,0.4983,0.5922,0.6528,0.675,0.7697,0.7864,0.7138,0.8968,0.9526,0.8533,0.9746,1.0359,1.0359,1.0578,1.0688,1.0696,1.085,1.0932,1.1045,1.1305,1.1468,1.1516,1.1703,1.1776,1.1776,1.1776,1.1776,1.1776,1.1776,1.1776,1.1776,1.1776,1.1776,1.1776,1.1776,1.1776,1.1801,1.1939,1.1979,1.202,1.2199,1.228,1.2304,1.2304,1.2304,1.2304,1.2304,1.2304,1.2304,1.2304,1.2304,1.2337,1.2442,1.2345,1.2264,1.2304,1.2426,1.2515,1.2515,1.2637,1.2669,1.2669,1.2669,1.2669,1.2669,1.3696,1.4466,1.4789,1.7032,1.8562,1.8879,2.0168,2.0935,2.0935,2.0935,2.0828,2.0601,2.0361,2.0347,2.0588,2.0294,2.0174,2.0167,2.0167,2.0361,0.0,0.0,0.0,0.9575,0.0,0.0,0.0,0.9575,0.9648,0.9738,0.9754,0.9811,0.9989,1.0095,1.0193,1.0282,1.0444,1.0178,0.9077,0.8368,0.7792,0.7193,0.6589,0.6033,0.5421,0.5365,0.5588,0.62,0.6755,0.736,0.7974,0.8589,0.892,0.8913,1.0076,1.0414,0.9809,1.0414,1.0688,1.0696,1.0785,1.0834,1.0834,1.1013,1.1143,1.124,1.1427,1.1549,1.1646,1.1736,1.1776,1.1776,1.1776,1.1776,1.1776,1.1776,1.1776,1.1776,1.1776,1.1776,1.1792,1.1874,1.1906,1.1939,1.2109,1.2231,1.2312,1.241,1.2499,1.2572,1.2572,1.2572,1.2572,1.2572,1.2572,1.2572,1.2572,1.2572,1.2596,1.2686,1.2629,1.2572,1.2572,1.2645,1.2702,1.2702,1.2775,1.2774,1.2774,1.2774,1.2774,1.2774,1.3424,1.439,1.5814,1.7238,1.8588,1.9941,2.0716,2.1109,2.1109,2.1109,2.1042,2.0895,2.0748,2.0748,2.0895,2.0735,2.0668,2.0668,2.0668,2.0748,0.0,0.0,0.0,0.0,0.0,0.9575,0.0,0.0,0.0,0.986,0.9916,0.0,0.0,0.0,0.0,1.0383,0.0,0.0,0.0,0.9841,0.0,0.892,0.8029,0.736,0.7138,0.7304,0.747,0.747,0.7636,0.8195,0.9196,0.9251,0.9699,1.0696,1.0688,1.0688,1.0688,1.0729,1.0745,1.0745,1.0932,1.1021,1.1021,1.12,1.1354,1.15,1.1541,1.1638,1.1776,1.1776,1.1776,1.1776,1.1776,1.1776,1.1776,1.1776,1.1776,1.1784,1.1817,1.1825,1.1857,1.2028,1.2109,1.2158,1.2312,1.2475,1.2613,1.2613,1.2726,1.2774,1.2774,1.2774,1.2774,1.2774,1.2774,1.2774,1.2774,1.2774,1.2774,1.2774,1.2774,1.2774,1.2774,1.2774,1.2774,1.2774,1.2774,1.2774,1.2774,1.2774,1.2774,1.2774,1.3293,1.452,1.6786,1.7496,1.8716,2.0982,2.1109,2.1109,2.1109,2.1109,2.1109,2.1109,2.1109,2.1109,2.1109,2.1109,2.1109,2.1109,2.1109,2.1109,0.0,0.0,0.0,0.0,0.9575,0.0,0.0,0.0,0.986,0.9884,0.0,0.0,0.0,0.0,0.0,0.0,0.0,0.0,1.0485,1.049,1.0084,0.903,0.8754,0.8251,0.7193,0.8085,0.8699,0.8699,0.9691,1.0359,1.0468,1.0523,1.0578,1.0688,1.0688,1.0688,1.0688,1.0858,1.0996,1.0996,1.111,1.1191,1.12,1.1386,1.1484,1.1508,1.1671,1.176,1.1776,1.1776,1.1776,1.1776,1.1776,1.1776,1.1776,1.1776,1.1776,1.1801,1.1947,1.2004,1.2028,1.2215,1.2377,1.2571,1.2588,1.2661,1.2808,1.2808,1.2824,1.2774,1.2774,1.2774,1.2774,1.2774,1.2774,1.2774,1.2774,1.2774,1.2774,1.2774,1.2774,1.2774,1.2774,1.2774,1.2774,1.2774,1.2774,1.2774,1.2774,1.2774,1.2774,1.2774,1.5033,1.6656,1.698,1.924,2.0792,2.1109,2.1109,2.1109,2.1109,2.1109,2.1109,2.1109,2.1109,2.1109,2.1109,2.1109,2.1109,2.1109,2.1109,2.1109,0.0,0.0,0.0,0.0,0.0,0.0,0.9941,0.0,1.0079,0.0,0.0,0.0,0.0,0.0,0.0,0.0,1.0647,0.0,0.0,0.0,1.0523,0.9974,0.0,0.0,0.9244,0.9636,0.9919,0.9919,1.0414,1.0688,1.0688,1.0688,1.0688,1.0688,1.0688,1.0745,1.085,1.0988,1.1021,1.1118,1.1297,1.1378,1.1386,1.1573,1.1663,1.1663,1.1744,1.1776,1.1776,1.1776,1.1776,1.1776,1.1776,1.1776,1.1792,1.189,1.1922,1.1947,1.2125,1.219,1.2223,1.2402,1.258,1.2718,1.2718,1.2775,1.2774,1.2774,1.2774,1.2774,1.2774,1.2774,1.2774,1.2774,1.2774,1.2774,1.2774,1.2774,1.2774,1.2774,1.2774,1.2774,1.2774,1.2774,1.2774,1.2774,1.2774,1.2774,1.2774,1.2774,1.2774,1.2774,1.3875,1.5229,1.685,1.8075,1.9431,2.0982,2.1109,2.1109,2.1109,2.1109,2.1109,2.1109,2.1109,2.1109,2.1109,2.1109,2.1109,2.1109,2.1109,2.1109,0.9778,0.0,0.0,0.0,0.0,0.0,0.0,0.0,0.0,0.0,0.0,0.0,0.0,0.0,0.0,0.0,0.0,1.0672,0.0,1.0664,0.0,0.0,0.0,0.0,0.0,1.0688,1.0688,1.0688,1.0688,1.0688,1.0688,1.0688,1.0688,1.0688,1.0745,1.0834,1.102,1.107,1.1175,1.1297,1.1484,1.1573,1.1581,1.1711,1.1776,1.1776,1.1776,1.1776,1.1776,1.1776,1.1776,1.1784,1.1825,1.1849,1.1857,1.1979,1.1999,1.2134,1.2312,1.241,1.2475,1.2596,1.2726,1.2774,1.2774,1.2774,1.2774,1.2774,1.2774,1.2774,1.2774,1.2774,1.2774,1.2774,1.2774,1.2774,1.2774,1.2774,1.2774,1.2774,1.2774,1.2774,1.2774,1.2774,1.2774,1.2774,1.2774,1.2774,1.2774,1.2774,1.2774,1.2774,1.3161,1.4193,1.6268,1.7109,1.8588,2.0982,2.1109,2.1109,2.1109,2.1109,2.1109,2.1109,2.1109,2.1109,2.1109,2.1109,2.1109,2.1109,2.1109,2.1109,0.0,0.0,0.0,1.0204,0.0,0.0,0.0,0.0,1.0375,0.0,0.0,0.0,0.0,0.0,0.0,0.0,0.0,0.0,0.0,0.0,0.0,0.0,0.0,0.0,0.0,1.0688,1.0688,1.0688,1.0688,1.0688,1.0688,1.0688,1.0688,1.0688,1.0867,1.0964,1.1028,1.1313,1.1484,1.1492,1.1679,1.1768,1.1768,1.1776,1.1776,1.1776,1.1776,1.1776,1.1776,1.1776,1.1776,1.1792,1.1955,1.202,1.202,1.2028,1.2142,1.232,1.2499,1.267,1.2824,1.2758,1.2832,1.2774,1.2774,1.2774,1.2774,1.2774,1.2774,1.2774,1.2774,1.2774,1.2774,1.2774,1.2774,1.2774,1.2774,1.2774,1.2774,1.2774,1.2774,1.2774,1.2774,1.2774,1.2774,1.2774,1.2774,1.2774,1.2774,1.2774,1.2774,1.2774,1.4006,1.4847,1.4977,1.7431,1.9559,2.0982,2.1109,2.1109,2.1109,2.1109,2.1109,2.1109,2.1109,2.1109,2.1109,2.1109,2.1109,2.1109,2.1109,2.1109,0.0,0.0,1.0339,1.0339,0.0,0.0,0.0,0.0,0.0,0.0,0.0,0.0,0.0,0.0,0.0,0.0,0.0,0.0,0.0,0.0,0.0,0.0,0.0,0.0,0.0,0.0,1.0688,1.0688,1.0688,1.0688,1.0688,1.0688,1.0688,1.0688,1.0875,1.1021,1.1135,1.1378,1.1565,1.1687,1.1744,1.1776,1.1776,1.1776,1.1776,1.1776,1.1776,1.1776,1.1784,1.1898,1.1947,1.1963,1.2142,1.228,1.2385,1.2385,1.2426,1.2507,1.2686,1.2783,1.2774,1.2774,1.2774,1.2774,1.2774,1.2774,1.2774,1.2774,1.2774,1.2774,1.2774,1.2774,1.2774,1.2774,1.2774,1.2774,1.2774,1.2774,1.2774,1.2774,1.2774,1.2774,1.2774,1.2774,1.2774,1.2774,1.2774,1.2774,1.2774,1.2774,1.2774,1.2774,1.3227,1.3875,1.4847,1.6592,1.8267,1.9623,1.9686,2.0132,2.1046,2.1109,2.1109,2.1109,2.1109,2.1109,2.1109,2.1109,2.1109,2.1109,2.1109,2.1109,1.04,1.0436,0.0,1.0526,1.0607,0.0,1.0688,0.0,0.0,0.0,0.0,0.0,0.0,0.0,0.0,0.0,0.0,0.0,0.0,1.0688,0.0,0.0,0.0,0.0,0.0,1.0688,1.0688,1.0688,1.0688,1.0688,1.0688,1.0688,1.072,1.0785,1.0964,1.1143,1.1321,1.1508,1.1654,1.1776,1.1776,1.1776,1.1776,1.1776,1.1776,1.1776,1.1776,1.1809,1.1874,1.1987,1.2069,1.215,1.2328,1.2467,1.2628,1.2628,1.2605,1.2678,1.28,1.2774,1.2774,1.2774,1.2774,1.2774,1.2774,1.2774,1.2774,1.2774,1.2774,1.2774,1.2774,1.2774,1.2774,1.2774,1.2774,1.2774,1.2774,1.2774,1.2774,1.2774,1.2774,1.2774,1.2774,1.2774,1.2774,1.2774,1.2774,1.2774,1.2774,1.2774,1.2774,1.2774,1.2774,1.3358,1.4782,1.5749,1.7044,1.8908,1.8972,1.9623,2.1046,2.1109,2.1109,2.1109,2.1109,2.1109,2.1109,2.1109,2.1109,2.1109,2.1109,2.1109]},{"header":{"parameterUnit":"m.s-1","parameterCategory":1,"la1":30.6,"la2":29.2853,"lo1":-89.7004,"lo2":-87.6739,"dy":0.0162,"dx":0.0183,"nx":112,"ny":82,"refTime":"2023-10-31T12:00:00:Z","depth":0,"parameterNumber":3,"parameterNumberName":"V-component_of_WINDS"},"data":[0.0,0.0,0.0,0.0,0.0,0.0,0.0,0.0,0.0,0.0,0.0,0.0,0.0,0.0,0.0,0.0,0.0,0.0,0.0,0.0,0.0,0.0,0.0,0.0,0.0,0.0,0.0,0.0,0.0,0.0,0.0,0.0,0.0,0.0,0.0,0.0,0.0,0.0,0.0,0.0,0.0,0.0,0.0,0.0,0.0,0.0,0.0,0.0,0.0,0.0,0.0,0.0,0.0,0.0,0.0,0.0,0.0,0.0,0.0,0.0,0.0,0.0,0.0,0.0,0.0,0.0,0.0,0.0,0.0,0.0,0.0,0.0,0.0,0.0,0.0,0.0,0.0,0.0,0.0,0.0,0.0,0.0,0.0,0.0,0.0,0.0,0.0,0.0,0.0,0.0,2.0213,2.0742,2.1731,2.222,2.1897,2.2254,2.2017,2.0895,0.0,0.0,0.0,0.0,0.0,0.0,0.0,0.0,0.0,0.0,0.0,0.0,0.0,0.0,0.0,0.0,0.0,0.0,0.0,0.0,0.0,0.0,0.0,0.0,0.0,0.0,0.0,0.0,0.0,0.0,0.0,0.0,0.0,0.0,0.0,0.0,0.0,0.0,0.0,0.0,0.0,0.0,0.0,0.0,0.0,0.0,0.0,0.0,0.0,0.0,0.0,0.0,0.0,0.0,0.0,0.0,0.0,0.0,0.0,0.0,0.0,0.0,0.0,0.0,0.0,0.0,0.0,0.0,0.0,0.0,0.0,0.0,0.0,0.0,0.0,0.0,0.0,0.0,0.0,0.0,0.0,0.0,0.0,0.0,0.0,0.0,0.0,0.0,0.0,0.0,0.0,0.0,0.0,0.0,0.0,0.0,0.0,0.0,0.0,0.0,0.0,0.0,0.0,0.0,2.1203,2.1726,2.1984,2.2164,2.222,2.2446,2.2364,2.1834,0.0,0.0,0.0,0.0,0.0,0.0,0.0,0.0,0.0,0.0,0.0,0.0,0.0,0.0,0.0,0.0,0.0,0.0,0.0,0.0,0.0,0.0,0.0,0.0,0.0,0.0,0.0,0.0,0.0,0.0,0.0,0.0,0.0,0.0,0.0,0.0,0.0,0.0,0.0,0.0,0.0,0.0,0.0,0.0,0.0,0.0,0.0,0.0,0.0,0.0,0.0,0.0,0.0,0.0,0.0,0.0,0.0,0.0,0.0,0.0,0.0,0.0,0.0,0.0,0.0,0.0,0.0,0.0,0.0,0.0,0.0,0.0,0.0,0.0,0.0,0.0,0.0,0.0,0.0,0.0,0.0,0.0,0.0,0.0,0.0,0.0,0.0,0.0,0.0,0.0,0.0,0.0,0.0,0.0,0.0,0.0,0.0,0.0,0.0,0.0,0.0,0.0,0.0,2.1611,2.2068,2.2391,2.2717,2.2854,2.2699,2.2854,2.2751,2.2192,2.1834,0.0,0.0,0.0,0.0,0.0,0.0,0.0,0.0,0.0,0.0,0.0,0.0,0.0,0.0,0.0,0.0,0.0,0.0,0.0,0.0,0.0,0.0,0.0,0.0,0.0,0.0,0.0,0.0,0.0,0.0,0.0,0.0,0.0,0.0,0.0,0.0,0.0,0.0,0.0,0.0,0.0,0.0,0.0,0.0,0.0,0.0,0.0,0.0,0.0,0.0,0.0,0.0,0.0,0.0,0.0,0.0,0.0,0.0,0.0,0.0,0.0,0.0,0.0,0.0,0.0,0.0,0.0,0.0,0.0,0.0,0.0,0.0,0.0,0.0,0.0,0.0,0.0,0.0,0.0,0.0,0.0,0.0,0.0,0.0,0.0,0.0,0.0,0.0,0.0,0.0,0.0,0.0,0.0,0.0,0.0,0.0,0.0,0.0,0.0,0.0,0.0,0.0,2.2546,2.2773,2.3114,2.3507,2.3697,2.3578,2.3751,2.3591,2.2925,2.2719,0.0,0.0,0.0,0.0,0.0,0.0,0.0,0.0,0.0,0.0,0.0,0.0,0.0,0.0,0.0,0.0,0.0,0.0,0.0,0.0,0.0,0.0,0.0,0.0,0.0,0.0,0.0,0.0,0.0,0.0,0.0,0.0,0.0,0.0,0.0,0.0,0.0,0.0,0.0,0.0,0.0,0.0,0.0,0.0,0.0,0.0,0.0,0.0,0.0,0.0,0.0,0.0,0.0,0.0,0.0,0.0,0.0,0.0,0.0,0.0,0.0,0.0,0.0,0.0,0.0,0.0,0.0,0.0,0.0,0.0,0.0,0.0,0.0,0.0,0.0,0.0,0.0,0.0,0.0,0.0,0.0,0.0,0.0,0.0,0.0,0.0,0.0,0.0,0.0,0.0,0.0,0.0,0.0,0.0,0.0,0.0,0.0,0.0,0.0,0.0,0.0,0.0,2.2712,2.3068,2.4094,2.4229,2.4523,2.5165,2.5438,2.527,2.4657,2.4481,0.0,0.0,0.0,0.0,0.0,0.0,0.0,0.0,0.0,0.0,0.0,0.0,0.0,0.0,0.0,0.0,0.0,0.0,0.0,0.0,0.0,0.0,0.0,0.0,0.0,0.0,0.0,0.0,0.0,0.0,0.0,0.0,0.0,0.0,0.0,0.0,0.0,0.0,0.0,0.0,0.0,0.0,0.0,0.0,0.0,0.0,0.0,0.0,0.0,0.0,0.0,0.0,0.0,0.0,0.0,0.0,0.0,0.0,0.0,0.0,0.0,0.0,0.0,0.0,0.0,0.0,0.0,0.0,0.0,0.0,0.0,0.0,0.0,0.0,0.0,0.0,0.0,0.0,0.0,0.0,0.0,0.0,0.0,0.0,0.0,0.0,0.0,0.0,0.0,0.0,0.0,0.0,0.0,0.0,0.0,0.0,0.0,0.0,0.0,0.0,0.0,0.0,2.4073,2.4689,0.0,2.531,2.5392,2.5676,2.5725,2.5504,2.4887,0.0,0.0,0.0,0.0,0.0,0.0,0.0,0.0,0.0,0.0,0.0,0.0,0.0,0.0,0.0,0.0,0.0,0.0,0.0,0.0,0.0,0.0,0.0,0.0,0.0,0.0,0.0,0.0,0.0,0.0,0.0,0.0,0.0,0.0,0.0,0.0,0.0,0.0,0.0,0.0,0.0,0.0,0.0,0.0,0.0,0.0,0.0,0.0,0.0,0.0,0.0,0.0,0.0,0.0,0.0,0.0,0.0,0.0,0.0,0.0,0.0,0.0,0.0,0.0,0.0,0.0,0.0,0.0,0.0,0.0,0.0,0.0,0.0,0.0,0.0,0.0,0.0,0.0,0.0,0.0,0.0,0.0,0.0,0.0,0.0,0.0,0.0,0.0,0.0,0.0,0.0,0.0,0.0,0.0,0.0,0.0,0.0,0.0,0.0,0.0,0.0,0.0,2.4377,2.5112,2.5783,0.0,2.6281,2.6364,2.6601,2.6598,2.6299,2.5675,0.0,0.0,0.0,0.0,0.0,0.0,0.0,0.0,0.0,0.0,0.0,0.0,0.0,0.0,0.0,0.0,0.0,0.0,0.0,0.0,0.0,0.0,0.0,0.0,0.0,0.0,0.0,0.0,0.0,0.0,0.0,0.0,0.0,0.0,0.0,0.0,0.0,0.0,0.0,0.0,0.0,0.0,0.0,0.0,0.0,0.0,0.0,0.0,0.0,0.0,0.0,0.0,0.0,0.0,0.0,0.0,0.0,0.0,0.0,0.0,0.0,0.0,0.0,0.0,0.0,0.0,0.0,0.0,0.0,0.0,0.0,0.0,0.0,0.0,0.0,0.0,0.0,0.0,0.0,0.0,0.0,0.0,0.0,0.0,0.0,0.0,0.0,0.0,0.0,0.0,0.0,0.0,0.0,0.0,0.0,0.0,0.0,0.0,0.0,0.0,0.0,0.0,2.531,2.5618,2.6122,2.692,2.7014,2.7335,2.8142,2.8213,2.7925,0.0,0.0,0.0,0.0,0.0,0.0,0.0,0.0,0.0,0.0,0.0,0.0,0.0,0.0,0.0,0.0,0.0,0.0,0.0,0.0,0.0,0.0,0.0,0.0,0.0,0.0,0.0,0.0,0.0,0.0,0.0,0.0,0.0,0.0,0.0,0.0,0.0,0.0,0.0,0.0,0.0,0.0,0.0,0.0,0.0,0.0,0.0,0.0,0.0,0.0,0.0,0.0,0.0,0.0,0.0,0.0,0.0,0.0,0.0,0.0,0.0,0.0,0.0,0.0,0.0,0.0,0.0,0.0,0.0,0.0,0.0,0.0,0.0,0.0,0.0,0.0,0.0,0.0,0.0,0.0,0.0,0.0,0.0,0.0,0.0,0.0,0.0,0.0,0.0,0.0,0.0,0.0,0.0,0.0,0.0,0.0,0.0,0.0,0.0,0.0,0.0,0.0,0.0,2.6156,2.6982,2.7638,2.7835,2.7857,2.7928,2.8178,2.8213,2.8011,2.7582,0.0,0.0,0.0,0.0,0.0,0.0,0.0,0.0,0.0,0.0,0.0,0.0,0.0,0.0,0.0,0.0,0.0,0.0,0.0,0.0,0.0,0.0,0.0,0.0,0.0,0.0,0.0,0.0,0.0,0.0,0.0,0.0,0.0,0.0,0.0,0.0,0.0,0.0,0.0,0.0,0.0,0.0,0.0,0.0,0.0,0.0,0.0,0.0,0.0,0.0,0.0,0.0,0.0,0.0,0.0,0.0,0.0,0.0,0.0,0.0,0.0,0.0,0.0,0.0,0.0,0.0,0.0,0.0,0.0,0.0,0.0,0.0,0.0,0.0,0.0,0.0,0.0,0.0,0.0,0.0,0.0,0.0,0.0,0.0,0.0,0.0,0.0,0.0,0.0,0.0,0.0,0.0,0.0,0.0,0.0,0.0,0.0,0.0,0.0,0.0,0.0,0.0,2.7091,2.7769,2.8232,2.8213,2.8213,2.8213,2.8213,2.8158,2.7968,2.7627,0.0,0.0,0.0,0.0,0.0,0.0,0.0,0.0,0.0,0.0,0.0,0.0,0.0,0.0,0.0,0.0,0.0,0.0,0.0,0.0,0.0,0.0,0.0,0.0,0.0,0.0,0.0,0.0,0.0,0.0,0.0,0.0,0.0,0.0,0.0,0.0,0.0,0.0,0.0,0.0,0.0,0.0,0.0,0.0,0.0,0.0,0.0,0.0,0.0,0.0,0.0,0.0,0.0,0.0,0.0,0.0,0.0,0.0,0.0,0.0,0.0,0.0,0.0,0.0,0.0,0.0,0.0,0.0,0.0,0.0,0.0,0.0,0.0,0.0,0.0,0.0,0.0,0.0,0.0,0.0,0.0,0.0,0.0,0.0,0.0,0.0,0.0,0.0,0.0,0.0,0.0,0.0,0.0,0.0,0.0,0.0,0.0,0.0,0.0,0.0,0.0,0.0,2.794,2.8101,2.8282,2.8282,2.8282,2.8282,2.8282,2.8109,2.7896,2.7602,0.0,0.0,0.0,0.0,0.0,0.0,0.0,0.0,0.0,0.0,0.0,0.0,0.0,0.0,0.0,0.0,0.0,0.0,0.0,0.0,0.0,0.0,0.0,0.0,0.0,0.0,0.0,0.0,0.0,0.0,0.0,0.0,0.0,0.0,0.0,0.0,0.0,0.0,0.0,0.0,0.0,0.0,0.0,0.0,0.0,0.0,0.0,0.0,0.0,0.0,0.0,0.0,0.0,0.0,0.0,0.0,0.0,0.0,0.0,0.0,3.0393,0.0,0.0,0.0,0.0,0.0,0.0,0.0,0.0,0.0,0.0,0.0,0.0,0.0,0.0,0.0,0.0,0.0,0.0,0.0,0.0,0.0,0.0,0.0,0.0,0.0,0.0,0.0,0.0,0.0,0.0,0.0,0.0,0.0,0.0,0.0,0.0,0.0,0.0,0.0,0.0,0.0,2.8174,2.8438,2.8663,2.8663,2.8663,2.8663,2.8663,2.8383,2.8205,2.815,2.7582,0.0,0.0,0.0,0.0,0.0,0.0,0.0,0.0,0.0,0.0,0.0,0.0,0.0,0.0,0.0,0.0,0.0,0.0,0.0,0.0,0.0,0.0,0.0,0.0,0.0,0.0,0.0,0.0,0.0,0.0,0.0,0.0,0.0,0.0,0.0,0.0,0.0,0.0,0.0,0.0,0.0,0.0,0.0,0.0,0.0,0.0,0.0,0.0,0.0,0.0,0.0,0.0,0.0,0.0,0.0,0.0,0.0,0.0,0.0,0.0,3.0634,0.0,0.0,0.0,0.0,0.0,0.0,0.0,0.0,0.0,0.0,0.0,0.0,0.0,0.0,0.0,0.0,0.0,0.0,0.0,0.0,0.0,0.0,0.0,0.0,0.0,0.0,0.0,0.0,0.0,0.0,0.0,0.0,0.0,0.0,0.0,0.0,0.0,0.0,0.0,0.0,2.8451,2.8651,2.8797,2.8797,2.8797,2.8797,2.8797,2.8563,2.8409,2.8406,2.7904,0.0,0.0,0.0,0.0,0.0,0.0,0.0,0.0,0.0,0.0,0.0,0.0,0.0,0.0,0.0,0.0,0.0,0.0,0.0,0.0,0.0,0.0,0.0,0.0,0.0,0.0,0.0,0.0,0.0,0.0,0.0,0.0,0.0,0.0,0.0,0.0,0.0,0.0,0.0,0.0,0.0,0.0,0.0,0.0,0.0,0.0,0.0,0.0,0.0,0.0,0.0,0.0,0.0,3.3568,3.351,3.3471,3.2694,3.234,3.2265,3.1502,3.1014,3.0695,3.0686,0.0,0.0,0.0,0.0,0.0,0.0,0.0,0.0,0.0,0.0,0.0,0.0,0.0,0.0,0.0,0.0,0.0,0.0,0.0,0.0,0.0,0.0,0.0,0.0,3.0419,3.0457,3.0284,0.0,0.0,0.0,0.0,0.0,0.0,0.0,0.0,0.0,0.0,0.0,2.8761,2.8991,2.9112,2.9112,2.9222,2.9331,2.9331,2.9101,2.8927,2.8755,2.8416,2.8138,0.0,0.0,0.0,0.0,0.0,0.0,0.0,0.0,0.0,0.0,0.0,0.0,0.0,0.0,0.0,0.0,0.0,0.0,0.0,0.0,0.0,0.0,0.0,0.0,0.0,0.0,0.0,0.0,0.0,0.0,0.0,0.0,3.3089,3.3758,0.0,0.0,0.0,0.0,0.0,0.0,0.0,0.0,0.0,0.0,0.0,0.0,0.0,3.53,3.5355,3.5353,3.5407,3.5437,3.4683,3.4343,3.4306,3.3566,3.3227,3.3227,3.3086,0.0,3.0774,3.0852,0.0,0.0,0.0,0.0,0.0,0.0,0.0,0.0,0.0,0.0,0.0,0.0,0.0,0.0,0.0,0.0,0.0,0.0,0.0,0.0,0.0,0.0,3.244,3.2487,3.2446,3.2436,0.0,3.0882,2.9377,2.9232,2.9189,0.0,0.0,0.0,0.0,0.0,0.0,0.0,2.9123,2.9861,3.0372,3.0372,3.1002,3.141,3.141,3.1054,3.056,2.9867,2.9368,2.882,2.8093,2.7666,0.0,0.0,0.0,0.0,0.0,0.0,0.0,0.0,0.0,0.0,0.0,0.0,0.0,0.0,0.0,0.0,0.0,0.0,0.0,0.0,0.0,0.0,0.0,0.0,0.0,0.0,0.0,0.0,0.0,3.3459,3.3855,3.4153,3.4228,3.4227,0.0,0.0,0.0,0.0,0.0,0.0,0.0,0.0,0.0,3.5602,3.5602,3.5637,3.5702,3.5713,3.5704,3.575,3.5376,3.5164,3.5168,3.4372,3.4006,3.4008,3.3576,3.2962,3.2262,3.2304,3.2496,3.2844,0.0,0.0,0.0,0.0,3.274,3.2686,3.2667,3.2646,3.2693,3.2912,0.0,0.0,0.0,0.0,0.0,0.0,0.0,3.282,0.0,0.0,3.291,3.2997,3.2973,3.2878,3.2799,3.1989,3.1209,0.0,3.0839,3.0703,3.0708,0.0,0.0,0.0,0.0,3.0498,3.0519,3.0965,3.1255,3.1255,3.1556,3.1755,3.1755,3.1531,3.125,3.0858,3.0503,3.0038,2.949,2.9072,2.8666,0.0,0.0,0.0,0.0,0.0,0.0,0.0,0.0,0.0,0.0,0.0,0.0,0.0,0.0,0.0,0.0,0.0,0.0,0.0,0.0,0.0,0.0,0.0,0.0,0.0,0.0,0.0,0.0,3.4311,3.4347,3.4276,3.4323,3.4335,0.0,0.0,0.0,0.0,0.0,0.0,3.5315,3.5475,3.5566,3.5631,3.5637,3.5643,3.5704,3.5704,3.5704,3.5709,3.5708,3.5702,3.5668,3.5086,3.4808,3.4772,3.4239,3.403,3.4001,3.3594,3.3514,3.3748,3.374,3.3856,3.4055,3.3816,3.3735,3.3694,3.3643,3.3631,3.3659,3.3816,3.3852,3.3802,3.3717,0.0,0.0,0.0,0.0,3.3643,3.3655,3.3666,3.371,3.3699,3.3687,3.3601,3.3465,3.3393,3.3158,0.0,3.2185,3.2029,3.2079,0.0,0.0,0.0,0.0,3.1647,3.1649,3.1904,3.2098,3.2087,3.2226,3.2302,3.2279,3.2219,3.2084,3.1802,3.1613,3.1266,3.0758,3.0341,2.9871,2.9351,0.0,0.0,0.0,0.0,0.0,0.0,0.0,0.0,0.0,0.0,0.0,0.0,0.0,0.0,0.0,0.0,0.0,0.0,0.0,0.0,0.0,0.0,0.0,0.0,0.0,0.0,0.0,0.0,0.0,3.4404,3.445,0.0,0.0,0.0,0.0,3.4693,3.4733,3.4935,3.5383,3.5412,3.5502,3.5698,3.5704,3.5704,3.5704,3.5704,3.5704,3.5704,3.5709,3.5715,3.572,3.5663,3.5624,3.5632,3.5671,3.5726,3.5642,3.4061,3.3906,3.4648,3.4646,3.5153,3.5779,3.4957,3.4593,3.4532,3.4542,3.4527,3.465,3.5424,3.571,3.5707,3.5525,3.5601,0.0,0.0,3.5563,3.562,3.551,3.5526,3.5514,3.5412,3.538,3.5361,3.5353,3.5244,3.4634,0.0,3.2395,3.2412,3.2534,0.0,3.2194,3.2251,3.2047,3.1843,3.1786,3.247,3.2941,3.2833,3.3525,3.3944,3.3881,3.3817,3.3471,3.2685,3.2585,3.2166,3.1396,3.0814,3.0401,3.0224,2.9178,0.0,0.0,0.0,0.0,0.0,0.0,0.0,0.0,0.0,0.0,0.0,0.0,0.0,0.0,0.0,0.0,0.0,0.0,0.0,0.0,0.0,0.0,0.0,0.0,0.0,0.0,0.0,0.0,3.4416,3.4461,0.0,3.4416,3.445,3.4506,3.4583,3.4723,3.4889,3.5081,3.5262,3.5674,3.6318,3.6437,3.6748,3.729,3.7328,3.7328,3.7328,3.7328,3.7328,3.729,3.6748,3.6454,3.6425,3.5939,3.5758,3.5746,3.518,3.5181,3.5547,3.5547,3.5742,3.5976,3.5663,3.5506,3.5503,3.5504,3.5502,3.5535,3.5788,3.5861,3.5896,3.5746,3.5785,3.5839,3.5737,3.5755,3.5775,3.5722,3.572,3.567,3.5593,3.5513,3.5515,3.5507,3.5479,3.5213,3.4526,3.4225,3.4111,3.4297,3.4068,3.3914,3.4035,3.3876,3.3707,3.3634,3.3792,3.3888,3.3697,3.3857,3.3978,3.3952,3.3887,3.37,3.3443,3.338,3.3163,3.2643,3.2203,3.1801,3.1389,3.0777,3.0046,0.0,0.0,0.0,0.0,0.0,0.0,0.0,0.0,0.0,0.0,0.0,0.0,0.0,0.0,0.0,0.0,0.0,0.0,0.0,0.0,0.0,0.0,0.0,0.0,0.0,0.0,3.4484,3.4416,3.4484,3.4506,3.445,3.4495,3.4641,3.4941,3.5151,3.5398,3.5694,3.5904,3.6327,3.6995,3.7146,3.7527,3.8106,3.815,3.8212,3.8212,3.8212,3.8212,3.8174,3.7593,3.7328,3.729,3.6784,3.656,3.6556,3.6303,3.6267,3.6358,3.605,3.5975,3.6016,3.6016,3.6016,3.6016,3.6016,3.6016,3.5976,3.5969,3.5924,3.5919,3.5841,3.5824,3.5821,3.5803,3.5808,3.5811,3.582,3.5787,3.5745,3.5645,3.5588,3.5534,3.5541,3.5534,3.55,3.55,3.5339,3.5223,3.533,3.519,3.5008,3.4972,3.4926,3.4783,3.4484,3.4461,3.437,3.4043,3.3928,3.39,3.3873,3.3834,3.3807,3.3807,3.3807,3.3712,3.348,3.3029,3.2617,3.2231,3.1728,3.09,2.9822,0.0,0.0,0.0,0.0,0.0,0.0,0.0,0.0,0.0,0.0,0.0,0.0,0.0,0.0,0.0,0.0,0.0,0.0,0.0,0.0,0.0,0.0,0.0,3.4465,3.4499,3.4521,3.4502,3.4592,3.4636,3.4581,3.4625,3.5033,3.5859,3.5935,3.6335,3.7255,3.7303,3.7394,3.7621,3.7808,3.7947,3.7985,3.8177,3.829,3.829,3.829,3.829,3.829,3.8251,3.8251,3.8251,3.8212,3.8241,3.8213,3.7402,3.7074,3.7032,3.6214,3.5928,3.6015,3.6015,3.6016,3.6016,3.6016,3.6016,3.6016,3.6015,3.6014,3.5973,3.5905,3.589,3.588,3.5827,3.5844,3.5902,3.5801,3.5859,3.5875,3.5718,3.5665,3.5588,3.5582,3.556,3.55,3.55,3.55,3.55,3.55,3.55,3.5361,3.4982,3.4999,0.0,3.4215,3.4323,3.4311,3.3965,3.3926,3.3887,3.382,3.3807,3.3807,3.3807,3.3807,3.3807,3.3793,3.3151,3.2747,3.2685,3.1786,3.1024,3.0497,0.0,0.0,0.0,0.0,0.0,0.0,0.0,0.0,0.0,0.0,0.0,0.0,0.0,0.0,0.0,0.0,0.0,0.0,0.0,0.0,0.0,0.0,3.6175,3.5589,3.5488,3.5713,3.6276,3.6374,3.6423,3.6374,3.6385,3.6509,3.6772,3.6772,3.687,3.7152,3.7268,3.7609,3.8277,3.8507,3.898,3.9777,3.9822,3.9939,4.0075,4.0075,4.0075,4.0075,3.9423,3.9152,3.9114,3.8489,3.8191,3.8225,3.7954,3.7914,3.7821,3.6398,3.5886,3.5941,3.5941,3.596,3.6014,3.6015,3.6013,3.6013,3.6012,3.6012,3.6011,3.5966,3.5964,3.5962,3.5956,3.5957,3.5958,3.5946,3.5925,3.5886,3.5722,3.5665,3.5604,3.5547,3.5527,3.55,3.55,3.55,3.55,3.55,3.542,3.5323,3.5262,3.5231,0.0,3.4784,3.4755,3.4614,3.4215,3.4167,3.4018,3.382,3.3807,3.378,3.3726,3.3726,3.3712,3.3657,3.3232,3.2734,3.2127,3.1542,3.0998,0.0,0.0,0.0,0.0,0.0,0.0,0.0,0.0,0.0,0.0,0.0,0.0,0.0,0.0,0.0,0.0,0.0,0.0,0.0,0.0,0.0,0.0,3.719,3.7152,3.6991,3.6645,3.6573,3.7035,3.711,3.711,3.711,3.711,3.726,3.7587,3.7691,3.7898,3.8248,3.8416,3.8755,3.9259,3.9488,3.9865,4.0477,4.0583,4.0693,4.0816,4.0816,4.0816,4.0777,4.0287,4.006,4.0022,3.953,3.9292,3.9242,3.8949,3.8805,0.0,0.0,0.0,0.0,0.0,3.6999,3.7066,3.7031,3.6834,3.6557,3.6555,3.6281,3.6008,3.6005,3.6004,3.6004,3.6004,3.6004,3.6004,3.6001,3.5986,3.5923,3.5844,3.5779,3.5702,3.5679,3.5581,3.549,3.549,3.543,0.0,3.5412,3.5352,3.5315,3.5254,3.5285,3.5174,3.4851,3.4851,3.4783,3.4435,3.4262,3.4155,3.4004,3.3873,0.0,0.0,0.0,3.3601,3.3401,3.307,0.0,0.0,0.0,3.1078,3.0797,3.0797,0.0,0.0,2.9424,2.908,0.0,0.0,0.0,0.0,0.0,0.0,0.0,0.0,0.0,0.0,0.0,0.0,0.0,0.0,0.0,0.0,3.7586,3.784,3.8546,3.7928,3.7408,3.7373,3.7385,3.7396,3.7396,3.7408,3.7709,3.8399,3.8639,3.9109,3.9857,0.0,0.0,0.0,0.0,4.0662,4.08,4.0977,4.1081,4.1099,4.1099,4.1099,4.1099,4.1007,4.0942,4.0942,4.0854,4.0809,4.0748,4.0045,3.9746,3.9629,3.8689,3.8376,3.8477,3.8483,3.8477,3.8504,3.8509,0.0,0.0,3.7449,3.69,3.6275,3.6307,3.6305,3.6305,3.6305,3.6226,3.6148,3.6148,3.607,3.5991,3.5988,3.5921,3.5886,3.5878,3.5668,3.5498,3.5498,3.5398,3.5308,3.53,3.533,3.5293,3.5069,3.5174,3.5132,3.4705,3.4822,3.4812,3.4529,0.0,0.0,3.4142,3.3952,3.3766,3.3684,3.3671,3.3502,3.3147,3.2818,3.2403,3.1931,3.1545,3.1293,3.119,3.119,3.1151,3.1012,3.0097,2.9661,0.0,0.0,0.0,0.0,0.0,0.0,0.0,0.0,0.0,0.0,0.0,0.0,0.0,0.0,0.0,3.9375,3.9424,3.9451,3.9602,3.9478,3.9313,3.9125,3.9159,3.9218,3.9218,3.9297,3.9384,3.9444,3.9661,3.985,3.991,4.0072,4.0513,4.1241,4.1276,4.1715,4.2587,4.2654,4.2724,4.2908,0.0,0.0,4.2869,4.2177,4.1834,4.1795,4.1098,4.0787,4.0782,4.0632,4.0604,4.0509,3.8899,3.8339,3.8365,3.8387,3.8422,3.8415,3.847,3.8398,3.8281,3.8346,3.8222,3.8104,3.8103,3.8103,0.0,3.8103,3.7594,3.7048,3.7048,3.6539,3.5986,3.5914,3.5889,3.5817,3.5753,3.5625,3.5507,3.5507,3.5385,3.53,3.5308,3.5308,3.53,3.5261,3.5245,3.5174,3.5107,3.5124,3.4972,3.4551,3.4464,3.4284,3.3926,3.378,3.3684,3.3615,3.3524,3.3422,3.3349,3.2957,3.2584,3.2249,3.1841,3.147,3.119,3.119,3.119,3.1151,3.0477,3.0118,0.0,0.0,0.0,0.0,0.0,0.0,0.0,0.0,0.0,0.0,0.0,3.99,0.0,0.0,3.9922,3.9975,3.9986,3.9986,3.9986,3.9986,3.9922,3.9754,3.9789,3.9785,3.9785,3.9867,3.9911,3.9916,4.054,4.0899,4.084,4.1463,4.1991,4.2454,4.2454,4.2721,4.326,4.326,4.3292,4.3391,4.3391,4.3391,4.3391,4.2942,4.2754,4.2715,4.2338,4.2144,4.2094,4.2094,4.2144,4.2126,4.1238,4.0388,3.9616,3.9656,3.9664,3.9717,3.9746,3.949,3.914,3.9205,3.8923,3.8572,3.8566,3.8569,3.857,3.8566,3.8255,3.7946,3.7902,3.7586,3.723,3.7203,3.7188,3.7139,3.7105,3.6634,3.6241,3.6241,3.5771,3.5367,3.5352,3.5278,3.5261,3.5261,3.5237,3.519,3.519,3.519,3.5115,3.4889,3.4773,3.4572,3.4307,3.3992,3.3726,3.3581,3.3452,3.3393,3.3393,3.3003,3.2715,3.2551,3.1986,3.162,3.1466,3.1288,3.1171,3.1092,3.0797,3.0634,0.0,0.0,0.0,0.0,0.0,0.0,0.0,0.0,3.9796,3.9943,3.9965,3.9965,3.9965,3.9965,3.9996,4.0127,4.0137,4.0137,4.0137,4.0137,4.0106,3.9975,3.9943,3.9933,3.9933,3.9954,4.0093,4.0329,4.1221,4.1801,4.2032,4.2898,4.3485,4.3679,4.3679,4.3757,4.3912,4.3912,4.3912,4.3912,4.3912,4.3912,4.3912,4.374,4.3673,4.3679,4.3539,4.3456,4.3402,4.3402,4.3451,4.3505,4.3505,4.2656,4.1412,4.1412,4.1457,4.149,4.1482,4.1083,4.0508,4.0376,3.9857,3.9309,3.9064,3.9027,3.9071,3.9023,3.8912,3.8837,3.875,3.8631,3.851,3.85,3.8495,3.8495,3.8495,3.7858,3.7246,3.7225,3.6472,3.5892,3.5856,3.5745,3.5572,3.5267,3.519,3.519,3.519,3.519,3.5174,3.5141,3.4992,3.4803,3.4651,3.4142,3.3726,3.3509,3.3422,3.3393,3.3393,3.3101,3.2858,3.2795,3.2231,3.1824,3.1712,3.1428,3.1297,3.1254,3.1254,3.1214,3.9277,3.9449,0.0,3.9644,3.9789,3.9889,0.0,0.0,4.0106,4.0244,4.0273,4.0273,4.0273,4.0273,4.0273,4.0282,4.0282,4.0282,4.0282,4.0282,4.0282,4.0273,4.0147,4.0086,4.0086,4.0176,4.0511,4.1127,4.1626,4.2171,4.2848,4.3266,4.385,4.4626,4.4626,4.4981,4.5719,4.5719,4.5719,4.5719,4.5719,4.5719,4.568,4.4981,4.4632,4.4593,4.3816,4.3505,4.3505,4.3505,4.3505,4.3505,4.3505,4.3389,4.3194,4.3194,4.3204,4.3242,4.3305,4.3258,4.3075,4.233,4.2034,4.1837,4.1042,4.0803,4.0806,4.0803,4.0259,3.9674,3.9674,3.9087,3.85,3.8497,3.849,3.8483,3.8483,3.8309,3.8136,3.7992,3.7778,3.7586,3.7466,3.7424,3.691,3.542,3.519,3.519,3.519,3.519,3.5124,3.4964,3.4841,3.4599,3.4043,3.3726,3.3509,3.3408,3.3393,3.3393,3.3393,3.3364,3.3162,3.2795,3.2715,3.2368,3.1712,3.1675,3.1812,3.2138,3.2138,3.2008,3.9696,0.0,0.0,0.0,3.9867,3.9933,4.0086,4.0106,4.0137,4.0282,4.0301,4.0301,4.0301,4.0301,4.0301,0.0,4.0301,4.0301,4.0301,4.0301,4.0301,4.0301,4.0263,4.0244,4.0244,4.0702,4.117,4.1513,4.267,4.3504,4.3926,4.4599,4.5103,4.5491,4.5491,4.5652,4.6002,4.6002,4.6002,4.6002,4.6002,4.6002,4.6002,4.5652,4.5491,4.5491,4.5103,4.4948,4.4953,4.4982,4.4996,4.5035,4.5066,4.5075,4.4954,4.388,4.3505,4.3496,4.3596,4.3601,4.3544,4.3235,4.317,4.3071,4.2666,4.2239,4.1854,4.1847,4.1225,4.0567,4.056,4.0284,4.0009,3.9998,3.9992,4.0025,4.0025,3.9575,3.9136,3.8996,3.8456,3.7976,3.7847,3.7755,3.7477,3.6743,3.6663,3.6481,3.595,3.5912,3.5678,3.5086,3.5247,3.5199,3.4797,3.4972,3.4995,3.4806,3.4806,3.4806,3.4806,3.4806,3.4728,3.4567,3.4302,3.4052,3.3759,3.3253,3.3102,3.3288,3.2978,3.2975,3.9856,0.0,0.0,3.9943,3.9975,4.0055,4.0137,4.0157,4.0176,4.0291,4.011,3.9995,4.0263,4.011,4.0034,4.0263,4.0301,4.0301,4.0301,4.0301,4.0377,4.0616,4.0616,4.0731,4.095,4.1304,4.1752,4.2347,4.3643,4.4576,4.4957,4.5603,4.6002,4.6002,4.6002,4.6002,4.6002,4.6002,4.6002,4.6002,4.6002,4.6002,4.6002,4.6002,4.6002,4.6002,4.6017,4.6022,4.6027,4.6117,4.6134,4.6138,4.6169,4.6219,4.6056,4.4747,4.4253,4.4236,4.4314,4.4314,4.4292,4.409,4.402,4.3994,4.3704,4.32,4.2741,4.273,4.2265,4.1802,4.1791,4.1596,4.1437,4.1422,4.1263,4.1107,4.1107,4.0601,4.0107,3.9956,3.9315,3.8724,3.8554,3.8456,3.8375,3.8375,3.8365,3.7964,3.686,3.6737,3.649,3.5836,3.592,3.5958,3.5764,3.5947,3.6015,3.582,3.5804,3.5804,3.5804,3.5804,3.5804,3.5804,3.5506,3.5304,3.522,3.4601,3.4291,3.4278,3.3828,3.3927,3.99,0.0,4.0106,4.0106,4.0176,4.0291,4.0301,4.0301,4.0301,4.0301,3.9623,3.9317,4.0148,3.9623,3.9317,4.0148,4.0301,4.0301,4.0301,4.0301,4.0578,4.138,4.1457,4.18,0.0,4.1991,4.2211,4.4007,4.4298,4.4815,4.5815,4.5953,4.6002,4.6002,4.6002,4.6002,4.6002,4.6002,4.6002,4.6002,4.6002,4.6002,4.6002,4.6002,4.6002,4.6002,4.6056,4.6113,4.6117,4.6162,4.6215,4.6215,4.6215,4.6219,4.618,4.6137,4.6137,4.6115,4.6119,4.613,4.5976,4.5152,4.4844,4.4721,4.3841,4.3562,4.3562,4.3562,4.3523,4.3523,4.3523,4.29,4.2276,4.2276,4.1653,4.1107,4.1107,4.1068,4.0988,4.0709,4.0591,4.0429,4.0157,4.008,4.003,4.003,4.003,3.9431,3.7795,3.7566,3.7547,3.7423,3.6971,3.6633,3.6569,3.6091,3.582,3.5804,3.5804,3.5804,3.5804,3.5804,3.5804,3.5804,3.5804,3.5607,3.522,3.51,3.5041,3.4981,3.4822,3.4866,3.9829,0.0,3.9975,3.9975,4.0147,4.0301,4.0301,4.0301,4.0301,4.0301,4.0072,3.9957,4.0263,4.0072,3.9957,4.0263,4.0301,4.0301,4.0301,4.0769,4.1189,4.1457,4.1991,0.0,0.0,0.0,0.0,4.401,4.4825,4.5395,4.5749,4.5917,4.6002,4.6002,4.6002,4.6002,4.6002,4.6002,4.6002,4.6002,4.6037,4.6051,4.6056,4.6126,4.6138,4.6138,4.6154,4.6158,4.6162,4.62,4.6212,4.6215,4.6233,4.6279,4.6279,4.6279,4.6279,4.6245,4.6234,4.621,4.6164,4.5859,4.5747,4.5719,4.54,4.4929,4.4462,4.4462,4.4033,4.3601,4.3601,4.3367,4.3172,4.3172,4.2978,4.2744,4.2744,4.2229,4.1714,4.1512,4.0906,4.0334,4.0148,4.0096,4.0007,3.9965,3.954,3.9039,3.8469,3.7869,3.746,3.744,3.7578,3.7704,3.7679,3.7667,3.7677,3.7677,3.7507,3.7377,3.7377,3.7377,3.7377,3.7377,3.7377,3.7258,3.7053,3.6774,3.6552,3.6435,3.5765,3.5506,3.9818,3.9884,3.9905,4.0017,4.0176,4.0301,4.0301,4.0301,4.0301,4.0301,4.0034,3.9919,4.0225,4.0034,4.0034,4.0616,4.0731,4.0845,4.1151,4.1648,4.2078,4.2403,4.2938,4.3588,0.0,0.0,0.0,4.4604,4.5282,4.5734,4.5848,4.5969,4.6037,4.6056,4.6056,4.6056,4.6056,4.6056,4.6056,4.6056,4.6126,4.6138,4.6142,4.6165,4.6219,4.6219,4.6193,4.6196,4.62,4.6231,4.624,4.6243,4.6296,4.63,4.63,4.63,4.6273,4.6245,4.6208,4.621,4.6195,4.6201,4.6206,4.6219,4.6219,4.5829,4.5358,4.5344,4.4947,4.4476,4.446,4.4222,4.3989,4.3989,4.3751,4.3557,4.3557,4.3077,4.256,4.2434,4.1532,4.076,4.0635,4.0238,3.9943,3.99,3.9515,3.9206,3.9206,3.8681,3.8281,3.8281,3.8516,3.8664,3.8664,3.8623,3.86,3.86,3.8336,3.8191,3.8191,3.8191,3.8191,3.8191,3.8157,3.807,3.8019,3.7667,3.7536,3.7556,3.6915,3.6563,3.9796,3.9873,3.9899,4.0206,4.0263,4.0263,4.0301,4.0301,4.0301,4.0301,3.9661,3.9317,0.0,0.0,3.9661,4.1304,4.1571,4.1839,4.2679,4.2832,4.3158,0.0,0.0,0.0,0.0,0.0,0.0,4.568,0.0,4.5827,4.6065,4.6117,4.6138,4.6215,4.6219,4.6219,4.6219,4.6219,4.6219,4.6219,4.6219,4.618,4.618,4.6183,4.6222,4.6225,4.6217,4.6228,4.6192,4.6331,4.6378,4.6378,4.6417,4.6417,4.6417,4.6417,4.6363,4.6283,4.6282,4.6242,4.6196,4.6209,4.6219,4.6219,4.6215,4.6176,4.6169,4.6126,4.6074,4.6065,4.6012,4.5375,4.4753,4.4753,4.4166,4.3617,4.3617,4.3606,4.3497,4.3383,4.2502,4.172,4.158,4.0715,4.0014,4.0014,4.0014,4.0014,3.99,3.99,3.99,3.99,3.967,3.9526,3.9526,3.8975,3.8646,3.8631,3.8352,3.8207,3.8191,3.8191,3.8227,3.8246,3.8125,3.8074,3.811,3.7918,3.7985,3.8274,3.8209,3.8061,3.9539,3.9286,3.9088,3.9834,3.9661,3.9508,4.0148,4.0301,4.0301,4.0301,4.011,4.0234,0.0,0.0,0.0,4.2297,4.2488,0.0,4.2776,4.335,0.0,4.4145,0.0,4.516,4.5362,4.54,0.0,0.0,4.5775,4.5854,4.6003,4.6138,4.6169,4.6219,4.6219,4.6219,4.6219,4.6219,4.6219,4.6219,4.6206,4.6215,4.6217,4.6238,4.6284,4.6284,4.6251,4.6253,4.6331,4.7001,4.7276,4.7315,4.7939,4.8174,4.8174,4.8174,4.7724,4.7187,4.7183,4.6731,4.6212,4.6187,4.6219,4.6173,4.6142,4.6134,4.6122,4.6037,4.6022,4.6017,4.6002,4.5846,4.5686,4.5686,4.5491,4.5375,4.5375,4.4787,4.4227,4.4193,4.3261,4.2431,4.242,4.2053,4.1757,4.1757,4.1757,4.1302,4.0052,3.99,3.99,3.99,3.9845,3.9811,3.9811,3.9489,3.9168,3.8896,3.8661,3.8417,3.8191,3.8191,3.843,3.8921,3.8904,3.9103,3.9568,3.9512,3.947,3.9439,3.9156,3.8993,3.9611,3.9698,3.9743,4.0,4.0072,4.0119,4.0263,4.0301,4.0301,4.0301,4.0578,0.0,0.0,0.0,0.0,0.0,0.0,0.0,4.3905,4.4346,4.4691,0.0,4.517,0.0,4.5466,4.5475,4.5577,0.0,4.5809,4.5869,4.6068,4.6148,4.6209,4.622,4.6223,4.6223,4.6223,4.6223,4.6223,4.6223,4.6238,4.6438,4.6828,4.6841,4.7042,4.7393,4.7393,4.7393,4.7432,4.7939,4.8135,4.8174,4.8603,4.8798,4.8798,4.8798,4.8471,4.8043,4.8035,4.7672,4.7133,4.6419,4.6138,4.6122,4.6051,4.6047,4.6032,4.598,4.5964,4.5958,4.5929,4.5923,4.5923,4.5923,4.5923,4.5923,4.5923,4.5467,4.4959,4.4522,4.3841,4.3196,4.2782,4.2536,4.2401,4.2401,4.2401,4.206,4.1113,4.0999,4.0999,4.0999,4.0999,4.0999,4.0999,4.0752,4.0502,4.0344,3.9882,3.958,3.9422,3.9291,3.937,3.9751,3.9752,3.986,4.0142,4.0104,4.0207,4.0412,4.0192,4.0164,4.0019,4.0512,4.0918,4.0568,4.0807,4.1036,4.0416,4.0301,4.0339,4.0454,0.0,4.1571,4.18,4.245,4.3214,4.4055,0.0,4.4518,4.5313,4.5429,4.5438,4.5523,4.5494,4.555,4.5586,4.5594,4.5658,4.5864,4.5852,4.5919,4.6187,4.6194,4.6243,4.63,4.63,4.63,4.63,4.63,4.63,4.63,4.63,4.6768,4.7586,4.7586,4.8057,4.8798,4.8798,4.8798,4.8798,4.8915,4.8954,4.8995,4.9112,4.9153,4.9155,4.916,4.9023,4.8882,4.8876,4.8762,4.8377,4.6907,4.6387,4.6346,4.6341,4.6258,4.613,4.6066,4.5977,4.588,4.5821,4.5807,4.5807,4.5807,4.5807,4.5807,4.5807,4.5807,4.5546,4.4755,4.4414,4.3992,4.3204,4.2889,4.2742,4.2742,4.2742,4.2742,4.2742,4.2564,4.2401,4.2401,4.2401,4.2401,4.2401,4.2184,4.2058,4.1982,4.1416,4.1045,4.0997,4.0666,4.0546,4.0619,4.0546,4.0526,4.0467,4.0427,4.0672,4.1252,4.1252,4.1404,4.0896,4.0657,4.0568,4.1141,4.0348,3.9584,4.0148,4.0301,0.0,0.0,4.138,4.1915,4.3319,4.3701,0.0,4.4995,0.0,0.0,0.0,0.0,4.5523,0.0,0.0,0.0,0.0,0.0,0.0,0.0,0.0,4.5992,4.6251,4.6296,4.6296,4.63,4.63,4.63,4.63,4.63,4.63,4.63,4.63,4.6768,4.7586,4.7586,4.8057,4.8798,4.8798,0.0,4.8876,4.9577,4.9856,4.9942,5.0684,5.0962,5.0929,5.0898,5.0427,4.9838,4.9776,4.924,4.8545,4.8271,4.8172,4.8155,4.8069,4.7546,4.6997,4.6925,4.6362,4.5821,4.5807,4.5807,4.5807,4.5807,4.5807,4.5807,4.5807,4.5807,4.5761,4.5585,4.5359,4.5132,4.495,4.469,4.4459,4.4459,4.4459,4.4459,4.4459,4.3284,4.2401,4.2401,4.2401,4.2401,4.2401,4.2366,4.2233,4.1995,4.1642,4.1302,4.1013,4.0666,4.0727,4.1209,4.1226,4.1453,4.1955,4.1899,4.1986,4.2093,4.2093,4.2103,4.073,4.0883,4.0996,4.0958,4.0651,4.0384,4.0345,0.0,0.0,0.0,4.1905,4.2604,4.3827,0.0,0.0,0.0,0.0,0.0,0.0,0.0,0.0,0.0,0.0,0.0,0.0,0.0,0.0,0.0,0.0,4.6009,4.6296,4.63,4.63,4.63,4.63,4.63,4.63,4.63,4.63,4.63,4.63,4.6963,4.8213,4.8213,4.8915,5.0165,5.0165,5.0168,5.0173,5.0601,5.0762,5.0808,5.1238,5.1396,5.1399,5.1367,5.1093,5.0733,5.0681,5.0336,4.992,4.9887,4.9252,4.849,4.8456,4.8171,4.7822,4.7787,4.7463,4.7154,4.7154,4.6806,4.6464,4.6464,4.6116,4.5807,4.5807,4.5807,4.5807,4.5807,4.5618,4.5494,4.5419,4.5208,4.5033,4.4926,4.4914,4.4914,4.4914,4.4194,4.3701,4.3701,4.3701,4.3701,4.3701,4.3701,4.3653,4.3504,4.3192,4.2953,4.2783,4.2249,4.2086,4.2395,4.2169,4.2171,4.2405,4.2405,4.2384,4.2308,4.2308,4.2308,4.0666,4.1182,4.1527,4.0828,4.1067,4.1259,4.056,4.0522,0.0,0.0,4.2574,4.3435,4.4231,0.0,0.0,0.0,0.0,0.0,0.0,0.0,0.0,0.0,0.0,0.0,0.0,0.0,0.0,0.0,0.0,4.6087,4.6298,4.63,4.63,4.63,4.63,4.63,4.63,4.63,4.63,4.63,4.63,4.7198,4.8798,4.8798,4.9737,5.1418,5.1418,5.1384,5.1391,5.1391,5.1395,5.14,5.14,5.14,5.1402,5.1366,5.1367,5.1317,5.131,5.1203,5.112,5.112,5.0125,4.8933,4.8933,4.8817,4.8662,4.8662,4.8546,4.8392,4.8392,4.7889,4.7386,4.7386,4.6689,4.6078,4.6078,4.5923,4.5807,4.5807,4.5712,4.5573,4.5429,4.527,4.5136,4.4938,4.4914,4.4914,4.4914,4.4914,4.4902,4.4877,4.4889,4.4914,4.4914,4.4914,4.4902,4.4877,4.4544,4.4327,4.4336,4.3607,4.325,4.3195,4.2823,4.2546,4.2445,4.2445,4.2405,4.2308,4.2308,4.2308,4.1566,4.1642,4.1681,4.1604,4.1067,4.0483,4.0407,0.0,0.0,4.2601,4.3483,4.4327,4.5132,4.5362,4.5419,4.5466,4.5514,4.5532,0.0,0.0,0.0,0.0,0.0,0.0,0.0,0.0,0.0,0.0,4.6115,4.6253,4.63,4.63,4.63,4.63,4.63,4.63,4.63,4.63,4.63,4.63,4.63,4.7198,4.8798,4.8798,4.9741,5.1389,5.1389,5.1393,0.0,5.1397,5.1401,5.1404,5.1404,5.1405,5.1406,5.1316,5.1358,5.1366,5.1309,5.1261,5.1191,5.1191,5.0936,5.0666,5.0666,5.0163,4.9591,4.9591,4.901,4.8392,4.8392,4.8353,4.8275,4.8275,4.7618,4.696,4.696,4.6348,4.5807,4.5807,4.5712,4.5573,4.5429,4.527,4.5136,4.4938,4.4914,4.4914,4.4914,4.4914,4.4865,4.4738,4.484,4.4914,4.4914,4.4914,4.4865,4.4738,4.4379,4.4147,4.4033,4.3372,4.3013,4.2939,4.2665,4.2445,4.2308,4.2308,4.2308,4.2308,4.2308,4.2308,4.099,4.0998,4.0998,4.0998,4.0729,4.046,4.046,0.0,4.198,4.2799,4.3661,4.4524,4.5303,4.5475,4.5541,4.5559,4.5568,4.5568,0.0,0.0,0.0,0.0,0.0,0.0,0.0,0.0,0.0,0.0,4.6184,4.63,4.63,4.63,4.63,4.63,4.63,4.63,4.63,4.63,4.63,4.63,4.63,4.7201,4.8846,4.8807,4.9748,5.1395,5.1395,5.1398,0.0,5.1402,5.1404,5.1406,5.1406,5.1406,5.1406,5.1364,5.1366,5.1406,5.1364,5.1306,5.1261,5.1218,5.1108,5.1023,5.0929,5.0666,5.0434,5.0434,5.0163,4.9892,4.9892,4.9552,4.9049,4.8508,4.8121,4.7889,4.7889,4.7618,4.7192,4.6689,4.6522,4.6274,4.5636,4.5419,4.526,4.4962,4.4914,4.4852,4.4685,4.4659,4.4646,4.4578,4.4712,4.4751,4.4672,4.4659,4.4632,4.4578,4.4468,4.4368,4.431,4.3775,4.3407,4.3213,4.2825,4.253,4.2308,4.2308,4.2537,4.3036,4.3036,4.3251,4.0576,4.0545,4.0537,4.0523,4.0516,4.0554,0.0,0.0,4.2415,4.3235,4.406,4.4846,4.5435,4.5568,4.5594,4.5594,4.5594,4.5612,4.5662,0.0,0.0,0.0,0.0,0.0,0.0,0.0,0.0,0.0,4.6253,4.6308,4.6308,4.6308,4.6306,4.63,4.63,4.6302,4.6305,4.6305,4.6305,4.6308,4.6542,4.7443,4.8892,4.9087,4.9989,5.1401,5.1401,5.1403,0.0,5.1405,5.1406,5.1406,5.1406,5.1406,5.1406,5.1406,5.1406,5.1406,5.1406,5.1357,5.1269,5.1222,5.1118,5.1004,5.0937,5.0898,5.0898,5.0898,5.0898,5.0898,5.0898,5.0473,4.99,4.9281,4.8926,4.8763,4.8763,4.8555,4.8199,4.7581,4.7442,4.7193,4.6441,4.6079,4.5744,4.5328,4.5066,4.489,4.4862,4.4857,4.4918,4.5138,4.5223,4.5077,4.4571,4.4482,4.4468,4.4426,4.4426,4.4397,4.4354,4.3971,4.3721,4.3667,4.3284,4.3041,4.2965,4.2965,4.3286,4.3836,4.3836,4.4228,4.0694,4.0694,4.0662,4.0515,4.0516,4.0746,0.0,0.0,4.3316,4.4124,4.497,4.5594,4.5594,4.5594,4.5594,4.5594,4.5594,4.5654,4.5778,0.0,0.0,0.0,0.0,0.0,0.0,0.0,0.0,4.627,4.6318,0.0,4.6282,4.6282,4.6316,4.6302,4.63,4.6305,4.6312,4.6312,4.6316,4.6321,4.718,4.8039,4.8937,4.9718,5.0581,5.1405,5.1405,5.1405,0.0,5.1406,5.1406,5.1406,5.1406,5.1406,5.1406,5.1406,5.1406,5.1406,5.1406,5.1304,5.1203,5.1203,5.1064,5.0898,5.0898,5.0898,5.0898,5.0898,5.0898,5.0898,5.0898,5.0898,5.0898,5.0859,5.0217,4.9605,4.9605,4.8916,4.8296,4.8296,4.8296,4.8214,4.8001,4.7319,4.6615,4.6175,4.5419,4.5079,4.5637,4.5669,4.5948,4.6598,4.6694,4.6083,4.4618,4.4482,4.4426,4.4333,4.4281,4.4207,4.4002,4.3747,4.3828,4.429,4.4022,4.4119,4.4585,4.4585,4.4585,4.4585,4.4585,4.5035,4.078,4.078,4.077,4.0738,4.0726,4.092,4.1817,0.0,4.3555,4.4414,4.5228,4.5803,4.5803,4.5803,4.5803,4.5803,4.5803,4.5821,0.0,0.0,0.0,0.0,0.0,0.0,0.0,0.0,4.6231,4.6318,4.6281,4.6282,4.6282,4.6282,4.6281,4.6316,4.6316,4.6317,4.6319,4.6319,4.628,4.6321,4.718,4.8041,4.8942,4.9763,5.0623,5.1406,5.1406,5.1406,5.1406,5.1406,5.1406,5.1406,5.1406,5.1406,5.1406,5.1406,5.1406,5.1406,5.1406,5.1356,5.1266,5.1218,5.1113,5.0998,5.0937,5.0898,5.0898,5.0898,5.0882,5.0897,5.0897,5.088,5.0816,5.0816,5.0615,5.0413,5.0413,5.0212,4.9847,4.9221,4.9118,4.889,4.8229,4.7894,4.7587,4.7247,4.682,4.6554,4.6529,4.6367,4.6307,4.652,4.6557,4.635,4.5913,4.5892,4.586,4.5829,4.5813,4.5797,4.5695,4.563,4.552,4.5461,4.5388,4.5236,4.4931,4.4931,4.5093,4.5427,4.5998,4.6391,4.0867,4.0894,4.0848,4.08,4.0791,0.0,0.0,0.0,4.3743,4.4929,4.5551,4.5901,4.5911,4.5911,4.5911,4.5911,4.5911,4.5925,0.0,0.0,0.0,0.0,0.0,0.0,0.0,0.0,4.6284,4.6284,4.6286,4.6286,4.6286,4.6286,4.6286,4.6286,4.6284,4.6283,4.6284,4.6284,4.648,4.6794,4.7653,4.8553,4.9413,5.0273,5.0937,5.1406,5.1406,5.1406,0.0,5.1406,5.1406,5.1406,5.1406,5.1406,5.1406,5.1406,5.1406,5.1406,5.1365,5.1307,5.1258,5.1183,5.1114,5.0984,5.0898,5.0866,5.0874,5.0858,5.088,5.0855,5.0855,5.0838,5.0821,5.0821,5.0764,5.0747,5.0747,5.0776,5.0604,5.0064,4.996,4.9787,4.9248,4.8836,4.8519,4.8226,4.7667,4.7311,4.7356,4.7095,4.707,4.7367,4.7404,4.7404,4.7404,4.6847,4.6513,4.6513,4.6513,4.6513,4.6513,4.6513,4.6507,4.645,4.6432,4.636,4.6182,4.606,4.6097,4.6248,4.6748,4.6998,0.0,4.1025,0.0,0.0,0.0,0.0,0.0,0.0,0.0,4.5589,4.5948,4.5914,4.5935,4.5939,4.5939,4.5939,4.5939,4.5967,0.0,0.0,0.0,0.0,0.0,0.0,0.0,4.6286,4.6288,4.6288,4.6289,4.6289,4.6289,4.6367,4.6406,4.6406,4.6442,4.6441,4.6405,4.6405,4.6835,4.7695,4.8594,4.9414,5.0234,5.1016,5.1406,0.0,5.1406,5.1406,5.1406,5.1406,5.1406,5.1406,5.1406,5.1406,5.1406,5.1406,5.1406,5.1366,5.1309,5.1261,5.1178,5.1109,5.1016,5.0882,5.0808,5.0846,5.0872,5.0829,5.0821,5.0773,5.0773,5.0773,5.0812,5.0812,5.0729,5.0692,5.0692,5.0702,5.0712,5.0712,5.0712,5.0712,5.0712,5.001,4.9413,4.9177,4.8186,4.7664,4.8175,4.797,4.8073,4.8816,4.889,4.889,4.889,4.7516,4.6661,4.6661,4.6661,4.6661,4.6661,4.6661,4.6877,4.7334,4.7298,4.7516,4.7992,4.7663,4.732,4.6998,4.6998,4.6998,4.1087,0.0,4.1076,4.1028,4.1534,4.2315,0.0,0.0,0.0,0.0,0.0,4.6222,4.6223,4.6223,4.6223,4.6223,4.6223,4.6227,0.0,0.0,0.0,0.0,0.0,0.0,0.0,4.6289,4.6289,4.6289,4.6289,4.6289,4.6289,4.6914,4.7305,4.7305,4.7929,4.7968,4.7304,4.7304,4.7734,4.8594,4.9492,5.0,5.0234,5.1016,5.1406,5.1406,5.1406,5.1406,5.1406,5.1406,5.1406,5.1406,5.1406,5.1406,5.1406,5.1406,5.1364,5.1309,5.1301,5.1229,5.1103,5.1009,5.0914,5.0888,5.0838,5.0846,5.0872,5.0829,5.0747,5.072,5.072,5.073,5.0702,5.0702,5.0693,5.0683,5.0683,5.0712,5.0712,5.0712,5.0712,5.0712,5.0712,5.0519,5.0385,5.0297,4.9666,4.9246,4.9367,4.8936,4.8704,4.889,4.889,4.889,4.889,4.8556,4.8333,4.8333,4.8333,4.8333,4.8333,4.8333,4.8373,4.8489,4.8255,4.8067,4.7992,4.7663,4.732,4.6998,4.6998,4.6998,4.1171,4.1131,4.109,4.1088,4.1752,4.2611,4.3508,0.0,0.0,0.0,0.0,4.6286,4.6287,4.6287,4.6287,4.6287,4.6287,0.0,0.0,0.0,0.0,0.0,0.0,0.0,0.0,4.6641,4.6914,4.6914,4.7266,4.75,4.75,4.793,4.8203,4.8203,4.8633,4.8672,4.8203,4.8203,4.8633,4.9492,4.9961,5.0391,5.0781,5.1211,5.1406,5.1406,5.1406,5.1406,5.1406,5.1406,5.1406,5.1406,5.1406,5.1406,5.1406,5.1406,5.1361,5.1293,5.1272,5.1147,5.0988,5.0858,5.0816,5.0838,5.0776,5.0785,5.0812,5.0767,5.073,5.0702,5.0702,5.0693,5.0712,5.0712,5.0712,5.0712,5.0712,5.0712,5.0712,5.0712,5.0712,5.0712,5.0712,5.0712,5.0712,5.0712,5.0197,4.9803,4.9803,4.9246,4.889,4.889,4.889,4.889,4.889,4.889,4.889,4.889,4.889,4.889,4.889,4.889,4.889,4.889,4.8732,4.8477,4.8173,4.7995,4.7705,4.7245,4.7245,4.7156,4.1171,4.1133,4.1131,4.1129,4.1871,4.2808,4.351,0.0,0.0,0.0,0.0,0.0,0.0,4.6289,0.0,0.0,0.0,0.0,0.0,0.0,0.0,0.0,0.0,0.0,4.6484,4.7187,4.7656,4.7773,4.8476,4.8906,4.8906,4.9023,4.9101,4.9101,4.9219,4.9297,4.9297,4.9141,4.9531,5.0391,5.0391,5.0742,5.1406,5.1406,5.1406,5.1406,5.1406,0.0,5.1406,5.1406,5.1406,5.1406,5.1406,5.1406,5.1406,5.1366,5.1315,5.1272,5.1187,5.1043,5.0855,5.0738,5.0738,5.0756,5.0712,5.0702,5.0682,5.0683,5.0712,5.0712,5.0712,5.0712,5.0712,5.0712,5.0712,5.0712,5.0712,5.0712,5.0712,5.0712,5.0712,5.0712,5.0712,5.0712,5.0712,5.0712,5.0233,4.987,4.987,4.9324,4.8976,4.8976,4.8925,4.889,4.889,4.889,4.889,4.889,4.889,4.889,4.889,4.889,4.889,4.889,4.889,4.875,4.8402,4.8402,4.8114,4.7557,4.7515,4.7356,4.1116,4.1168,4.1172,4.1172,4.2344,4.3554,4.3672,0.0,0.0,0.0,0.0,0.0,0.0,4.6289,0.0,0.0,0.0,0.0,0.0,0.0,0.0,0.0,0.0,4.6601,4.7344,4.7539,4.7891,4.8633,4.8828,4.8906,4.8906,4.9609,5.0,5.0,5.0664,5.1016,5.1016,5.0351,5.0391,5.1211,5.1211,5.1289,5.1406,5.1406,5.1406,5.1406,0.0,5.1406,5.1406,5.1406,5.1406,5.1405,5.1405,5.1404,5.1398,5.1254,5.1197,5.1099,5.0903,5.0841,5.0829,5.0773,5.0747,5.071,5.0692,5.0702,5.0721,5.0712,5.0712,5.0712,5.0712,5.0712,5.0712,5.0712,5.0712,5.0712,5.0712,5.0712,5.0712,5.0712,5.0712,5.0712,5.0712,5.0712,5.0712,5.0712,5.0369,5.0147,5.0147,4.9651,4.9337,4.9337,4.9077,4.889,4.889,4.889,4.889,4.889,4.889,4.889,4.889,4.889,4.889,4.889,4.889,4.875,4.8402,4.8402,4.8231,4.7911,4.7621,4.745,4.1016,4.1073,4.1203,4.1718,4.2773,4.3828,4.4297,0.0,0.0,0.0,0.0,0.0,0.0,0.0,0.0,0.0,0.0,0.0,0.0,0.0,0.0,0.0,0.0,4.7148,4.7578,4.8437,4.918,4.957,5.0,5.0234,5.0234,5.0625,5.0859,5.0859,5.1211,5.1406,5.1406,5.1015,5.1015,5.1406,5.1406,5.1406,5.1406,5.1406,5.1405,5.1404,0.0,5.1404,5.1404,5.1404,5.1403,5.1402,5.1402,5.14,5.1394,5.1203,5.1099,5.0966,5.0803,5.0738,5.0729,5.0749,5.0721,5.0702,5.0702,5.0683,5.0712,5.0712,5.0712,5.0712,5.0712,5.0712,5.0712,5.0712,5.0712,5.0712,5.0712,5.0712,5.0712,5.0712,5.0712,5.0712,5.0712,5.0712,5.0712,5.0712,5.0402,5.0195,5.0195,4.9721,4.9399,4.9399,4.9094,4.889,4.889,4.889,4.889,4.889,4.889,4.889,4.889,4.889,4.889,4.889,4.889,4.882,4.8678,4.8678,4.8495,4.8192,4.8055,4.7793,4.088,4.11,4.1473,4.2407,0.0,0.0,0.0,0.0,0.0,0.0,0.0,0.0,0.0,0.0,0.0,0.0,0.0,0.0,0.0,4.6289,4.6289,4.6289,4.707,4.7695,4.7891,4.9297,5.0273,5.0469,5.1054,5.1406,5.1406,5.1406,5.1406,5.1406,5.1406,5.1405,5.1404,5.1404,5.1405,5.1406,5.1406,5.1405,5.1404,5.1404,5.1402,5.1398,5.1398,5.1398,5.1398,5.1398,5.1397,5.1396,5.1351,5.1336,5.1263,5.1099,5.0953,5.0836,5.0747,5.0682,5.0712,5.0683,5.0712,5.0712,5.0712,5.0712,5.0712,5.0712,5.0712,5.0712,5.0712,5.0712,5.0712,5.0712,5.0712,5.0712,5.0712,5.0712,5.0712,5.0712,5.0712,5.0712,5.0712,5.0712,5.0712,5.0712,5.0483,5.0325,5.0325,4.983,4.9484,4.9484,4.916,4.889,4.889,4.889,4.889,4.889,4.889,4.889,4.889,4.889,4.889,4.889,4.889,4.889,4.889,4.889,4.8767,4.8514,4.8421,4.8114,4.0736,4.1349,4.2225,4.3097,4.3519,0.0,4.4805,4.5664,0.0,4.6289,0.0,0.0,0.0,0.0,0.0,0.0,0.0,0.0,4.6289,0.0,4.6289,4.6289,4.707,4.793,4.8711,4.9648,5.0506,5.1248,5.1363,5.1399,5.1399,5.1399,5.1399,5.1399,5.1399,5.1399,5.1399,5.1399,5.1399,5.1399,5.1399,5.1399,5.1399,5.1399,5.1398,5.1398,5.1398,5.1398,5.1398,5.1398,5.1395,5.1387,5.1266,5.1094,5.0935,5.0905,5.0833,5.0702,5.0683,5.0712,5.0712,5.0712,5.0712,5.0712,5.0712,5.0712,5.0712,5.0712,5.0712,5.0712,5.0712,5.0712,5.0712,5.0712,5.0712,5.0712,5.0712,5.0712,5.0712,5.0712,5.0712,5.0712,5.0712,5.0712,5.0712,5.0712,5.0692,5.0644,5.0644,5.0162,4.9776,4.9776,4.9268,4.889,4.889,4.889,4.889,4.889,4.889,4.889,4.889,4.889,4.889,4.889,4.889,4.889,4.889,4.889,4.8873,4.8855,4.8476,4.8287,4.0692,4.1369,4.2276,4.3177,4.3874,0.0,0.0,4.6006,4.6286,4.6286,4.5857,0.0,0.0,0.0,0.0,0.0,0.0,4.6288,4.6288,4.6288,4.6483,4.7028,4.7887,4.8746,4.9567,5.0425,5.1088,5.1362,5.1399,5.1398,5.1398,5.1398,5.1398,5.1398,5.1398,5.1397,5.1394,5.1394,5.1391,5.1385,5.1395,5.1396,5.1394,5.1394,5.139,5.1385,5.1385,5.1385,5.1385,5.1385,5.1369,5.1249,5.1126,5.0984,5.0914,5.0914,5.0799,5.0712,5.0712,5.0712,5.0712,5.0712,5.0712,5.0712,5.0712,5.0712,5.0712,5.0712,5.0712,5.0712,5.0712,5.0712,5.0712,5.0712,5.0712,5.0712,5.0712,5.0712,5.0712,5.0712,5.0712,5.0712,5.0712,5.0712,5.0712,5.0712,5.0712,5.0712,5.0712,5.0186,4.9803,4.9803,4.9283,4.889,4.889,4.889,4.889,4.889,4.889,4.889,4.889,4.889,4.889,4.889,4.8875,4.884,4.884,4.875,4.8714,4.8714,4.8569,4.8401,4.0938,4.166,4.255,4.3518,0.0,0.0,4.5923,4.6169,4.6156,4.5929,4.5423,0.0,0.0,0.0,0.0,0.0,4.6286,4.6286,4.6286,4.6286,4.6637,4.7492,4.8351,4.921,5.0031,5.0889,5.1396,5.1396,5.1394,5.1393,5.1393,5.1393,5.1393,5.1393,5.1393,5.139,5.1385,5.1385,5.1382,5.1414,5.1387,5.139,5.1385,5.1385,5.1382,5.1414,5.1414,5.1414,5.1412,5.136,5.1261,5.1102,5.0978,5.0896,5.0833,5.0833,5.0785,5.0712,5.0712,5.0712,5.0712,5.0712,5.0712,5.0712,5.0712,5.0712,5.0712,5.0712,5.0712,5.0712,5.0712,5.0712,5.0712,5.0712,5.0712,5.0712,5.0712,5.0712,5.0712,5.0712,5.0712,5.0712,5.0712,5.0712,5.0712,5.0712,5.0712,5.0712,5.0712,5.0186,4.9735,4.9535,4.9139,4.889,4.889,4.889,4.889,4.889,4.889,4.8873,4.8892,4.8875,4.8838,4.8803,4.875,4.8751,4.8751,4.8642,4.8624,4.8624,4.8587,4.8458,4.1546,4.2431,4.3319,4.4264,0.0,0.0,4.6084,4.6089,4.5889,4.5144,4.4993,4.5266,4.6126,0.0,0.0,4.6282,4.6282,4.6282,4.6282,4.6282,4.6633,4.7492,4.8351,4.921,5.003,5.0885,5.139,5.139,5.138,5.1414,5.1414,5.1414,5.1414,5.1414,5.1414,5.1414,5.1414,5.1414,5.1414,5.1414,5.1414,5.1414,5.1414,5.1414,5.1414,5.1414,5.1414,5.1414,5.1371,5.1275,5.1086,5.0921,5.0914,5.0808,5.0712,5.0712,5.0712,5.0712,5.0712,5.0712,5.0712,5.0712,5.0712,5.0712,5.0712,5.0712,5.0712,5.0712,5.0712,5.0712,5.0712,5.0712,5.0712,5.0712,5.0712,5.0712,5.0712,5.0712,5.0712,5.0712,5.0712,5.0712,5.0712,5.0712,5.0712,5.0712,5.0712,5.0712,5.0702,5.0186,4.9579,4.8976,4.889,4.889,4.889,4.889,4.889,4.889,4.889,4.8892,4.8804,4.8787,4.8751,4.8587,4.8624,4.8624,4.8624,4.8605,4.8605,4.8605,4.8532,4.8494,4.1546,4.2431,0.0,4.4264,0.0,0.0,0.0,4.6184,0.0,0.0,4.5488,4.58,4.5449,0.0,0.0,4.6315,4.6316,4.6316,4.6316,4.6316,4.6821,4.826,4.8688,4.9393,5.0875,5.1263,5.1419,5.1419,5.1416,5.1414,5.1414,5.1414,5.1414,5.1414,5.1414,5.1414,5.1414,5.1414,5.1414,5.1414,5.1414,5.1414,5.1414,5.1414,5.1414,5.1373,5.1297,5.1302,5.1371,5.1275,5.117,5.1113,5.1023,5.0959,5.0925,5.0925,5.0898,5.0833,5.0833,5.0785,5.0712,5.0712,5.0712,5.0712,5.0712,5.0712,5.0712,5.0712,5.0712,5.0827,5.1395,5.1548,5.1395,5.0827,5.0712,5.0712,5.0712,5.0712,5.0712,5.0712,5.0712,5.0712,5.0712,5.0712,5.0712,5.0712,5.0712,5.0614,5.0369,5.0183,4.9884,4.9299,4.9257,4.916,4.8907,4.889,4.8892,4.884,4.884,4.8857,4.8892,4.8892,4.884,4.8751,4.866,4.8569,4.8532,4.842,4.8401,4.8401,4.8363,4.8344,4.2085,4.2931,0.0,4.4766,4.5422,4.5919,4.6148,0.0,0.0,0.0,4.5675,4.5714,4.5558,4.5948,0.0,4.6308,4.6308,4.6308,4.6308,4.6308,4.6931,4.8603,4.8798,4.9462,5.1219,5.1414,5.1414,5.1414,5.1414,5.1414,5.1414,5.1414,5.1414,5.1414,5.1414,5.1414,5.1414,5.1414,5.1414,5.1414,5.1414,5.1414,5.1414,5.1414,5.1414,5.1412,5.1302,5.1294,5.1302,5.1222,5.1183,5.1103,5.1031,5.1002,5.1002,5.1002,5.0959,5.0914,5.0914,5.0799,5.0712,5.0712,5.0712,5.0712,5.0712,5.0712,5.0789,5.1087,5.1164,5.1356,5.2192,5.2423,5.2279,5.1818,5.1702,5.1702,5.1702,5.1433,5.1164,5.1164,5.0933,5.0712,5.0712,5.0712,5.0712,5.0712,5.0712,5.0594,5.023,5.0195,5.0038,4.9617,4.9454,4.9305,4.9023,4.8925,4.884,4.8751,4.8696,4.8732,4.8785,4.8769,4.8715,4.8587,4.8513,4.8458,4.8419,4.8325,4.8489,4.882,4.882,4.9003,4.297,4.3739,0.0,4.5532,4.584,0.0,4.6238,4.5673,4.5324,4.6144,0.0,4.5363,4.6144,4.63,4.63,4.63,4.63,4.63,4.63,4.63,4.6924,4.8603,4.8798,4.9462,5.1219,5.1414,5.1414,5.1414,5.1414,5.1414,5.1414,5.1414,5.1414,5.1414,5.1414,5.1414,5.1414,5.1414,5.1414,5.1414,5.1414,5.1414,5.1414,5.1414,5.1373,5.1369,5.1373,5.1308,5.1203,5.1211,5.1165,5.1036,5.1036,5.1036,5.1036,5.1025,5.0979,5.089,5.0921,5.0799,5.0712,5.0712,5.0712,5.0712,5.0789,5.0827,5.0971,5.1769,5.2,5.2231,5.3087,5.3318,5.3356,5.3395,5.3318,5.3203,5.3203,5.2577,5.2,5.2,5.1433,5.0943,5.0943,5.0943,5.0943,5.0943,5.0943,5.0824,5.0493,5.0436,5.0316,5.0058,4.977,4.9524,4.9375,4.9165,4.8955,4.8827,4.8827,4.8809,4.8809,4.8624,4.8494,4.8435,4.8416,4.8453,4.8526,4.8526,4.893,4.9721,4.9721,5.0105,4.3624,4.4162,0.0,0.0,4.5942,4.6084,4.6115,4.608,4.6066,4.6261,4.6144,4.6066,4.6261,4.63,4.63,4.63,4.63,4.63,4.63,4.63,4.6924,4.8603,4.8798,4.9462,5.1219,5.1414,5.1414,5.1414,5.1414,5.1414,5.1414,5.1414,5.1414,5.1414,5.1414,5.1414,5.1414,5.1414,5.1414,5.1414,5.1414,5.1414,5.1414,5.1414,5.1355,5.1232,5.136,5.1308,5.1207,5.1302,5.1352,5.1302,5.1302,5.1302,5.1297,5.1199,5.1069,5.0985,5.0913,5.0799,5.0712,5.0712,5.0712,5.0827,5.1471,5.1654,5.1818,5.2702,5.2933,5.3126,5.3972,5.4203,5.4395,5.5011,5.4164,5.3203,5.3203,5.3049,5.2933,5.2933,5.2779,5.2664,5.2664,5.2664,5.2664,5.2664,5.2664,5.2644,5.2564,5.2303,5.1954,5.1642,5.1271,5.0962,5.0713,5.0638,5.0544,5.0392,5.0429,5.039,5.0331,4.9214,4.8827,4.9377,4.9413,4.9669,5.0251,5.0251,5.0362,5.0545,5.0545,5.0618,4.3936,0.0,0.0,4.5648,0.0,4.5993,4.6084,4.6167,4.6236,4.6296,4.63,4.63,4.63,4.63,4.63,4.63,4.63,4.63,4.63,4.63,4.6924,4.8603,4.8798,4.9462,5.1219,5.1414,5.1414,5.1414,5.1414,5.1414,5.1414,5.1414,5.1414,5.1414,5.1414,5.1414,5.1414,5.1414,5.1414,5.1414,5.1414,5.1414,5.1414,5.1414,5.1362,5.1297,5.1364,5.1362,5.1297,5.1364,5.1414,5.1414,5.1414,5.1362,5.1294,5.1218,5.1074,5.0939,5.0905,5.0799,5.0712,5.0712,5.0971,5.1356,5.1769,5.2192,5.2692,5.3587,5.3818,5.401,5.4857,5.5049,5.5164,5.5588,5.5011,5.4395,5.4395,5.4087,5.3818,5.3818,5.351,5.3203,5.3203,5.3203,5.3203,5.3203,5.3203,5.3203,5.3203,5.3026,5.274,5.2392,5.1994,5.1632,5.125,5.1062,5.0944,5.0845,5.0826,5.0842,5.0802,5.0056,4.9837,5.022,5.022,5.0421,5.0802,5.0802,5.0986,5.1353,5.1353,5.1573,4.4276,0.0,4.562,4.5734,4.5786,0.0,4.6022,4.608,4.6115,4.6243,4.6296,4.63,4.63,4.63,4.63,4.63,4.63,4.63,4.63,4.63,4.6924,4.8603,4.8798,4.9462,5.1219,5.1414,5.1414,5.1414,5.1414,5.1414,5.1414,5.1414,5.1414,5.1414,5.1414,5.1414,5.1414,5.1414,5.1414,5.1414,5.1414,5.1414,5.1414,5.1414,5.1414,5.1414,5.1414,5.1414,5.1414,5.1414,5.1414,5.1414,5.1367,5.1372,5.1429,5.136,5.1346,5.1331,5.1299,5.1227,5.1135,5.1135,5.1587,5.2154,5.2308,5.2856,5.3587,5.4472,5.4703,5.4857,5.5511,5.5703,5.5703,5.5703,5.5703,5.5703,5.5703,5.5164,5.4703,5.4703,5.4126,5.3626,5.3626,5.3626,5.3615,5.3605,5.3605,5.3605,5.3595,5.3552,5.3318,5.2943,5.2597,5.2172,5.1676,5.143,5.1287,5.1206,5.1206,5.1206,5.1206,5.1206,5.1206,5.1206,5.1096,5.1096,5.1206,5.1206,5.1573,5.2197,5.2197,5.2564,4.5026,0.0,4.555,0.0,4.5704,4.5814,0.0,0.0,4.6102,0.0,4.6233,4.63,4.63,4.63,4.63,4.63,4.63,4.63,4.63,4.63,4.6924,4.8603,4.8798,4.9462,5.1219,5.1414,5.1414,5.1414,5.1414,5.1414,5.1414,5.1414,5.1414,5.1414,5.1414,5.1414,5.1414,5.1414,5.1414,5.1414,5.1414,5.1414,5.1414,5.1414,5.1414,5.1414,5.1414,5.1414,5.1414,5.1414,5.1414,5.1371,5.1281,5.1674,5.2308,5.2065,5.2446,5.3039,5.2916,5.2877,5.2856,5.2856,5.2933,5.3164,5.3933,5.4241,5.4511,5.5318,5.5549,5.5549,5.5665,5.5703,5.5703,5.5703,5.5703,5.5703,5.5703,5.5626,5.5549,5.5549,5.5434,5.5357,5.5357,5.5357,5.5346,5.5292,5.5281,5.5258,5.5201,5.4868,5.4553,5.4182,5.3749,5.3328,5.2982,5.2899,5.2894,5.2873,5.2873,5.2873,5.2873,5.2873,5.2873,5.2873,5.2197,5.2197,5.2873,5.2873,5.291,5.3041,5.3041,5.3093,4.517,4.5438,4.5523,0.0,4.5637,4.5696,4.5786,0.0,4.5978,4.6084,4.6164,4.6192,4.6296,4.63,4.63,4.63,4.63,4.63,4.63,4.63,4.6924,4.8603,4.8798,4.9462,5.1219,5.1414,5.1414,5.1414,5.1414,5.1414,5.1414,5.1414,5.1412,5.1406,5.1406,5.1401,5.1394,5.1394,5.1394,5.1394,5.1394,5.1394,5.1394,5.1394,5.1401,5.1414,5.1414,5.1414,5.1414,5.1414,5.163,5.2025,5.1951,5.2373,5.2977,5.288,5.3035,5.3282,5.3233,5.3203,5.3203,5.3203,5.3549,5.401,5.4395,5.4797,5.5198,5.5544,5.5626,5.5604,5.5604,5.5604,5.5604,5.5604,5.5604,5.5615,5.5649,5.566,5.5649,5.5615,5.5604,5.5604,5.5604,5.5604,5.5593,5.557,5.552,5.552,5.5485,5.5351,5.4998,5.4458,5.4207,5.3851,5.323,5.3203,5.3203,5.3203,5.3203,5.3203,5.3203,5.3203,5.3203,5.3203,5.2858,5.2858,5.3203,5.3203,5.3203,5.3203,5.3203,5.3203,0.0,0.0,4.5486,4.5457,4.5532,4.5594,0.0,0.0,4.5815,0.0,4.6068,4.6115,4.6236,4.6292,4.63,4.63,4.63,4.63,4.6298,4.6298,4.6924,4.8599,4.8796,4.9462,5.1219,5.1414,5.1414,5.1414,5.1412,5.141,5.141,5.1408,5.1401,5.1394,5.1394,5.1386,5.1414,5.1414,5.1414,5.1414,5.1414,5.1414,5.1414,5.1414,5.1386,5.1406,5.1406,5.136,5.1347,5.1578,5.1966,5.2422,5.2586,5.3074,5.367,5.3626,5.3716,5.3797,5.3797,5.3808,5.3857,5.3857,5.428,5.478,5.478,5.5171,5.5638,5.5638,5.5604,5.5531,5.5531,5.5531,5.5531,5.5531,5.5558,5.552,5.5604,5.5626,5.5626,5.5558,5.5547,5.5497,5.5485,5.5485,5.5473,5.5461,5.5461,5.5449,5.5476,5.5476,5.5236,5.4554,5.4446,5.4105,5.338,5.3251,5.3203,5.3203,5.3203,5.3203,5.3203,5.3203,5.3203,5.3203,5.3203,5.3203,5.3203,5.3203,5.3203,5.3203,5.3203,5.3203,0.0,4.5408,0.0,4.54,4.541,0.0,0.0,0.0,4.5718,4.5733,4.5924,4.6095,4.6119,4.6223,4.63,4.63,4.63,4.6298,4.6288,4.6294,4.6921,4.8591,4.8792,4.9462,5.1219,5.1414,5.1414,5.1414,5.1406,5.1399,5.1399,5.1386,5.1417,5.1414,5.1414,5.1414,5.1414,5.1414,5.1414,5.1414,5.1414,5.1414,5.1414,5.1414,5.1414,5.1417,5.1417,5.13,5.1181,5.1994,5.2275,5.2179,5.2898,5.3705,5.4439,5.432,5.4775,5.5473,5.5473,5.5506,5.5549,5.5549,5.5588,5.5626,5.5626,5.5665,5.5703,5.5703,5.5703,5.5692,5.5692,5.5692,5.5692,5.5692,5.566,5.5615,5.5615,5.566,5.5682,5.5626,5.5577,5.5554,5.5497,5.5485,5.5461,5.5401,5.5427,5.5402,5.5416,5.5403,5.526,5.4821,5.4495,5.4141,5.372,5.338,5.3203,5.3203,5.3203,5.3203,5.3203,5.3203,5.3203,5.3203,5.3203,5.3203,5.3203,5.3203,5.3203,5.3203,5.3203,5.3203,0.0,0.0,0.0,4.539,4.5381,4.54,4.54,4.5475,4.5535,4.5611,4.5691,4.5795,4.5903,4.6137,4.6288,4.6243,4.6286,4.6286,4.6236,4.6284,4.6911,4.8613,4.8811,4.9477,5.1235,5.1391,5.1391,5.1391,5.1386,5.1383,5.1383,5.1417,5.1369,5.132,5.132,5.1353,5.1342,5.1342,5.1342,5.1339,5.1243,5.1215,5.1211,5.1064,5.099,5.099,5.099,5.1031,5.1162,5.1901,5.2436,5.2898,5.3751,5.4545,5.5192,5.5198,5.5391,5.5671,5.5626,5.566,5.5703,5.566,5.5671,5.5703,5.566,5.5626,5.5543,5.5497,5.5499,5.5502,5.5502,5.5502,5.5502,5.5502,5.5476,5.5449,5.5449,5.5476,5.5502,5.5477,5.5465,5.5465,5.544,5.5428,5.5428,5.5403,5.539,5.539,5.5403,5.5403,5.5246,5.4836,5.47,5.4359,5.3758,5.3602,5.344,5.3188,5.3203,5.3203,5.3203,5.3203,5.3203,5.3203,5.3203,5.3203,5.3203,5.3203,5.3203,5.3203,5.3203,5.3203,4.5288,0.0,0.0,0.0,4.537,4.5351,4.5351,0.0,4.5419,4.5509,4.5555,4.5634,4.5729,4.5934,4.6134,4.6115,4.6223,4.6236,4.6223,4.6504,4.7209,4.8635,4.9067,4.9814,5.1258,5.1414,5.1414,5.1414,5.1369,5.1366,5.1366,5.1362,5.1353,5.1303,5.1303,5.1296,5.132,5.1252,5.1234,5.1234,5.108,5.1018,5.0979,5.0843,5.0798,5.079,5.1035,5.1223,5.1392,5.2136,5.2866,5.3577,5.4493,5.5149,5.5523,5.557,5.5593,5.5604,5.557,5.5593,5.5638,5.5593,5.5615,5.5638,5.5593,5.5558,5.5473,5.5463,5.5427,5.5428,5.5428,5.5428,5.5428,5.5403,5.539,5.5415,5.539,5.5428,5.5415,5.5403,5.539,5.539,5.5403,5.5403,5.5403,5.5403,5.5403,5.5403,5.5403,5.5403,5.5286,5.5019,5.4866,5.4585,5.4103,5.3814,5.3585,5.338,5.3251,5.3203,5.3203,5.3203,5.3203,5.3203,5.3203,5.3203,5.3203,5.3203,5.3203,5.3203,5.3203,5.3203,0.0,0.0,0.0,0.0,0.0,0.0,4.5288,4.5367,4.5398,4.5398,4.5482,4.5579,4.5577,4.5711,4.5828,4.5969,4.6102,4.622,4.6245,4.6958,4.7819,4.8737,4.9572,5.0438,5.1294,5.1411,5.1411,5.1411,5.132,5.131,5.131,5.1289,5.1316,5.132,5.1277,5.1273,5.1277,5.1175,5.108,5.1074,5.0903,5.079,5.079,5.0782,5.0782,5.0813,5.1501,5.1798,5.1913,5.2787,5.3502,5.418,5.5059,5.5403,5.5403,5.5403,5.5403,5.5389,5.5389,5.5425,5.5485,5.5485,5.5485,5.5485,5.5485,5.5485,5.5511,5.5511,5.5511,5.5511,5.5511,5.5511,5.5461,5.5439,5.5376,5.5402,5.5416,5.5465,5.5499,5.5389,5.5376,5.5402,5.5416,5.5441,5.5441,5.5441,5.5479,5.5479,5.5479,5.5479,5.5479,5.5479,5.5109,5.4882,5.4882,5.4213,5.3794,5.3775,5.3453,5.3298,5.3298,5.3298,5.324,5.3261,5.3261,5.3203,5.3203,5.3203,5.3203,5.3203,5.3203,5.3203,4.5288,0.0,0.0,0.0,0.0,0.0,4.5288,4.5298,4.5347,4.5347,4.537,4.5371,4.54,4.5482,4.5587,4.5642,4.5881,4.6298,4.7037,4.7369,4.8035,4.9499,4.9893,5.0361,5.1257,5.1335,5.1335,0.0,5.1292,5.1289,5.1289,5.122,5.1211,5.1316,5.1058,5.1004,5.1131,5.0972,5.0896,5.0896,5.0731,5.0672,5.0633,5.0517,5.0445,5.0472,5.1288,5.1982,5.2606,5.3475,5.3936,5.418,5.5071,5.539,5.5402,5.5451,5.5476,5.5488,5.5439,5.5425,5.5473,5.5425,5.5449,5.5473,5.5425,5.5413,5.5439,5.5428,5.5415,5.5415,5.5415,5.5415,5.5415,5.539,5.539,5.5377,5.5403,5.5428,5.5415,5.539,5.539,5.5377,5.5403,5.5861,5.6282,5.6282,5.6816,5.7199,5.7199,5.7199,5.7199,5.7199,5.7131,5.6916,5.6618,5.6144,5.5772,5.5523,5.5133,5.495,5.495,5.495,5.4656,5.4069,5.4069,5.3775,5.3203,5.3203,5.3203,5.3203,5.3203,5.3518,0.0,0.0,0.0,0.0,0.0,0.0,4.5288,4.5288,4.5288,4.5288,4.5288,4.5288,4.5288,4.5648,4.5947,4.603,4.6507,4.6946,4.725,4.7976,4.882,4.978,5.0283,5.0735,5.1242,5.132,5.132,5.132,5.132,5.1265,5.1225,5.112,5.1092,5.1075,5.0893,5.0874,5.0966,5.0813,5.0722,5.0722,5.0557,5.0455,5.0483,5.0352,5.0512,5.0894,5.1735,5.2575,5.3416,5.4295,5.4639,5.4677,5.5212,5.5415,5.539,5.5427,5.5477,5.5427,5.539,5.544,5.5427,5.539,5.544,5.5427,5.539,5.5415,5.5492,5.5798,5.6167,5.6434,5.6434,5.6434,5.6434,5.6434,5.6434,5.6434,5.6434,5.6434,5.6358,5.5976,5.5899,5.6014,5.6396,5.6816,5.7122,5.7122,5.7581,5.7886,5.7886,5.7886,5.7886,5.7886,5.7886,5.7725,5.7339,5.6945,5.6556,5.6154,5.5797,5.5596,5.5596,5.5596,5.5354,5.4913,5.4913,5.4656,5.4216,5.3849,5.3885,5.4216,5.4216,5.4436,0.0,0.0,0.0,0.0,0.0,0.0,4.5288,4.5288,4.5288,4.5288,4.5288,4.5326,4.543,4.6003,4.6602,4.6858,4.7578,4.7912,4.7349,4.869,4.9819,4.9914,5.0744,5.1269,5.132,5.132,5.1277,5.1265,5.1256,5.1172,5.1068,5.1049,5.0952,5.0798,5.0758,5.075,5.0766,5.0663,5.0557,5.0557,5.0385,5.0283,5.0283,5.0397,5.0856,5.1646,5.2537,5.3378,5.418,5.5059,5.5403,5.5403,5.5403,5.5403,5.5403,5.5403,5.5403,5.5403,5.5403,5.5403,5.5403,5.5403,5.5403,5.5441,5.5517,5.5517,5.5708,5.6511,5.7313,5.7886,5.7886,5.7886,5.7886,5.7886,5.7886,5.7886,5.7886,5.7886,5.7695,5.7008,5.6816,5.6969,5.7772,5.7963,5.8039,5.8039,5.8116,5.8192,5.8192,5.8192,5.8192,5.8192,5.8127,5.7949,5.7611,5.7157,5.6781,5.6395,5.6055,5.589,5.589,5.589,5.5794,5.5721,5.5669,5.5647,5.5721,5.4913,5.4913,5.5596,5.5596,5.5669,0.0,0.0,0.0,0.0,0.0,0.0,4.5288,4.5288,4.5288,4.5288,4.5288,4.5507,4.6156,4.6385,4.674,4.7471,4.8324,4.892,4.8987,4.9327,4.9864,5.0757,5.1025,5.1196,5.1273,5.132,5.1252,5.1164,5.0985,5.0872,5.0843,5.0748,5.0722,5.079,5.0538,5.0476,5.0653,5.0434,5.0352,5.0352,5.0306,5.0283,5.0321,5.1047,5.1429,5.1684,5.3187,5.3951,5.418,5.5059,5.5403,5.5403,5.5403,5.5403,5.5403,5.5403,5.5403,5.5403,5.5403,5.5403,5.5403,5.5403,5.5403,5.5517,5.6167,5.6358,5.6549,5.739,5.7772,5.7886,5.7886,5.7886,5.7886,5.7886,5.7886,5.7886,5.7886,5.7886,5.8039,5.8536,5.8077,5.7695,5.7886,5.8459,5.888,5.888,5.9453,5.9925,5.9925,5.9925,5.9925,5.9925,5.9619,5.9397,5.9317,5.8672,5.8206,5.8103,5.7752,5.7519,5.7519,5.7519,5.7226,5.6602,5.5941,5.5904,5.6565,5.5757,5.5427,5.5596,5.5596,5.5941,0.0,0.0,0.0,4.5288,0.0,0.0,0.0,4.5288,4.5392,4.5812,4.5889,4.6156,4.6997,4.7494,4.7952,4.8372,4.9137,4.9751,4.9884,5.0008,5.0259,5.0782,5.0903,5.0972,5.1041,5.1047,5.1023,5.0952,5.0882,5.0758,5.0705,5.0644,5.0587,5.0548,5.0369,5.034,5.0462,5.034,5.0283,5.0321,5.0741,5.0971,5.0971,5.1811,5.2422,5.2881,5.376,5.4333,5.4791,5.5212,5.5403,5.5403,5.5403,5.5403,5.5403,5.5403,5.5403,5.5403,5.5403,5.5403,5.5479,5.5861,5.6014,5.6167,5.6969,5.7542,5.7925,5.8383,5.8803,5.9147,5.9147,5.9147,5.9147,5.9147,5.9147,5.9147,5.9147,5.9147,5.9262,5.9682,5.9415,5.9147,5.9147,5.9491,5.9759,5.9759,6.0102,6.0422,6.0422,6.0422,6.0422,6.0422,6.0241,5.9937,5.9537,5.914,5.873,5.8326,5.8097,5.7997,5.7997,5.7997,5.7813,5.7409,5.7005,5.7005,5.7409,5.6969,5.6785,5.6785,5.6785,5.7005,0.0,0.0,0.0,0.0,0.0,4.5288,0.0,0.0,0.0,4.6385,4.6653,0.0,0.0,0.0,0.0,4.911,0.0,0.0,0.0,5.0336,0.0,5.0587,5.0696,5.0758,5.079,5.0766,5.0742,5.0742,5.0717,5.067,5.0537,5.0527,5.0483,5.0321,5.0283,5.0283,5.0283,5.0474,5.055,5.055,5.1429,5.1849,5.1849,5.269,5.3416,5.4104,5.4295,5.4753,5.5403,5.5403,5.5403,5.5403,5.5403,5.5403,5.5403,5.5403,5.5403,5.5441,5.5594,5.5632,5.5785,5.6587,5.6969,5.7199,5.7925,5.8689,5.9338,5.9338,5.9873,6.0422,6.0422,6.0422,6.0422,6.0422,6.0422,6.0422,6.0422,6.0422,6.0422,6.0422,6.0422,6.0422,6.0422,6.0422,6.0422,6.0422,6.0422,6.0422,6.0422,6.0422,6.0422,6.0422,6.027,5.9906,5.927,5.9065,5.8689,5.8042,5.7997,5.7997,5.7997,5.7997,5.7997,5.7997,5.7997,5.7997,5.7997,5.7997,5.7997,5.7997,5.7997,5.7997,0.0,0.0,0.0,0.0,4.5288,0.0,0.0,0.0,4.6385,4.65,0.0,0.0,0.0,0.0,0.0,0.0,0.0,0.0,4.9328,4.9885,5.0407,5.0567,5.0616,5.0661,5.0782,5.0687,5.0625,5.0625,5.0445,5.0352,5.0329,5.0317,5.0306,5.0283,5.0283,5.0283,5.0283,5.1085,5.1455,5.1455,5.227,5.2652,5.269,5.3569,5.4027,5.4142,5.4906,5.5326,5.5403,5.5403,5.5403,5.5403,5.5403,5.5403,5.5403,5.5403,5.5403,5.5517,5.6205,5.6473,5.6587,5.7466,5.823,5.8828,5.8904,5.9568,6.0255,6.0255,6.0332,6.0422,6.0422,6.0422,6.0422,6.0422,6.0422,6.0422,6.0422,6.0422,6.0422,6.0422,6.0422,6.0422,6.0422,6.0422,6.0422,6.0422,6.0422,6.0422,6.0422,6.0422,6.0422,6.0422,5.9739,5.9307,5.9215,5.8561,5.8111,5.7997,5.7997,5.7997,5.7997,5.7997,5.7997,5.7997,5.7997,5.7997,5.7997,5.7997,5.7997,5.7997,5.7997,5.7997,0.0,0.0,0.0,0.0,0.0,0.0,4.6768,0.0,4.7417,0.0,0.0,0.0,0.0,0.0,0.0,0.0,5.0092,0.0,0.0,0.0,5.0317,5.0429,0.0,0.0,5.0489,5.0455,5.044,5.044,5.034,5.0283,5.0283,5.0283,5.0283,5.0283,5.0283,5.055,5.1047,5.1417,5.1849,5.2308,5.3148,5.3531,5.3569,5.4448,5.4868,5.4868,5.525,5.5403,5.5403,5.5403,5.5403,5.5403,5.5403,5.5403,5.5479,5.5938,5.6091,5.6205,5.7046,5.7351,5.7504,5.8345,5.9185,5.9835,5.9835,6.0102,6.0422,6.0422,6.0422,6.0422,6.0422,6.0422,6.0422,6.0422,6.0422,6.0422,6.0422,6.0422,6.0422,6.0422,6.0422,6.0422,6.0422,6.0422,6.0422,6.0422,6.0422,6.0422,6.0422,6.0422,6.0422,6.0422,6.0099,5.9689,5.9252,5.889,5.8498,5.8042,5.7997,5.7997,5.7997,5.7997,5.7997,5.7997,5.7997,5.7997,5.7997,5.7997,5.7997,5.7997,5.7997,5.7997,4.6003,0.0,0.0,0.0,0.0,0.0,0.0,0.0,0.0,0.0,0.0,0.0,0.0,0.0,0.0,0.0,0.0,5.0206,0.0,5.0168,0.0,0.0,0.0,0.0,0.0,5.0283,5.0283,5.0283,5.0283,5.0283,5.0283,5.0283,5.0283,5.0283,5.055,5.0971,5.157,5.2079,5.2575,5.3148,5.4027,5.4448,5.4486,5.5097,5.5403,5.5403,5.5403,5.5403,5.5403,5.5403,5.5403,5.5441,5.5632,5.5747,5.5785,5.6358,5.6753,5.7084,5.7925,5.8383,5.8689,5.9262,5.9873,6.0422,6.0422,6.0422,6.0422,6.0422,6.0422,6.0422,6.0422,6.0422,6.0422,6.0422,6.0422,6.0422,6.0422,6.0422,6.0422,6.0422,6.0422,6.0422,6.0422,6.0422,6.0422,6.0422,6.0422,6.0422,6.0422,6.0422,6.0422,6.0422,6.0299,5.9984,5.9415,5.9178,5.873,5.8042,5.7997,5.7997,5.7997,5.7997,5.7997,5.7997,5.7997,5.7997,5.7997,5.7997,5.7997,5.7997,5.7997,5.7997,0.0,0.0,0.0,4.775,0.0,0.0,0.0,0.0,4.9071,0.0,0.0,0.0,0.0,0.0,0.0,0.0,0.0,0.0,0.0,0.0,0.0,0.0,0.0,0.0,0.0,5.0283,5.0283,5.0283,5.0283,5.0283,5.0283,5.0283,5.0283,5.0283,5.1123,5.1582,5.1608,5.3225,5.4027,5.4065,5.4944,5.5365,5.5365,5.5403,5.5403,5.5403,5.5403,5.5403,5.5403,5.5403,5.5403,5.5479,5.6243,5.6549,5.6549,5.6587,5.7122,5.7963,5.8803,5.9606,6.0332,6.0346,6.037,6.0422,6.0422,6.0422,6.0422,6.0422,6.0422,6.0422,6.0422,6.0422,6.0422,6.0422,6.0422,6.0422,6.0422,6.0422,6.0422,6.0422,6.0422,6.0422,6.0422,6.0422,6.0422,6.0422,6.0422,6.0422,6.0422,6.0422,6.0422,6.0422,6.0068,5.9826,5.9793,5.9084,5.8455,5.8042,5.7997,5.7997,5.7997,5.7997,5.7997,5.7997,5.7997,5.7997,5.7997,5.7997,5.7997,5.7997,5.7997,5.7997,0.0,0.0,4.864,4.864,0.0,0.0,0.0,0.0,0.0,0.0,0.0,0.0,0.0,0.0,0.0,0.0,0.0,0.0,0.0,0.0,0.0,0.0,0.0,0.0,0.0,0.0,5.0283,5.0283,5.0283,5.0283,5.0283,5.0283,5.0283,5.0283,5.1162,5.1849,5.2384,5.3531,5.4409,5.4982,5.525,5.5403,5.5403,5.5403,5.5403,5.5403,5.5403,5.5403,5.5441,5.5976,5.6205,5.6282,5.7122,5.7772,5.8268,5.8268,5.8459,5.8842,5.9682,6.0141,6.0422,6.0422,6.0422,6.0422,6.0422,6.0422,6.0422,6.0422,6.0422,6.0422,6.0422,6.0422,6.0422,6.0422,6.0422,6.0422,6.0422,6.0422,6.0422,6.0422,6.0422,6.0422,6.0422,6.0422,6.0422,6.0422,6.0422,6.0422,6.0422,6.0422,6.0422,6.0422,6.0285,6.0099,5.9826,5.9325,5.8831,5.8434,5.8412,5.826,5.802,5.7997,5.7997,5.7997,5.7997,5.7997,5.7997,5.7997,5.7997,5.7997,5.7997,5.7997,4.8667,4.9098,0.0,4.9519,4.9901,0.0,5.0283,0.0,0.0,0.0,0.0,0.0,0.0,0.0,0.0,0.0,0.0,0.0,0.0,5.0283,0.0,0.0,0.0,0.0,0.0,5.0283,5.0283,5.0283,5.0283,5.0283,5.0283,5.0283,5.0436,5.0741,5.1582,5.2422,5.3263,5.4142,5.483,5.5403,5.5403,5.5403,5.5403,5.5403,5.5403,5.5403,5.5403,5.5556,5.5861,5.6396,5.6778,5.716,5.8001,5.8651,5.9095,5.9095,5.93,5.9644,6.0217,6.0422,6.0422,6.0422,6.0422,6.0422,6.0422,6.0422,6.0422,6.0422,6.0422,6.0422,6.0422,6.0422,6.0422,6.0422,6.0422,6.0422,6.0422,6.0422,6.0422,6.0422,6.0422,6.0422,6.0422,6.0422,6.0422,6.0422,6.0422,6.0422,6.0422,6.0422,6.0422,6.0422,6.0422,6.0256,5.9842,5.9554,5.9197,5.8628,5.8607,5.8434,5.802,5.7997,5.7997,5.7997,5.7997,5.7997,5.7997,5.7997,5.7997,5.7997,5.7997,5.7997]}]]